[[{"header":{"parameterUnit":"m.s-1","parameterCategory":1,"la1":30.6,"la2":29.2853,"lo1":-89.7004,"lo2":-87.6739,"dy":0.0162,"dx":0.0183,"nx":112,"ny":82,"refTime":"2025-01-01T18:00:00:Z","depth":0,"parameterNumber":2,"parameterNumberName":"U-component_of_WINDS"},"data":[0.0,0.0,0.0,0.0,0.0,0.0,0.0,0.0,0.0,0.0,0.0,0.0,0.0,0.0,0.0,0.0,0.0,0.0,0.0,0.0,0.0,0.0,0.0,0.0,0.0,0.0,0.0,0.0,0.0,0.0,0.0,0.0,0.0,0.0,0.0,0.0,0.0,0.0,0.0,0.0,0.0,0.0,0.0,0.0,0.0,0.0,0.0,0.0,0.0,0.0,0.0,0.0,0.0,0.0,0.0,0.0,0.0,0.0,0.0,0.0,0.0,0.0,0.0,0.0,0.0,0.0,0.0,0.0,0.0,0.0,0.0,0.0,0.0,0.0,0.0,0.0,0.0,0.0,0.0,0.0,0.0,0.0,0.0,0.0,0.0,0.0,0.0,0.0,0.0,0.0,0.0,3.5725,3.6337,3.6642,3.6528,3.584,3.4617,3.2806,0.0,0.0,0.0,0.0,0.0,0.0,0.0,0.0,0.0,0.0,0.0,0.0,0.0,0.0,0.0,0.0,0.0,0.0,0.0,0.0,0.0,0.0,0.0,0.0,0.0,0.0,0.0,0.0,0.0,0.0,0.0,0.0,0.0,0.0,0.0,0.0,0.0,0.0,0.0,0.0,0.0,0.0,0.0,0.0,0.0,0.0,0.0,0.0,0.0,0.0,0.0,0.0,0.0,0.0,0.0,0.0,0.0,0.0,0.0,0.0,0.0,0.0,0.0,0.0,0.0,0.0,0.0,0.0,0.0,0.0,0.0,0.0,0.0,0.0,0.0,0.0,0.0,0.0,0.0,0.0,0.0,0.0,0.0,0.0,0.0,0.0,0.0,0.0,0.0,0.0,0.0,0.0,0.0,0.0,0.0,0.0,0.0,0.0,0.0,0.0,0.0,0.0,0.0,0.0,3.6031,3.8209,3.7865,3.7254,3.6566,3.6375,3.525,3.2844,0.0,0.0,0.0,0.0,0.0,0.0,0.0,0.0,0.0,0.0,0.0,0.0,0.0,0.0,0.0,0.0,0.0,0.0,0.0,0.0,0.0,0.0,0.0,0.0,0.0,0.0,0.0,0.0,0.0,0.0,0.0,0.0,0.0,0.0,0.0,0.0,0.0,0.0,0.0,0.0,0.0,0.0,0.0,0.0,0.0,0.0,0.0,0.0,0.0,0.0,0.0,0.0,0.0,0.0,0.0,0.0,0.0,0.0,0.0,0.0,0.0,0.0,0.0,0.0,0.0,0.0,0.0,0.0,0.0,0.0,0.0,0.0,0.0,0.0,0.0,0.0,0.0,0.0,0.0,0.0,0.0,0.0,0.0,0.0,0.0,0.0,0.0,0.0,0.0,0.0,0.0,0.0,0.0,0.0,0.0,0.0,0.0,0.0,0.0,0.0,0.0,0.0,0.0,3.542,3.6719,3.8782,3.8629,3.8247,3.7903,3.7024,3.5611,3.3547,3.2858,0.0,0.0,0.0,0.0,0.0,0.0,0.0,0.0,0.0,0.0,0.0,0.0,0.0,0.0,0.0,0.0,0.0,0.0,0.0,0.0,0.0,0.0,0.0,0.0,0.0,0.0,0.0,0.0,0.0,0.0,0.0,0.0,0.0,0.0,0.0,0.0,0.0,0.0,0.0,0.0,0.0,0.0,0.0,0.0,0.0,0.0,0.0,0.0,0.0,0.0,0.0,0.0,0.0,0.0,0.0,0.0,0.0,0.0,0.0,0.0,0.0,0.0,0.0,0.0,0.0,0.0,0.0,0.0,0.0,0.0,0.0,0.0,0.0,0.0,0.0,0.0,0.0,0.0,0.0,0.0,0.0,0.0,0.0,0.0,0.0,0.0,0.0,0.0,0.0,0.0,0.0,0.0,0.0,0.0,0.0,0.0,0.0,0.0,0.0,0.0,0.0,0.0,3.7024,3.798,3.9431,3.9431,3.924,3.9011,3.7483,3.5802,3.412,3.3012,0.0,0.0,0.0,0.0,0.0,0.0,0.0,0.0,0.0,0.0,0.0,0.0,0.0,0.0,0.0,0.0,0.0,0.0,0.0,0.0,0.0,0.0,0.0,0.0,0.0,0.0,0.0,0.0,0.0,0.0,0.0,0.0,0.0,0.0,0.0,0.0,0.0,0.0,0.0,0.0,0.0,0.0,0.0,0.0,0.0,0.0,0.0,0.0,0.0,0.0,0.0,0.0,0.0,0.0,0.0,0.0,0.0,0.0,0.0,0.0,0.0,0.0,0.0,0.0,0.0,0.0,0.0,0.0,0.0,0.0,0.0,0.0,0.0,0.0,0.0,0.0,0.0,0.0,0.0,0.0,0.0,0.0,0.0,0.0,0.0,0.0,0.0,0.0,0.0,0.0,0.0,0.0,0.0,0.0,0.0,0.0,0.0,0.0,0.0,0.0,0.0,0.0,3.857,4.0348,4.1227,4.0654,3.989,3.9088,3.7483,3.5802,3.412,3.2477,0.0,0.0,0.0,0.0,0.0,0.0,0.0,0.0,0.0,0.0,0.0,0.0,0.0,0.0,0.0,0.0,0.0,0.0,0.0,0.0,0.0,0.0,0.0,0.0,0.0,0.0,0.0,0.0,0.0,0.0,0.0,0.0,0.0,0.0,0.0,0.0,0.0,0.0,0.0,0.0,0.0,0.0,0.0,0.0,0.0,0.0,0.0,0.0,0.0,0.0,0.0,0.0,0.0,0.0,0.0,0.0,0.0,0.0,0.0,0.0,0.0,0.0,0.0,0.0,0.0,0.0,0.0,0.0,0.0,0.0,0.0,0.0,0.0,0.0,0.0,0.0,0.0,0.0,0.0,0.0,0.0,0.0,0.0,0.0,0.0,0.0,0.0,0.0,0.0,0.0,0.0,0.0,0.0,0.0,0.0,0.0,0.0,0.0,0.0,0.0,0.0,0.0,3.8226,3.9814,0.0,4.0501,4.0387,4.054,3.8514,3.6757,3.5649,0.0,0.0,0.0,0.0,0.0,0.0,0.0,0.0,0.0,0.0,0.0,0.0,0.0,0.0,0.0,0.0,0.0,0.0,0.0,0.0,0.0,0.0,0.0,0.0,0.0,0.0,0.0,0.0,0.0,0.0,0.0,0.0,0.0,0.0,0.0,0.0,0.0,0.0,0.0,0.0,0.0,0.0,0.0,0.0,0.0,0.0,0.0,0.0,0.0,0.0,0.0,0.0,0.0,0.0,0.0,0.0,0.0,0.0,0.0,0.0,0.0,0.0,0.0,0.0,0.0,0.0,0.0,0.0,0.0,0.0,0.0,0.0,0.0,0.0,0.0,0.0,0.0,0.0,0.0,0.0,0.0,0.0,0.0,0.0,0.0,0.0,0.0,0.0,0.0,0.0,0.0,0.0,0.0,0.0,0.0,0.0,0.0,0.0,0.0,0.0,0.0,0.0,3.6435,3.8682,4.0214,0.0,4.0291,4.0405,4.0692,3.8629,3.6871,3.5763,0.0,0.0,0.0,0.0,0.0,0.0,0.0,0.0,0.0,0.0,0.0,0.0,0.0,0.0,0.0,0.0,0.0,0.0,0.0,0.0,0.0,0.0,0.0,0.0,0.0,0.0,0.0,0.0,0.0,0.0,0.0,0.0,0.0,0.0,0.0,0.0,0.0,0.0,0.0,0.0,0.0,0.0,0.0,0.0,0.0,0.0,0.0,0.0,0.0,0.0,0.0,0.0,0.0,0.0,0.0,0.0,0.0,0.0,0.0,0.0,0.0,0.0,0.0,0.0,0.0,0.0,0.0,0.0,0.0,0.0,0.0,0.0,0.0,0.0,0.0,0.0,0.0,0.0,0.0,0.0,0.0,0.0,0.0,0.0,0.0,0.0,0.0,0.0,0.0,0.0,0.0,0.0,0.0,0.0,0.0,0.0,0.0,0.0,0.0,0.0,0.0,0.0,3.6819,4.0283,4.2144,4.0498,4.0307,3.9945,3.9088,3.7483,3.5802,0.0,0.0,0.0,0.0,0.0,0.0,0.0,0.0,0.0,0.0,0.0,0.0,0.0,0.0,0.0,0.0,0.0,0.0,0.0,0.0,0.0,0.0,0.0,0.0,0.0,0.0,0.0,0.0,0.0,0.0,0.0,0.0,0.0,0.0,0.0,0.0,0.0,0.0,0.0,0.0,0.0,0.0,0.0,0.0,0.0,0.0,0.0,0.0,0.0,0.0,0.0,0.0,0.0,0.0,0.0,0.0,0.0,0.0,0.0,0.0,0.0,0.0,0.0,0.0,0.0,0.0,0.0,0.0,0.0,0.0,0.0,0.0,0.0,0.0,0.0,0.0,0.0,0.0,0.0,0.0,0.0,0.0,0.0,0.0,0.0,0.0,0.0,0.0,0.0,0.0,0.0,0.0,0.0,0.0,0.0,0.0,0.0,0.0,0.0,0.0,0.0,0.0,0.0,0.0,4.0663,4.222,4.046,4.0307,4.0212,3.9928,3.8323,3.6375,3.412,0.0,0.0,0.0,0.0,0.0,0.0,0.0,0.0,0.0,0.0,0.0,0.0,0.0,0.0,0.0,0.0,0.0,0.0,0.0,0.0,0.0,0.0,0.0,0.0,0.0,0.0,0.0,0.0,0.0,0.0,0.0,0.0,0.0,0.0,0.0,0.0,0.0,0.0,0.0,0.0,0.0,0.0,0.0,0.0,0.0,0.0,0.0,0.0,0.0,0.0,0.0,0.0,0.0,0.0,0.0,0.0,0.0,0.0,0.0,0.0,0.0,0.0,0.0,0.0,0.0,0.0,0.0,0.0,0.0,0.0,0.0,0.0,0.0,0.0,0.0,0.0,0.0,0.0,0.0,0.0,0.0,0.0,0.0,0.0,0.0,0.0,0.0,0.0,0.0,0.0,0.0,0.0,0.0,0.0,0.0,0.0,0.0,0.0,0.0,0.0,0.0,0.0,3.8424,4.108,4.2389,4.1029,4.0534,4.0192,3.985,3.8532,3.6642,3.4159,0.0,0.0,0.0,0.0,0.0,0.0,0.0,0.0,0.0,0.0,0.0,0.0,0.0,0.0,0.0,0.0,0.0,0.0,0.0,0.0,0.0,0.0,0.0,0.0,0.0,0.0,0.0,0.0,0.0,0.0,0.0,0.0,0.0,0.0,0.0,0.0,0.0,0.0,0.0,0.0,0.0,0.0,0.0,0.0,0.0,0.0,0.0,0.0,0.0,0.0,0.0,0.0,0.0,0.0,0.0,0.0,0.0,0.0,0.0,0.0,0.0,0.0,0.0,0.0,0.0,0.0,0.0,0.0,0.0,0.0,0.0,0.0,0.0,0.0,0.0,0.0,0.0,0.0,0.0,0.0,0.0,0.0,0.0,0.0,0.0,0.0,0.0,0.0,0.0,0.0,0.0,0.0,0.0,0.0,0.0,0.0,0.0,0.0,0.0,0.0,0.0,0.0,3.92,4.1553,4.2748,4.1788,4.0969,4.013,3.9176,3.8244,3.6604,3.4044,0.0,0.0,0.0,0.0,0.0,0.0,0.0,0.0,0.0,0.0,0.0,0.0,0.0,0.0,0.0,0.0,0.0,0.0,0.0,0.0,0.0,0.0,0.0,0.0,0.0,0.0,0.0,0.0,0.0,0.0,0.0,0.0,0.0,0.0,0.0,0.0,0.0,0.0,0.0,0.0,0.0,0.0,0.0,0.0,0.0,0.0,0.0,0.0,0.0,0.0,0.0,0.0,0.0,0.0,0.0,0.0,0.0,0.0,0.0,0.0,3.3523,0.0,0.0,0.0,0.0,0.0,0.0,0.0,0.0,0.0,0.0,0.0,0.0,0.0,0.0,0.0,0.0,0.0,0.0,0.0,0.0,0.0,0.0,0.0,0.0,0.0,0.0,0.0,0.0,0.0,0.0,0.0,0.0,0.0,0.0,0.0,0.0,0.0,0.0,0.0,0.0,0.0,3.92,4.2085,4.3436,4.1882,4.1524,4.0781,3.9214,3.8244,3.6337,3.3203,0.0,0.0,0.0,0.0,0.0,0.0,0.0,0.0,0.0,0.0,0.0,0.0,0.0,0.0,0.0,0.0,0.0,0.0,0.0,0.0,0.0,0.0,0.0,0.0,0.0,0.0,0.0,0.0,0.0,0.0,0.0,0.0,0.0,0.0,0.0,0.0,0.0,0.0,0.0,0.0,0.0,0.0,0.0,0.0,0.0,0.0,0.0,0.0,0.0,0.0,0.0,0.0,0.0,0.0,0.0,0.0,0.0,0.0,0.0,0.0,0.0,3.4724,0.0,0.0,0.0,0.0,0.0,0.0,0.0,0.0,0.0,0.0,0.0,0.0,0.0,0.0,0.0,0.0,0.0,0.0,0.0,0.0,0.0,0.0,0.0,0.0,0.0,0.0,0.0,0.0,0.0,0.0,0.0,0.0,0.0,0.0,0.0,0.0,0.0,0.0,0.0,0.0,4.0277,4.2701,4.397,4.3052,4.2194,4.1336,4.0419,3.9103,3.7254,3.4677,3.3356,0.0,0.0,0.0,0.0,0.0,0.0,0.0,0.0,0.0,0.0,0.0,0.0,0.0,0.0,0.0,0.0,0.0,0.0,0.0,0.0,0.0,0.0,0.0,0.0,0.0,0.0,0.0,0.0,0.0,0.0,0.0,0.0,0.0,0.0,0.0,0.0,0.0,0.0,0.0,0.0,0.0,0.0,0.0,0.0,0.0,0.0,0.0,0.0,0.0,0.0,0.0,0.0,0.0,0.0,0.0,4.0283,4.0311,4.0268,4.0176,3.8569,3.7627,3.7156,0.0,0.0,0.0,0.0,0.0,0.0,0.0,0.0,0.0,0.0,0.0,0.0,0.0,0.0,0.0,0.0,0.0,0.0,0.0,0.0,0.0,0.0,0.0,0.0,0.0,3.7007,3.6969,0.0,0.0,0.0,0.0,0.0,0.0,0.0,0.0,0.0,0.0,0.0,0.0,4.17,4.3508,4.447,4.4316,4.3017,4.2044,4.1737,4.0192,3.8532,3.6833,3.4999,3.2669,0.0,0.0,0.0,0.0,0.0,0.0,0.0,0.0,0.0,0.0,0.0,0.0,0.0,0.0,0.0,0.0,0.0,0.0,0.0,0.0,0.0,0.0,0.0,0.0,0.0,0.0,0.0,0.0,0.0,0.0,0.0,0.0,3.2397,3.3295,0.0,0.0,0.0,0.0,0.0,0.0,0.0,0.0,0.0,0.0,0.0,0.0,0.0,0.0,3.8248,4.0555,4.1807,4.2048,4.2669,4.3014,4.3084,4.3071,4.3027,4.2866,4.2633,0.0,3.9191,3.9123,0.0,0.0,0.0,0.0,0.0,0.0,0.0,0.0,0.0,0.0,0.0,0.0,0.0,0.0,0.0,0.0,0.0,0.0,0.0,0.0,0.0,0.0,4.0969,4.0969,4.0469,3.9931,0.0,3.7392,3.5032,3.4045,0.0,0.0,0.0,0.0,0.0,0.0,0.0,0.0,4.2585,4.4393,4.5124,4.4393,4.4072,4.3363,4.1827,4.0743,3.9409,3.7725,3.5376,3.3471,3.2248,3.0682,0.0,0.0,0.0,0.0,0.0,0.0,0.0,0.0,0.0,0.0,0.0,0.0,0.0,0.0,0.0,0.0,0.0,0.0,0.0,0.0,0.0,0.0,0.0,0.0,0.0,0.0,0.0,0.0,0.0,3.3336,3.4078,3.5444,3.482,3.4117,0.0,0.0,0.0,0.0,0.0,0.0,0.0,0.0,0.0,3.7588,4.0444,4.181,4.1452,4.3056,4.4114,4.4582,4.4465,4.466,4.5129,4.5129,4.509,4.5047,4.5011,4.4104,4.2516,4.0981,3.9364,3.7727,0.0,0.0,0.0,0.0,0.0,0.0,4.0154,0.0,0.0,0.0,0.0,0.0,0.0,0.0,0.0,0.0,0.0,0.0,0.0,0.0,0.0,4.2431,4.2239,4.197,4.197,4.0816,3.9084,0.0,3.6738,3.6469,3.4661,0.0,0.0,0.0,0.0,0.0,4.3508,4.4816,4.5432,4.5047,4.4589,4.3978,4.3209,4.1855,4.0498,3.9273,3.7708,3.5993,3.4197,3.2974,3.1331,0.0,0.0,0.0,0.0,0.0,0.0,0.0,0.0,0.0,0.0,0.0,0.0,0.0,0.0,0.0,0.0,0.0,0.0,0.0,0.0,0.0,0.0,0.0,0.0,0.0,0.0,0.0,0.0,3.4549,3.5171,3.6498,3.6264,3.5759,0.0,0.0,0.0,0.0,0.0,0.0,3.9156,3.9858,4.0327,4.0476,4.2982,4.427,4.4032,4.4894,4.5675,4.63,4.5636,4.5675,4.63,4.63,4.63,4.63,4.63,4.5948,4.5164,4.2896,4.1288,4.0143,3.8859,3.8556,0.0,4.0024,4.0607,4.1146,4.3096,4.3327,4.2563,4.1331,0.0,4.0492,3.8569,0.0,0.0,0.0,0.0,3.9546,4.2124,0.0,4.2662,4.3547,4.3585,4.3393,4.3393,4.3239,4.2277,0.0,3.9508,3.9277,3.7161,0.0,0.0,0.0,0.0,4.2739,4.4432,4.5201,4.5586,4.5586,4.503,4.4533,4.4303,4.3041,4.1818,4.0746,3.9812,3.84,3.626,3.4961,3.3318,0.0,0.0,0.0,0.0,0.0,0.0,0.0,0.0,0.0,0.0,0.0,0.0,0.0,0.0,0.0,0.0,0.0,0.0,0.0,0.0,0.0,0.0,0.0,0.0,0.0,0.0,0.0,0.0,0.0,0.0,3.4817,3.5522,0.0,0.0,0.0,0.0,3.9429,4.0363,4.087,4.0952,4.3333,4.3954,4.2315,4.4816,4.5753,4.4933,4.5792,4.6261,4.63,4.6261,4.6261,4.63,4.63,4.63,4.63,4.63,4.6261,4.6144,4.5203,4.3759,4.2158,4.2077,4.1491,4.0959,4.2613,4.2672,4.227,4.4799,4.4008,4.2244,4.4547,4.3684,4.1728,4.1574,4.0438,0.0,0.0,4.2239,4.22,4.4739,4.4778,4.4393,4.5278,4.4855,4.4239,4.4239,4.3624,4.2816,0.0,4.1662,4.1354,4.0392,0.0,0.0,4.2585,4.2931,4.3624,4.5316,4.5547,4.5586,4.5586,4.5547,4.5201,4.4355,4.4152,4.3368,4.1719,4.0748,3.9814,3.8858,3.6451,3.4732,3.3815,3.1369,0.0,0.0,0.0,0.0,0.0,0.0,0.0,0.0,0.0,0.0,0.0,0.0,0.0,0.0,0.0,0.0,0.0,0.0,0.0,0.0,0.0,0.0,0.0,0.0,0.0,0.0,0.0,0.0,3.8684,3.9081,0.0,0.0,3.978,4.0714,4.2204,4.2591,4.3251,4.4387,4.4816,4.4972,4.4894,4.5792,4.6144,4.5831,4.6144,4.63,4.63,4.63,4.63,4.63,4.63,4.63,4.63,4.63,4.63,4.6261,4.5948,4.5129,4.3997,4.3411,4.3294,4.3482,4.4097,4.4401,4.4637,4.5557,4.5201,4.4432,4.4684,4.4145,4.3299,4.2783,4.2569,4.2701,4.3624,4.3662,4.3739,4.5201,4.5355,4.5201,4.5509,4.5355,4.5124,4.5124,4.4893,4.4624,4.4316,4.3778,4.3162,4.2316,4.3047,4.3624,4.3162,4.4008,4.4932,4.5509,4.5586,4.5586,4.5586,4.5586,4.547,4.5163,4.4574,4.3943,4.3368,4.2432,4.1304,3.989,3.8438,3.6757,3.4808,3.2821,3.0987,0.0,0.0,0.0,0.0,0.0,0.0,0.0,0.0,0.0,0.0,0.0,0.0,0.0,0.0,0.0,0.0,0.0,0.0,0.0,0.0,0.0,0.0,0.0,0.0,0.0,0.0,3.9429,4.0522,4.1189,4.1543,4.154,4.2041,4.3017,4.4468,4.4309,4.4777,4.6222,4.5753,4.5714,4.6261,4.63,4.63,4.63,4.63,4.63,4.63,4.63,4.63,4.63,4.63,4.63,4.63,4.63,4.63,4.63,4.63,4.5948,4.5363,4.4816,4.4894,4.5324,4.5324,4.5597,4.5972,4.5919,4.5873,4.568,4.503,4.4778,4.4641,4.4124,4.4316,4.4739,4.4739,4.4739,4.4855,4.5432,4.5586,4.5586,4.5586,4.5586,4.5586,4.5586,4.5586,4.5586,4.5586,4.5124,4.4586,4.4047,4.4855,4.5201,4.4124,4.4893,4.5586,4.5586,4.5586,4.5586,4.5586,4.5586,4.5586,4.5586,4.4746,4.423,4.4211,4.2795,4.1476,4.0348,3.9164,3.7636,3.5687,3.4006,3.2592,3.1484,0.0,0.0,0.0,0.0,0.0,0.0,0.0,0.0,0.0,0.0,0.0,0.0,0.0,0.0,0.0,0.0,0.0,0.0,0.0,0.0,0.0,0.0,0.0,3.8765,3.9429,4.0015,3.9976,4.1456,4.251,4.251,4.251,4.3564,4.6105,4.5519,4.5402,4.6261,4.6339,4.6339,4.6339,4.6378,4.6378,4.6378,4.6378,4.6378,4.6378,4.6378,4.6378,4.6378,4.6378,4.6378,4.6378,4.6378,4.6378,4.6378,4.6378,4.6378,4.6378,4.6339,4.63,4.63,4.63,4.6222,4.6105,4.5948,4.5852,4.583,4.5813,4.5719,4.5603,4.5603,4.5603,4.5586,4.5586,4.5586,4.5586,4.5586,4.5586,4.5586,4.5586,4.5586,4.5586,4.5586,4.5586,4.5586,4.5586,4.5586,4.5586,4.5586,4.5586,4.5586,4.5586,4.5586,0.0,4.5586,4.5586,4.5586,4.5586,4.5586,4.5586,4.5586,4.482,4.4305,4.4173,4.1798,4.0366,4.031,3.8667,3.7368,3.6566,3.4885,3.4044,3.4044,0.0,0.0,0.0,0.0,0.0,0.0,0.0,0.0,0.0,0.0,0.0,0.0,0.0,0.0,0.0,0.0,0.0,0.0,0.0,0.0,0.0,0.0,3.9803,3.9569,4.1353,4.2861,4.3489,4.3997,4.4543,4.5168,4.5246,4.5519,4.6261,4.6066,4.6066,4.63,4.6885,4.7237,4.7237,4.7826,4.8099,4.8099,4.8099,4.8099,4.8099,4.8099,4.8099,4.8099,4.8096,4.8092,4.8092,4.8096,4.8096,4.8096,4.8096,4.8096,4.7978,4.6768,4.63,4.63,4.63,4.6261,4.6222,4.6105,4.603,4.599,4.5886,4.5815,4.5761,4.5761,4.568,4.5586,4.5586,4.5586,4.5586,4.5586,4.5586,4.5586,4.5586,4.5586,4.5586,4.5586,4.5586,4.5586,4.5586,4.5586,4.5586,4.5586,4.5586,4.5586,4.5586,0.0,0.0,4.5586,4.5586,4.5586,4.5586,4.5586,4.5586,4.5586,4.5358,4.4612,0.0,4.2564,4.159,4.0348,3.924,3.8247,3.7406,3.5725,3.4885,0.0,0.0,0.0,0.0,0.0,0.0,0.0,0.0,0.0,0.0,0.0,0.0,0.0,0.0,0.0,0.0,0.0,0.0,0.0,0.0,0.0,0.0,4.0117,4.1601,4.1992,4.3317,4.456,4.546,4.5528,4.5753,4.6261,4.63,4.63,4.63,4.6651,4.6846,4.6846,4.7627,4.8096,4.8096,4.8564,4.8798,4.8798,4.8798,4.8798,4.8798,4.8798,4.8798,4.8798,4.8794,4.8794,0.0,4.8794,4.8798,4.8798,4.8798,4.8798,0.0,0.0,0.0,0.0,0.0,4.6534,4.6846,4.6768,4.669,4.6644,4.6541,4.6202,4.584,4.619,4.6229,4.6124,4.6124,4.6124,4.6047,4.5701,4.5586,4.5586,4.5586,4.5586,4.5586,4.5586,4.5586,4.5586,4.5586,0.0,0.0,4.5586,4.5586,4.5586,4.5586,4.5586,4.5586,0.0,4.5586,4.5586,4.5586,4.5586,4.5586,4.5586,4.5222,0.0,0.0,0.0,4.1187,3.9814,0.0,0.0,0.0,0.0,0.0,0.0,0.0,0.0,0.0,3.6146,3.5916,0.0,0.0,0.0,0.0,0.0,0.0,0.0,0.0,0.0,0.0,0.0,0.0,0.0,0.0,0.0,0.0,4.2226,4.4141,4.5039,4.5156,4.543,4.6211,4.6282,4.6306,4.6306,4.6381,4.6459,4.6463,4.724,4.7744,0.0,0.0,0.0,0.0,0.0,4.9107,4.9107,4.9107,4.9107,4.9107,4.9107,4.9107,4.9107,4.9107,4.9107,4.9107,4.9107,4.9107,4.9107,4.9107,4.9032,4.8876,4.8057,4.7748,4.7631,4.6885,4.7081,0.0,0.0,0.0,0.0,4.7549,4.6898,4.6279,4.6964,4.7124,4.708,4.708,4.7062,4.6891,4.6121,4.5873,4.5855,4.5855,4.5855,4.5855,4.5855,4.5817,4.574,4.574,4.5663,4.5586,4.5586,4.5586,4.5586,4.5586,4.5586,0.0,4.5586,4.5586,4.5586,4.5586,0.0,0.0,4.5586,4.4893,4.432,4.4058,4.1834,4.0133,3.9317,3.8629,3.9011,4.054,4.0578,4.0922,4.1648,4.2412,4.2794,4.2679,3.7445,3.6604,0.0,0.0,0.0,0.0,0.0,0.0,0.0,0.0,0.0,0.0,0.0,0.0,0.0,0.0,0.0,4.1601,4.3516,4.5039,4.5937,4.6055,4.6094,4.6289,4.6289,4.6288,4.6288,4.6939,4.7366,4.7342,4.8163,4.8666,4.8642,4.9419,0.0,4.9848,5.0516,5.0906,5.0906,5.0906,5.0906,5.0906,0.0,0.0,5.0906,5.0906,5.0906,5.0906,5.0906,5.0906,5.0906,5.0906,5.0477,4.9774,4.8915,4.8564,4.8564,4.8369,4.8408,4.8564,4.8564,4.8564,4.8525,4.8525,4.8332,4.8187,4.8327,4.8292,0.0,4.8192,4.8114,4.8013,4.782,4.7709,4.7625,4.7625,4.7625,4.7625,4.7625,4.7124,4.6663,4.6663,4.6086,4.5586,4.5586,4.5586,4.5586,4.5586,4.5586,4.5586,4.5586,4.5586,4.5586,4.5586,4.5586,4.5586,4.5586,4.5432,4.4705,4.3233,4.1991,4.1208,4.0998,4.1533,4.1953,4.2297,4.2335,4.2374,4.2565,4.2717,4.2794,4.2756,4.1648,4.1457,0.0,0.0,0.0,0.0,0.0,0.0,0.0,0.0,0.0,0.0,0.0,3.5742,3.707,0.0,4.125,4.3359,4.4414,4.5312,4.6172,4.6289,4.6289,4.6289,4.6289,4.6484,4.6914,4.7341,4.7766,4.8235,4.9061,4.9531,4.9485,5.0298,5.0764,5.0764,5.1183,5.1414,5.1414,5.1414,5.1414,5.1414,5.1414,5.1414,5.1414,5.1414,5.1414,5.1414,5.1414,5.1414,5.1414,5.1414,5.1141,5.0711,5.0282,4.9579,4.8798,4.8798,4.9072,4.9462,4.9462,4.9462,4.9462,4.9462,4.9118,4.8794,4.9184,4.9235,4.9165,4.9165,4.9108,4.8942,4.8516,4.829,4.8188,4.8188,4.8158,4.8086,4.8086,4.7778,4.7509,4.7509,4.7163,4.6701,4.6317,4.624,4.6086,4.5663,4.5586,4.5586,4.5586,4.5586,4.5586,4.5586,4.5586,4.5586,4.5586,4.5184,4.4572,4.3598,4.268,4.2145,4.2144,4.2565,4.2794,4.2794,4.3214,4.3405,4.3405,4.3825,4.4055,4.4055,4.4055,4.3825,0.0,0.0,0.0,0.0,0.0,0.0,0.0,0.0,3.6367,3.582,3.7109,3.8789,4.0351,4.1367,4.2656,4.4883,4.5234,4.5508,4.6211,4.6445,4.6562,4.6562,4.6562,4.6875,4.7773,4.8008,4.8397,4.9087,4.9959,5.0391,5.0351,5.1014,5.1402,5.1402,5.1548,5.1659,5.1655,5.1808,5.1921,5.1921,5.1921,5.1804,5.1648,5.1648,5.157,5.1414,5.1414,5.1414,5.1414,5.1414,5.1414,5.1414,5.1414,5.0555,4.9306,4.9306,4.9735,5.036,5.036,5.036,5.036,5.036,4.9825,4.9361,4.9978,5.0135,5.0111,5.0111,5.0101,4.9925,4.9197,4.8941,4.8822,4.8793,4.8723,4.8641,4.8586,4.8471,4.8355,4.8355,4.824,4.7894,4.724,4.7124,4.6778,4.574,4.5586,4.5586,4.5586,4.5586,4.5586,4.5586,4.5586,4.5586,4.5586,4.4935,4.4497,4.446,4.3714,4.3312,4.3311,4.3291,4.3291,4.3291,4.394,4.4246,4.4246,4.4972,4.5277,4.5277,4.5277,4.4934,3.3047,3.3164,3.3594,3.4492,3.4687,3.5273,0.0,0.0,3.8516,3.918,4.0664,4.2148,4.3086,4.3984,4.4922,4.5976,4.6133,4.6172,4.6289,4.6953,4.7461,4.7461,4.7461,4.7812,4.8672,4.9453,4.9961,5.0038,5.082,5.125,5.125,5.1367,5.1406,5.1406,5.2148,5.2537,5.2568,5.3338,5.3717,5.3717,5.3717,5.3288,5.2546,5.2546,5.2117,5.1414,5.1414,5.1414,5.1414,5.1414,5.1414,5.1414,5.1414,5.1297,5.1102,5.1102,5.118,5.1258,5.1258,5.1258,5.1258,5.1258,5.1176,5.1093,5.121,5.1245,5.1206,5.1206,5.1128,5.1031,5.0914,5.0801,5.0688,5.0642,5.0596,5.0532,5.0433,4.9779,4.924,4.924,4.8625,4.8086,4.7971,4.7971,4.7432,4.5817,4.5586,4.5586,4.5586,4.5586,4.5586,4.5586,4.5586,4.5586,4.5586,4.5473,4.536,4.536,4.5189,4.5092,4.513,4.5051,4.501,4.501,4.5086,4.5163,4.5163,4.5239,4.5277,4.5277,4.5277,4.5239,3.5502,3.4922,0.0,0.0,3.8125,3.8789,3.9844,4.0859,4.1523,4.1367,4.2734,4.4023,4.4375,4.5156,4.5898,0.0,4.6719,4.707,4.707,4.7383,4.7773,4.8281,4.8359,4.8711,4.957,5.0,5.0391,5.0859,5.1211,5.1406,5.1406,5.1875,5.2148,5.2148,5.3008,5.3476,5.3475,5.3825,5.4015,5.4008,5.3994,5.3795,5.3444,5.3444,5.3249,5.2897,5.2897,5.2897,5.2897,5.2897,5.2897,5.2897,5.2897,5.2897,5.278,5.1765,5.1414,5.1414,5.1414,5.1414,5.1414,5.1414,5.1414,5.1414,5.1414,5.1414,5.1414,5.1414,5.1362,5.1302,5.1302,5.1211,5.1094,5.1092,5.0998,5.089,5.0825,5.0488,5.0164,5.0164,4.9856,4.9433,4.8933,4.8856,4.8432,4.724,4.7048,4.6894,4.6432,4.6355,4.6355,4.6355,4.6355,4.6355,4.6355,4.6337,4.6088,4.5514,4.5458,4.54,4.5398,4.5357,4.5507,4.6003,4.6003,4.6233,4.6768,4.6768,4.6768,4.6768,4.6768,4.6768,3.6085,0.0,0.0,3.9141,4.0703,4.1601,4.1836,4.3008,4.3867,4.3242,4.4297,4.5351,4.5351,4.5859,0.0,4.6601,4.7187,4.7695,4.793,4.7969,4.8203,4.8828,4.8906,4.9258,5.0117,5.0391,5.0781,5.1367,5.1601,5.1758,5.1758,5.2578,5.3047,5.3047,5.3906,5.4375,5.4375,5.4609,5.4726,5.4722,5.4711,5.4584,5.435,5.4112,5.399,5.399,5.399,5.399,5.399,5.3756,5.3639,5.3639,5.3366,5.3288,5.3132,5.1882,5.1687,5.2117,5.2117,5.196,5.1765,5.1765,5.1609,5.1414,5.1414,5.1414,5.1414,5.1414,5.1414,5.1414,5.1414,5.1347,5.1271,5.1211,5.1092,5.0984,5.0898,5.0808,5.074,5.0721,5.0702,5.051,4.9856,4.974,4.9548,4.8894,4.8817,4.8432,4.7355,4.724,4.724,4.724,4.724,4.724,4.724,4.724,4.6952,4.6262,4.6129,4.6109,4.6127,4.6046,4.6271,4.6844,4.6882,4.7188,4.7799,4.7799,4.7799,4.7799,4.7799,4.7952,0.0,0.0,3.7656,3.9453,4.1133,4.2578,4.3437,4.4336,4.4961,4.4922,4.5625,4.625,4.625,4.6289,4.6562,4.7422,4.7578,4.7891,4.875,4.8867,4.8867,4.8906,4.8906,4.9258,0.0,5.0898,5.1367,5.1406,5.2187,5.2656,5.2656,5.3476,5.3945,5.3945,5.4805,5.5273,5.5273,5.6094,5.6523,5.6523,5.6518,5.6085,5.5224,5.4389,5.399,5.399,5.399,5.399,5.3912,5.3093,5.2741,5.2663,5.1804,5.1492,5.1453,5.1414,5.2468,5.3912,5.3912,5.3366,5.2663,5.2663,5.2078,5.1414,5.1414,5.1414,5.1414,5.1414,5.1414,5.1414,5.1414,5.1414,5.1362,5.1218,5.1195,5.1142,5.0942,5.0906,5.0858,5.0741,5.0702,5.0702,5.0664,5.0664,5.0625,5.0625,5.0625,5.001,4.8279,4.8048,4.8048,4.8048,4.8048,4.8048,4.8048,4.8048,4.8048,4.8009,4.7952,4.7931,4.7931,4.7788,4.7761,4.7761,4.7761,4.7761,4.7799,4.7799,4.7799,4.7799,4.7799,4.8258,0.0,0.0,3.957,4.1836,4.3281,4.4336,4.5234,4.5664,4.5859,4.5859,4.6094,4.6289,4.6289,4.6289,4.6601,4.7461,4.8086,4.8789,4.9648,4.9766,4.9531,4.8984,4.9414,0.0,0.0,0.0,0.0,5.2187,5.2539,5.2969,5.3516,5.4375,5.4844,5.4844,5.5703,5.6172,5.6172,5.6445,5.6601,5.6601,5.6601,5.6444,5.6131,5.5857,5.5731,5.5747,5.5747,5.5747,5.5669,5.4771,5.442,5.4342,5.3483,5.3132,5.3132,5.3132,5.3483,5.3912,5.3327,5.3327,5.3561,5.3561,5.3366,5.3132,5.3132,5.3132,5.3132,5.3132,5.3132,5.3132,5.3132,5.3132,5.2971,5.2333,5.2142,5.1888,5.124,5.1047,5.0932,5.0858,5.0825,5.0791,5.0741,5.0702,5.0702,5.0702,5.0202,4.9625,4.9048,4.8471,4.8317,4.8894,4.8971,4.8971,4.8971,4.8971,4.8702,4.8125,4.8068,4.8048,4.8008,4.7907,4.8111,4.864,4.864,4.8945,4.948,4.948,4.948,4.948,4.948,4.9633,3.8397,3.9883,4.1328,4.3594,4.4805,4.5625,4.6172,4.6289,4.6289,4.6289,4.6289,4.6289,4.6289,4.6289,4.668,4.7851,4.8516,4.9297,5.0469,5.0391,5.0,4.9414,4.957,0.0,0.0,0.0,0.0,5.2578,5.3008,5.3555,5.4414,5.5273,5.5742,5.5742,5.6328,5.6601,5.6601,5.6601,5.6601,5.6601,5.6601,5.6601,5.6601,5.6601,5.6599,5.6585,5.6266,5.6146,5.6059,5.4849,5.4381,5.4264,5.3405,5.3053,5.3053,5.3053,5.3288,5.3483,5.3249,5.3522,5.399,5.399,5.399,5.399,5.399,5.399,5.399,5.399,5.399,5.399,5.399,5.399,5.3873,5.3288,5.3108,5.2877,5.2263,5.2056,5.1886,5.1416,5.1347,5.1167,5.0779,5.0702,5.0702,5.0702,5.0202,4.9856,4.9856,4.9394,4.924,4.9779,4.9856,4.9856,4.9856,4.9856,4.9625,4.9048,4.901,4.8951,4.889,4.8848,4.9051,4.9519,4.9519,4.9786,5.0283,5.0627,5.0779,5.0779,5.1047,5.1047,3.9596,4.1289,4.2929,4.4648,4.5664,4.6289,4.6289,4.6289,4.6289,4.6289,4.6289,4.6289,0.0,0.0,4.6875,4.8633,4.8906,4.9492,5.1172,5.0742,5.0273,0.0,0.0,0.0,0.0,0.0,0.0,5.2695,0.0,5.4414,5.5312,5.6133,5.6601,5.6601,5.6601,5.6601,5.6601,5.6601,5.6601,5.6601,5.6601,5.6601,5.6601,5.6601,5.6601,5.6562,5.5737,5.5335,5.5166,5.3483,5.2741,5.2624,5.1726,5.1414,5.1414,5.1453,5.1999,5.2819,5.3717,5.4029,5.4068,5.4068,5.4108,5.4147,5.4147,5.4147,5.4147,5.4147,5.4147,5.4147,5.4147,5.4147,5.4108,5.4068,5.4068,5.4016,5.3837,5.3822,5.3497,5.2405,5.2175,5.1879,5.0972,5.0818,5.0818,5.0779,5.0741,5.0741,5.0702,5.0702,5.0702,5.0702,5.0702,5.0702,5.0702,5.0702,5.0702,5.0702,5.0663,5.0563,5.05,5.0435,5.039,5.0359,5.0359,5.0397,5.0436,5.1276,5.1658,5.1697,5.2422,5.2384,4.1883,4.3317,4.4465,4.5562,4.6039,4.6211,4.6211,4.625,4.6289,4.6289,4.6289,4.6289,4.6289,0.0,0.0,4.8633,4.8906,0.0,5.1172,5.1211,0.0,5.1094,0.0,5.1836,5.2031,5.2656,0.0,0.0,5.4258,5.4648,5.6172,5.6484,5.6601,5.6601,5.6601,5.6601,5.6601,5.6601,5.6601,5.6601,5.6601,5.6601,5.6601,5.6601,5.6601,5.6601,5.6367,5.5897,5.5231,5.4119,5.3288,5.2624,5.1726,5.1414,5.1492,5.2117,5.2507,5.2819,5.3717,5.442,5.4966,5.4966,5.5396,5.5942,5.5942,5.5942,5.5942,5.5942,5.5942,5.5942,5.5942,5.5942,5.5786,5.5123,5.4966,5.4767,5.4094,5.3933,5.3832,5.3419,5.321,5.2945,5.2627,5.2549,5.2356,5.1702,5.1587,5.1395,5.0779,5.0702,5.0702,5.0702,5.0702,5.0702,5.0702,5.0702,5.0702,5.0702,5.0702,5.0604,5.05,5.0478,5.0741,5.1276,5.1276,5.1544,5.2155,5.2384,5.2499,5.2499,5.269,5.269,4.3518,4.4665,4.5473,4.5978,4.6138,4.6075,4.5701,4.5937,4.6172,4.5781,4.6016,0.0,4.6289,0.0,0.0,0.0,0.0,0.0,5.1172,5.1719,5.1953,0.0,5.2734,0.0,5.3281,5.3711,5.4375,0.0,5.4844,5.5156,5.6523,5.6601,5.6601,5.6601,5.6601,5.6601,5.6601,5.6601,5.6601,5.6601,5.6601,5.6601,5.6601,5.6601,5.6601,5.6562,0.0,5.5547,5.4687,5.4212,5.3503,5.2674,5.2589,5.2546,5.2585,5.3093,5.3288,5.3327,5.3834,5.4576,5.5318,5.5318,5.5903,5.6606,5.6606,5.6606,5.6606,5.6606,5.6606,5.6606,5.6606,5.6606,5.6489,5.5981,5.5864,5.5747,5.524,5.5123,5.4992,5.4461,5.3844,5.3365,5.3281,5.3224,5.3049,5.2549,5.2472,5.2318,5.1856,5.1164,5.0702,5.0702,5.0702,5.0818,5.1202,5.0894,5.0856,5.1202,5.1241,5.1162,5.1037,5.1382,5.1737,5.2117,5.2117,5.2346,5.2805,5.3187,5.3378,5.3378,5.376,5.3722,4.4664,4.549,4.6046,4.6046,4.6085,4.5891,4.5086,4.5467,4.5781,4.5,0.0,4.6094,4.5976,4.6133,4.6836,4.8476,0.0,4.9531,5.1328,5.2226,5.2773,5.3008,5.3711,5.4219,5.4336,5.4336,5.4648,5.543,5.5469,5.5781,5.6562,5.6601,5.6601,5.6601,5.6601,5.6601,5.6601,5.6719,5.6758,5.6758,5.6875,5.6875,5.6758,5.6758,5.6719,5.6562,0.0,0.0,5.418,5.418,5.3671,5.2962,5.3692,5.3998,5.3998,5.4115,5.4151,5.419,5.4307,5.4853,5.5435,5.5357,5.5903,5.6606,5.6606,5.6606,5.6606,5.6606,5.6606,5.6606,5.6606,5.6606,5.6606,5.6606,5.6606,5.6606,5.6606,5.6606,5.6319,5.5436,5.4439,5.3723,5.3746,5.361,5.351,5.3395,5.3356,5.3318,5.3203,5.1933,5.101,5.101,5.101,5.1318,5.201,5.1433,5.1318,5.2049,5.2087,5.2026,5.188,5.2609,5.3024,5.2982,5.2957,5.3034,5.3148,5.3913,5.4256,5.4295,5.5059,5.4982,4.5413,4.5722,4.5838,4.5838,4.593,4.5789,4.4987,4.4967,0.0,0.0,0.0,4.5,4.4297,4.5312,4.6641,4.7656,0.0,0.0,0.0,0.0,5.3242,0.0,0.0,0.0,0.0,0.0,0.0,0.0,0.0,0.0,5.6601,5.6601,5.6601,5.6601,5.6601,5.6601,5.6601,5.7305,5.7656,5.7695,5.8398,5.8359,5.7656,5.7656,5.7265,5.6601,0.0,0.0,5.5078,5.5078,5.457,5.3789,5.3945,5.3981,5.4091,5.4794,5.5067,5.5185,5.5888,5.627,5.6255,5.5513,5.5903,5.6606,5.6606,5.6606,5.6606,5.6606,5.6606,5.6606,5.6606,5.6606,5.6606,5.6606,5.6606,5.6606,5.6606,5.6606,5.6514,5.6168,5.5819,5.5603,5.5487,5.5345,5.5049,5.4357,5.428,5.401,5.328,5.2933,5.2779,5.2779,5.2779,5.2818,5.2972,5.2856,5.2818,5.2972,5.2972,5.2951,5.285,5.2938,5.3315,5.3934,5.3899,5.4218,5.4944,5.5097,5.5174,5.5174,5.5326,5.5326,4.5684,4.58,4.58,4.58,4.5838,4.549,4.3838,0.0,0.0,0.0,0.0,4.4336,4.4375,0.0,0.0,0.0,0.0,0.0,0.0,0.0,0.0,0.0,0.0,0.0,0.0,0.0,0.0,0.0,0.0,0.0,0.0,5.7031,5.7265,5.7265,5.7734,5.7969,5.7969,5.8359,5.8594,5.8594,5.8984,5.8984,5.8594,5.8594,5.8086,5.7265,0.0,0.0,5.5351,5.5781,5.5469,5.4726,5.5195,5.5351,5.5388,5.5818,5.5974,5.6052,5.6439,5.6582,5.6528,5.6098,5.6255,5.6606,5.6606,5.6606,5.6606,5.6606,5.6606,5.6606,5.6606,5.6606,5.6606,5.6606,5.6606,5.6606,5.6606,5.6606,5.6558,5.6452,5.6308,5.6158,5.6015,5.5879,5.5634,5.5186,5.5126,5.4972,5.4549,5.4511,5.4164,5.328,5.3203,5.3395,5.3857,5.3472,5.3395,5.3857,5.3895,5.3836,5.3772,5.4089,5.4465,5.4814,5.4778,5.4982,5.5403,5.5403,5.5403,5.5403,5.5403,5.5403,4.58,4.58,4.58,4.58,4.58,4.5167,4.2767,4.3412,0.0,0.0,4.2266,4.3633,4.4336,0.0,0.0,0.0,0.0,0.0,0.0,0.0,0.0,0.0,0.0,0.0,0.0,0.0,0.0,0.0,0.0,0.0,0.0,5.7812,5.8164,5.8164,5.8828,5.9219,5.9219,5.9375,5.9453,5.9453,5.9648,5.9648,5.9453,5.9453,5.8906,5.789,0.0,0.0,0.0,5.6328,5.6211,5.5664,5.6328,5.6601,5.6601,5.6601,5.6601,5.6601,5.6598,5.6591,5.6618,5.661,5.6606,5.6606,5.6606,5.6606,5.6606,5.6606,5.6606,5.6606,5.6606,5.6606,5.6606,5.6606,5.6606,5.6606,5.6606,5.6606,5.6606,5.6606,5.6439,5.6281,5.6122,5.6009,5.5864,5.5707,5.5703,5.5703,5.5703,5.5703,5.5203,5.3895,5.3741,5.401,5.4703,5.4126,5.4049,5.4703,5.4741,5.472,5.4677,5.5224,5.5523,5.5437,5.5415,5.539,5.539,5.5403,5.5403,5.5403,5.5403,5.5479,4.58,4.58,4.58,4.58,4.58,4.5167,4.2767,0.0,0.0,4.0505,4.1367,4.2539,4.2617,4.3867,0.0,0.0,0.0,4.8672,0.0,0.0,0.0,0.0,0.0,0.0,0.0,0.0,0.0,0.0,0.0,0.0,0.0,5.9023,5.9062,5.9062,5.914,5.9219,5.9219,5.9922,6.0273,6.0312,6.1094,6.1055,6.0273,6.0273,5.9414,5.789,0.0,0.0,0.0,5.6562,5.6562,5.6484,5.6562,5.6601,5.6601,5.6601,5.6601,5.6601,5.6601,5.6601,5.66,5.6618,5.6606,5.6606,5.6606,5.6606,5.6606,5.6606,5.6606,5.6606,5.6606,5.6606,5.6606,5.6606,5.6606,5.6606,5.6606,5.6606,5.6606,5.6606,5.6439,5.6281,5.6122,5.6009,5.5864,5.5707,5.5703,5.5703,5.5703,5.5703,5.5626,5.5472,5.5472,5.5511,5.5588,5.5511,5.5511,5.5588,5.5588,5.5588,5.5588,5.5599,5.5615,5.5554,5.5476,5.5402,5.5402,5.539,5.5403,5.5403,5.5403,5.5785,4.5684,4.58,4.58,4.58,4.58,4.5167,4.2767,0.0,4.2811,4.0388,4.0859,4.1992,4.3008,4.332,4.4062,0.0,0.0,0.0,0.0,0.0,0.0,0.0,0.0,0.0,0.0,0.0,0.0,0.0,0.0,0.0,0.0,0.0,5.9922,5.9922,6.043,6.0703,6.0703,6.1015,6.1172,6.1172,6.1523,6.1523,6.1172,6.1172,6.0273,0.0,0.0,0.0,0.0,5.6601,5.6601,5.6601,5.6601,5.6601,5.6601,5.6601,5.6601,5.668,5.7187,5.7383,5.7461,5.8004,5.8153,5.7984,5.6922,5.6606,5.6606,5.6606,5.6606,5.6606,5.6606,5.6606,5.6606,5.6606,5.6606,5.6606,5.6606,5.6606,5.6606,5.6606,5.6548,5.6418,5.6135,5.6044,5.5962,5.5728,5.5703,5.5703,5.5703,5.5703,5.5703,5.5703,5.5703,5.5703,5.5703,5.5703,5.5703,5.5703,5.5703,5.5703,5.5703,5.566,5.5615,5.5615,5.5998,5.6192,5.6192,5.6652,5.6893,5.6893,5.6893,5.7084,4.5568,4.58,4.58,4.58,4.58,4.5181,0.0,4.2848,4.2877,4.0701,4.0934,4.2025,4.375,4.3555,4.3828,4.5976,0.0,4.6289,4.8906,0.0,0.0,0.0,0.0,0.0,0.0,0.0,0.0,0.0,0.0,0.0,0.0,0.0,6.0781,6.0781,6.1367,6.1719,6.1719,6.1719,6.1719,6.1719,6.1719,6.1719,6.1719,6.1719,6.0937,0.0,0.0,0.0,0.0,5.7265,5.707,5.664,5.7187,5.7031,5.664,5.7187,5.7226,5.7109,5.7969,5.8281,5.8398,5.8984,5.9215,5.8964,5.7742,5.7348,5.7348,5.7348,5.7153,5.6918,5.6645,5.6606,5.6606,5.6606,5.6606,5.6606,5.6606,5.6606,5.6606,5.6606,5.6606,5.6497,5.6191,5.6122,5.6015,5.5769,5.5745,5.5703,5.5703,5.5703,5.5703,5.5703,5.5934,5.5972,5.5703,5.5934,5.6088,5.6088,5.6319,5.6472,5.6472,5.6428,5.6406,5.6406,5.6889,5.7148,5.7148,5.766,5.7913,5.7913,5.7886,5.8039,4.5568,4.58,4.58,4.58,4.58,4.5142,0.0,4.2787,4.296,4.1403,4.1683,4.2777,4.4647,4.4922,4.5195,4.6133,4.6289,0.0,4.9805,0.0,0.0,0.0,0.0,0.0,0.0,0.0,0.0,0.0,0.0,0.0,0.0,0.0,6.168,6.168,6.1719,6.1719,6.1719,6.1719,6.1719,6.1719,6.1719,6.1719,6.1719,6.1719,0.0,0.0,0.0,0.0,0.0,5.8828,5.8164,5.6758,5.8515,5.8125,5.6797,5.8555,5.8633,5.8008,5.8867,5.918,5.918,5.9219,5.9212,5.9187,5.9187,5.9148,5.9065,5.9065,5.8441,5.7582,5.6801,5.6606,5.6606,5.6606,5.6606,5.6606,5.6606,5.6606,5.6606,5.6606,5.6606,5.6548,5.6324,5.6181,5.6044,5.5913,5.5769,5.5703,5.5703,5.5703,5.5703,5.5703,5.6472,5.6626,5.578,5.6472,5.6973,5.6973,5.778,5.828,5.828,5.828,5.828,5.828,5.8212,5.8189,5.8189,5.8067,5.7992,5.7992,5.7913,5.8307,4.3866,4.491,4.5529,4.4369,4.4523,4.4471,4.2549,4.2305,4.2377,4.1927,4.2027,4.2751,4.453,4.4851,4.5294,4.6733,4.6967,0.0,0.0,0.0,0.0,0.0,0.0,0.0,0.0,0.0,0.0,0.0,0.0,0.0,0.0,0.0,0.0,6.1719,6.1719,6.1719,6.1719,6.1719,6.1719,6.1719,6.1719,6.1719,6.1719,0.0,0.0,0.0,0.0,0.0,0.0,5.9101,5.8867,5.8437,5.8984,5.8867,5.8437,5.8984,5.9023,5.8906,5.9726,6.0039,6.0117,6.0703,6.0898,6.0895,6.0926,6.0064,5.9084,5.9109,5.848,5.7738,5.7504,5.6996,5.6606,5.6606,5.6606,5.6762,5.7309,5.7426,5.7582,5.8207,5.8324,5.827,5.8078,5.7476,5.695,5.682,5.6155,5.5934,5.6511,5.6588,5.6819,5.7396,5.7203,5.6896,5.6588,5.7396,5.7896,5.7896,5.8165,5.8319,5.8319,5.8319,5.8319,5.8319,5.875,5.9034,5.9034,5.9511,5.9766,5.9714,5.9633,5.9759,4.2976,4.4291,4.5181,4.4446,4.4407,4.4239,4.2872,4.2537,4.2576,4.2653,4.2892,4.3568,4.5015,4.527,4.56,4.6688,4.6833,0.0,0.0,0.0,0.0,0.0,0.0,0.0,0.0,0.0,0.0,0.0,0.0,0.0,0.0,0.0,0.0,6.1719,6.1719,6.1719,6.1719,6.1719,6.1719,6.1719,6.1719,6.1719,6.1719,0.0,0.0,0.0,0.0,0.0,0.0,6.0,5.9765,5.9258,5.9883,5.9765,5.9297,5.9922,5.9922,5.9765,6.0586,6.0898,6.0976,6.1523,6.1719,6.1718,6.1716,6.0932,6.0027,5.9694,5.8948,5.8207,5.7894,5.7192,5.6684,5.6996,5.7035,5.727,5.8128,5.8285,5.8441,5.8987,5.9104,5.9056,5.8981,5.8353,5.7857,5.7769,5.714,5.6896,5.7434,5.7473,5.7703,5.8242,5.8088,5.7934,5.7934,5.7857,5.7934,5.828,5.8319,5.8434,5.8742,5.8742,5.8896,5.9242,5.9696,5.9926,5.9926,6.043,6.0585,6.0518,6.0464,6.0398,0.0,4.3788,4.4678,4.5297,4.491,4.4214,4.3401,4.3208,0.0,4.3453,4.4059,4.491,4.5877,4.6032,4.6032,4.6148,4.6158,0.0,0.0,0.0,0.0,0.0,0.0,0.0,0.0,0.0,0.0,0.0,0.0,0.0,0.0,0.0,0.0,0.0,6.1719,6.1719,6.1719,6.1719,6.1719,6.1719,6.1719,6.1719,6.1719,0.0,0.0,0.0,0.0,0.0,0.0,6.1367,6.0781,5.9531,6.1094,6.0742,5.957,6.1133,6.1172,6.0625,6.1406,6.1719,6.1719,6.1719,6.1719,6.1719,6.1719,6.1716,6.1511,6.071,5.9807,5.8948,5.8168,5.7348,5.6879,5.7699,5.7894,5.8128,5.8987,5.9183,5.9222,5.9261,5.93,5.93,5.93,5.9017,5.8778,5.8778,5.8528,5.8319,5.8396,5.8396,5.8396,5.8473,5.9088,5.9511,5.9588,5.8165,5.7627,5.8434,5.8434,5.8742,5.955,5.955,5.9896,6.0781,6.0742,6.0704,6.0704,6.0657,6.0597,6.0518,6.048,6.0453,4.1274,0.0,4.3324,4.2241,4.228,4.255,0.0,4.2318,4.2705,4.4059,0.0,4.4858,4.5733,4.5873,4.6066,4.6692,4.6793,0.0,0.0,0.0,0.0,0.0,0.0,0.0,0.0,0.0,0.0,0.0,0.0,0.0,0.0,0.0,0.0,0.0,6.1719,6.1719,6.1719,6.1719,6.1719,6.1719,6.1719,6.1719,0.0,0.0,0.0,0.0,0.0,0.0,0.0,6.1601,6.1484,6.1133,6.1562,6.1445,6.1172,6.1562,6.1562,6.1406,6.164,6.1719,6.1719,6.1719,6.1719,6.1719,6.1719,6.1718,6.1677,6.1456,6.0276,5.9222,5.9651,5.8675,5.7738,5.8597,5.8792,5.9026,5.9924,6.008,6.0276,6.0978,6.1095,6.1095,6.1095,6.0312,5.9685,5.9685,5.8915,5.8511,5.9127,5.9204,5.9473,6.0127,5.9781,5.9781,6.0435,6.0127,5.9973,6.0204,5.9588,5.9588,6.0473,5.9858,5.9896,6.0781,6.0165,5.9819,5.9819,5.9749,5.9983,6.0597,6.0506,6.0453,4.0681,4.1983,4.3169,4.264,4.2537,4.2576,4.2549,4.2279,4.2253,0.0,0.0,4.4699,4.5109,4.5534,4.5905,4.6352,4.6722,0.0,0.0,0.0,0.0,0.0,0.0,0.0,0.0,0.0,0.0,0.0,0.0,0.0,0.0,0.0,0.0,0.0,0.0,6.1719,6.1719,6.1719,6.1719,6.1719,6.1719,6.1719,0.0,0.0,0.0,0.0,0.0,0.0,6.1719,6.1719,6.1719,6.1719,6.1719,6.1719,6.1719,6.1719,6.1719,6.1719,6.1719,6.1719,6.1719,6.1719,6.1719,6.1719,6.1719,6.1719,6.1718,6.1711,6.0721,5.9807,6.0276,5.9417,5.8636,5.9495,5.969,5.9924,6.0822,6.1017,6.1134,6.1603,6.172,6.172,6.172,6.1042,6.054,6.054,5.992,5.9588,6.005,6.0089,6.0281,6.0742,6.0396,6.0281,6.0742,6.0781,6.0627,6.0242,5.9396,5.9319,6.0165,5.9396,5.9165,5.9627,5.9204,5.9127,5.9511,5.9488,5.984,6.0635,6.0559,6.048,4.0742,4.2019,4.3413,4.3965,4.3708,4.3283,4.338,0.0,0.0,0.0,0.0,0.0,0.0,0.0,0.0,0.0,0.0,0.0,0.0,0.0,0.0,0.0,0.0,0.0,0.0,0.0,0.0,0.0,0.0,0.0,0.0,0.0,0.0,0.0,0.0,0.0,6.1719,6.1719,6.1719,6.1719,6.1719,6.1719,6.1719,0.0,0.0,0.0,0.0,0.0,6.1719,6.1719,6.1719,6.1719,6.1719,6.1719,6.1719,6.1719,6.1719,6.1719,6.1719,6.1719,6.1719,6.1719,6.1719,6.1719,6.1719,6.1719,6.1719,6.1719,6.1086,6.0432,6.0549,5.9963,5.9534,6.0393,6.0588,6.0783,6.1525,6.172,6.172,6.172,6.172,6.172,6.172,6.1432,6.1186,6.1186,6.0964,6.0781,6.0781,6.0781,6.0781,6.0781,6.0781,6.0781,6.0781,6.0781,6.0473,5.9742,5.8934,5.8781,5.9473,5.8973,5.8627,5.8511,5.8473,5.8819,5.9511,5.9511,5.9911,6.0685,6.0635,6.0559,4.1499,4.2454,4.3072,4.244,4.2748,4.3366,4.406,0.0,0.0,0.0,0.0,0.0,0.0,0.0,0.0,0.0,0.0,0.0,0.0,0.0,0.0,0.0,0.0,0.0,0.0,0.0,0.0,0.0,0.0,0.0,0.0,0.0,0.0,0.0,0.0,0.0,0.0,6.1719,6.1719,6.1719,6.1719,6.1719,6.1719,6.1719,0.0,0.0,0.0,0.0,6.1719,6.1719,6.1719,6.1719,6.1719,6.1719,6.1719,6.1719,6.1719,6.1719,6.1719,6.1719,6.1719,6.1719,6.1719,6.1719,6.1719,6.1719,6.1719,6.1719,6.1051,6.0568,6.1295,6.0861,6.0432,6.1291,6.1486,6.1525,6.1681,6.172,6.172,6.172,6.172,6.172,6.172,6.1432,6.1186,6.1186,6.0964,6.0781,6.0781,6.0781,6.0781,6.0781,6.0781,6.0781,6.0781,6.0781,6.0742,6.0589,5.9781,5.9358,5.9473,6.0089,6.0089,5.9319,5.9319,5.9396,5.9511,5.9511,5.9911,6.0685,6.0685,6.061,4.1016,4.211,4.3034,4.2633,4.3204,4.3929,4.4267,0.0,0.0,0.0,0.0,0.0,0.0,0.0,0.0,0.0,0.0,0.0,0.0,0.0,0.0,0.0,0.0,0.0,0.0,0.0,0.0,0.0,0.0,0.0,0.0,0.0,0.0,0.0,0.0,0.0,0.0,6.168,6.1719,6.1719,6.1719,6.1719,6.1719,6.1719,6.1445,0.0,0.0,6.1015,6.1015,6.1015,6.1289,6.1719,6.1719,6.1719,6.1719,6.1719,6.1719,6.1719,6.1719,6.1719,6.1719,6.1719,6.1719,6.1719,6.1719,6.1719,6.1719,6.1719,6.1406,6.1206,6.1612,6.1408,6.1213,6.1603,6.172,6.172,6.172,6.172,6.172,6.172,6.172,6.172,6.172,6.1517,6.1316,6.12,6.1018,6.0899,6.0804,6.0781,6.0781,6.0781,6.0781,6.0781,6.0781,6.0781,6.0781,6.0781,6.0435,5.9973,5.9511,5.9896,5.9704,5.8858,5.8858,5.9088,5.9511,5.9511,5.9911,6.0734,6.071,6.066,4.1046,4.2085,4.3162,4.3316,0.0,4.4669,4.4603,0.0,0.0,0.0,0.0,0.0,0.0,0.0,0.0,0.0,0.0,0.0,0.0,0.0,0.0,0.0,0.0,0.0,0.0,0.0,0.0,0.0,0.0,0.0,0.0,0.0,0.0,0.0,0.0,0.0,0.0,6.164,6.168,6.1719,6.1719,6.1719,6.1719,6.1719,6.1211,6.039,6.039,6.039,6.039,6.039,6.0898,6.1719,6.1719,6.1719,6.1719,6.1719,6.1719,6.1719,6.1719,6.1719,6.1719,6.1719,6.1719,6.1719,6.1719,6.1719,6.1719,6.1719,6.1719,6.1718,6.1704,6.169,6.172,6.172,6.172,6.172,6.172,6.172,6.172,6.172,6.172,6.172,6.172,6.1588,6.1412,6.1214,6.1087,6.0963,6.0804,6.0781,6.0781,6.0781,6.0781,6.0781,6.0781,6.0781,6.0781,6.0781,6.0781,6.0512,5.9819,5.9819,5.9511,5.8896,5.8896,5.9204,5.9819,5.9819,6.0165,6.0781,6.0734,6.071,4.2701,4.3008,4.3278,4.4047,4.4872,0.0,4.5509,4.5449,0.0,4.5432,0.0,0.0,0.0,0.0,0.0,0.0,0.0,0.0,0.0,0.0,0.0,0.0,0.0,0.0,0.0,0.0,0.0,0.0,0.0,0.0,0.0,0.0,0.0,0.0,0.0,0.0,0.0,6.1601,6.164,6.1719,6.1719,6.1719,6.1719,6.1719,6.1211,6.039,6.039,6.039,6.039,6.039,6.0898,6.1719,6.1719,6.1719,6.1719,6.1719,6.1719,6.1719,6.1719,6.1719,6.1719,6.1719,6.1719,6.1719,6.1719,6.1719,6.1719,6.1719,6.1719,6.1719,6.1718,6.1707,6.172,6.172,6.172,6.172,6.172,6.172,6.172,6.172,6.172,6.172,6.172,6.1588,6.1412,6.1214,6.1087,6.0963,6.0804,6.0781,6.0781,6.0781,6.0781,6.0781,6.0781,6.0781,6.0781,6.0781,6.0781,6.0781,6.0704,6.0704,6.0666,6.0627,6.0627,6.0666,6.0704,6.0704,6.0742,6.0781,6.0781,6.0757,4.22,4.2701,4.3162,4.347,4.4586,0.0,0.0,4.6394,4.6547,4.7048,0.0,0.0,0.0,0.0,0.0,0.0,0.0,0.0,0.0,0.0,0.0,0.0,0.0,0.0,0.0,0.0,0.0,0.0,0.0,0.0,0.0,0.0,0.0,0.0,0.0,0.0,0.0,0.0,6.1601,6.164,6.168,6.1719,6.1719,6.1719,6.1211,6.039,6.039,6.039,6.039,6.039,6.0898,6.1719,6.1719,6.1719,6.1719,6.1719,6.1719,6.1719,6.1719,6.1719,6.1719,6.1719,6.1719,6.1719,6.1719,6.1719,6.1719,6.1719,6.1719,6.1719,6.1719,6.1717,6.1709,6.1686,6.172,6.172,6.172,6.172,6.172,6.172,6.172,6.172,6.172,6.1588,6.1412,6.1214,6.1087,6.0963,6.0804,6.0781,6.0781,6.0781,6.0781,6.0781,6.0781,6.0781,6.0781,6.0781,6.0781,6.0781,6.0781,6.0781,6.0781,6.0781,6.0781,6.0781,6.0781,6.0781,6.0781,6.0781,6.0781,6.0781,4.2277,4.2816,4.347,4.347,0.0,0.0,4.7009,4.7086,4.7201,4.8279,0.0,0.0,0.0,0.0,0.0,0.0,0.0,0.0,0.0,0.0,0.0,0.0,0.0,0.0,0.0,0.0,0.0,0.0,0.0,0.0,0.0,0.0,0.0,0.0,0.0,0.0,0.0,0.0,6.1577,6.1601,6.168,6.1719,6.1719,6.1719,6.1211,6.039,6.039,6.039,6.039,6.039,6.0898,6.1719,6.1719,6.1719,6.1719,6.1719,6.1719,6.1719,6.1719,6.1719,6.1719,6.1719,6.1719,6.1719,6.1719,6.1719,6.1719,6.1719,6.1719,6.1719,6.1719,6.1719,6.1718,6.1707,6.169,6.172,6.172,6.172,6.172,6.172,6.172,6.172,6.172,6.1609,6.149,6.1253,6.1136,6.1002,6.0827,6.0781,6.0781,6.0781,6.0781,6.0781,6.0781,6.0781,6.0781,6.0781,6.0781,6.0781,6.0781,6.0781,6.0781,6.0781,6.0781,6.0781,6.0781,6.0781,6.0781,6.0781,6.0781,6.0781,4.3278,4.3662,4.4278,0.0,0.0,0.0,4.774,4.7509,4.7394,0.0,0.0,0.0,0.0,0.0,0.0,0.0,0.0,0.0,0.0,0.0,0.0,0.0,0.0,0.0,0.0,0.0,0.0,0.0,0.0,0.0,0.0,0.0,0.0,0.0,0.0,0.0,0.0,6.135,6.1447,6.1601,6.168,6.1719,6.1719,6.1719,6.1211,6.039,6.039,6.039,6.039,6.039,6.0937,6.1719,6.1719,6.1719,6.1719,6.1719,6.1719,6.1719,6.1719,6.1719,6.1719,6.1719,6.1719,6.1719,6.1719,6.1719,6.1719,6.1719,6.1719,6.1719,6.1719,6.1719,6.1719,6.1719,6.1709,6.172,6.172,6.172,6.172,6.172,6.172,6.172,6.172,6.172,6.1595,6.1227,6.1186,6.1103,6.085,6.0781,6.0781,6.0781,6.0781,6.0781,6.0781,6.0781,6.0781,6.0781,6.0781,6.0781,6.0781,6.0781,6.0781,6.0781,6.0781,6.0781,6.0781,6.0781,6.0781,6.0781,6.0781,6.0781,4.1508,4.2354,0.0,0.0,0.0,0.0,0.0,4.8394,0.0,0.0,0.0,0.0,0.0,0.0,0.0,0.0,0.0,0.0,0.0,0.0,0.0,0.0,0.0,0.0,0.0,0.0,0.0,0.0,0.0,0.0,0.0,0.0,0.0,0.0,0.0,0.0,0.0,0.0,6.1352,6.1452,6.1594,6.164,6.1719,6.1719,6.1562,6.1328,6.1328,6.1328,6.1328,6.1328,6.1484,6.1719,6.1719,6.1719,6.1719,6.1719,6.1719,6.1719,6.1719,6.1719,6.1719,6.1719,6.1719,6.1719,6.1719,6.1719,6.1719,6.1719,6.1719,6.1719,6.1719,6.1719,6.1719,6.1719,6.1715,6.1697,6.1681,6.172,6.172,6.172,6.172,6.172,6.172,6.1478,6.1316,6.12,6.1018,6.0899,6.0804,6.0781,6.0781,6.0781,6.0781,6.0781,6.0781,6.0781,6.0781,6.0781,6.0781,6.0781,6.0781,6.0781,6.0781,6.0781,6.0781,6.0781,6.0781,6.0781,6.0781,6.0781,6.0781,6.0781,4.1662,4.2777,0.0,0.0,0.0,0.0,0.0,0.0,0.0,0.0,0.0,0.0,0.0,0.0,0.0,0.0,0.0,0.0,0.0,0.0,0.0,0.0,0.0,0.0,0.0,0.0,0.0,0.0,0.0,0.0,0.0,0.0,0.0,0.0,0.0,0.0,0.0,0.0,0.0,6.1357,6.1534,6.1601,6.164,6.168,6.1719,6.1719,6.1719,6.1719,6.1719,6.1719,6.1719,6.1719,6.1719,6.1719,6.1719,6.1719,6.1719,6.1719,6.1719,6.1719,6.1719,6.1719,6.1719,6.1719,6.1719,6.1719,6.1719,6.1719,6.1719,6.1719,6.1719,6.1719,6.1719,6.1719,6.1717,6.1711,6.1686,6.172,6.172,6.172,6.172,6.172,6.172,6.1509,6.1292,6.12,6.0964,6.0781,6.0781,6.0781,6.0781,6.0781,6.0781,6.0781,6.0781,6.0781,6.0781,6.0781,6.0781,6.0781,6.0781,6.0781,6.0781,6.0781,6.0781,6.0781,6.0781,6.0781,6.0781,6.0781,6.0781,6.0781,4.2854,0.0,0.0,0.0,0.0,0.0,0.0,0.0,0.0,0.0,0.0,0.0,0.0,0.0,0.0,0.0,0.0,0.0,0.0,0.0,0.0,0.0,0.0,0.0,0.0,0.0,0.0,0.0,0.0,0.0,0.0,0.0,0.0,0.0,0.0,0.0,0.0,0.0,0.0,0.0,0.0,6.1599,6.1601,6.168,6.1719,6.1719,6.1719,6.1719,6.1719,6.1719,6.1719,6.1719,6.1719,6.1719,6.1719,6.1719,6.1719,6.1719,6.1719,6.1719,6.1719,6.1719,6.1719,6.1719,6.1719,6.1719,6.1719,6.1719,6.1719,6.1719,6.1719,6.1719,6.1719,6.1719,6.1719,6.1717,6.1694,6.1681,6.172,6.172,6.172,6.172,6.172,6.1588,6.1401,6.1211,6.0983,6.0781,6.0781,6.0781,6.0781,6.0781,6.0781,6.0781,6.0781,6.0781,6.0781,6.0781,6.0781,6.0781,6.0781,6.0781,6.0781,6.0781,6.0781,6.0781,6.0781,6.0781,6.0781,6.0781,6.0781,6.0781,4.1046,4.2777,0.0,0.0,0.0,0.0,0.0,0.0,0.0,0.0,0.0,0.0,0.0,0.0,0.0,0.0,0.0,0.0,0.0,0.0,0.0,0.0,0.0,0.0,0.0,0.0,0.0,0.0,0.0,0.0,0.0,0.0,0.0,0.0,0.0,0.0,6.1022,6.106,6.1157,0.0,6.143,6.152,6.168,6.168,6.1719,6.1719,6.1719,6.1719,6.1719,6.1719,6.1719,6.1719,6.1719,6.1719,6.1719,6.1719,6.1719,6.1719,6.1719,6.1719,6.1719,6.1719,6.1719,6.1719,6.1719,6.1719,6.1719,6.1719,6.1719,6.1719,6.1719,6.1719,6.1719,6.1719,6.1719,6.1718,6.1717,6.1704,6.172,6.172,6.172,6.172,6.172,6.1495,6.1227,6.0943,6.085,6.0781,6.0781,6.0781,6.0781,6.0781,6.0781,6.0781,6.0781,6.0781,6.0781,6.0781,6.0781,6.0781,6.0781,6.0781,6.0781,6.0781,6.0781,6.0781,6.0781,6.0781,6.0781,6.0781,6.0781,6.0781,4.1508,0.0,0.0,0.0,0.0,0.0,0.0,0.0,0.0,0.0,0.0,0.0,0.0,0.0,0.0,0.0,0.0,0.0,0.0,0.0,0.0,0.0,0.0,0.0,0.0,0.0,0.0,0.0,0.0,0.0,0.0,0.0,0.0,0.0,0.0,0.0,6.1,6.1059,6.1157,6.1312,6.1408,6.1589,6.1719,6.1719,6.1719,6.1719,6.1719,6.1719,6.1719,6.1719,6.1719,6.1719,6.1719,6.1719,6.1719,6.1719,6.1719,6.1719,6.1719,6.1719,6.1719,6.1719,6.1719,6.1719,6.1719,6.1719,6.1719,6.1719,6.1719,6.1719,6.1719,6.1719,6.1719,6.1719,6.1719,6.1719,6.1719,6.1707,6.172,6.172,6.169,6.1697,6.1697,6.149,6.1197,6.085,6.0781,6.0781,6.0781,6.0781,6.0781,6.0781,6.0781,6.0781,6.0781,6.0781,6.0781,6.0781,6.0781,6.0781,6.0781,6.0781,6.0781,6.0781,6.0781,6.0781,6.0781,6.0781,6.0781,6.0781,6.0781,6.0781,4.22,0.0,4.6201,4.774,0.0,0.0,0.0,0.0,0.0,0.0,0.0,0.0,0.0,0.0,0.0,0.0,0.0,0.0,0.0,0.0,0.0,0.0,0.0,0.0,0.0,0.0,0.0,0.0,0.0,0.0,0.0,0.0,0.0,0.0,0.0,6.0911,6.0976,6.1136,6.1196,6.1214,6.1485,6.1666,6.1719,6.1719,6.1719,6.1719,6.1719,6.1719,6.1719,6.1719,6.1719,6.1719,6.1719,6.1719,6.1719,6.1719,6.1719,6.1719,6.1719,6.1719,6.1719,6.1719,6.1719,6.1719,6.1719,6.1719,6.1719,6.1719,6.1719,6.1719,6.1719,6.1719,6.1719,6.1719,6.1719,6.1719,6.1719,6.1711,6.169,6.1681,6.1701,6.1709,6.1619,6.1468,6.1214,6.0888,6.0781,6.0781,6.0781,6.0781,6.0781,6.0781,6.0781,6.0781,6.0781,6.0781,6.0781,6.0781,6.0781,6.0781,6.0781,6.0781,6.0781,6.0781,6.0781,6.0781,6.0781,6.0781,6.0781,6.0781,6.0781,6.0781,0.0,0.0,4.6971,0.0,0.0,0.0,0.0,0.0,0.0,0.0,0.0,0.0,0.0,0.0,0.0,0.0,0.0,0.0,0.0,0.0,0.0,0.0,0.0,0.0,0.0,0.0,0.0,0.0,0.0,0.0,0.0,0.0,6.0781,6.0804,6.0804,0.0,6.0911,6.1041,6.1151,6.1284,6.1546,6.1705,6.1719,6.1719,6.1719,6.1719,6.1719,6.1719,6.1719,6.1719,6.1719,6.1719,6.1719,6.1719,6.1719,6.1719,6.1719,6.1719,6.1719,6.1719,6.1719,6.1719,6.1719,6.1719,6.1719,6.1719,6.1719,6.1719,6.1719,6.1719,6.1719,6.1719,6.1719,6.1719,6.1719,6.1719,6.1719,6.1718,6.1715,6.169,6.1709,6.1633,6.1385,6.133,6.1214,6.0933,6.0866,6.0781,6.0781,6.0781,6.0781,6.0781,6.0781,6.0781,6.0781,6.0781,6.0781,6.0781,6.0781,6.0781,6.0781,6.0781,6.0781,6.0781,6.0781,6.0781,6.0781,6.0781,6.0781,6.0781,6.0781,6.0781,4.1354,4.4008,4.6471,0.0,0.0,0.0,0.0,0.0,0.0,0.0,0.0,0.0,0.0,0.0,0.0,0.0,0.0,0.0,0.0,0.0,0.0,0.0,0.0,0.0,0.0,0.0,0.0,0.0,0.0,0.0,0.0,6.0781,6.0781,6.0781,6.0781,0.0,6.0827,6.108,6.133,6.1509,6.1627,6.171,6.1719,6.1719,6.1719,6.1719,6.1719,6.1719,6.1719,6.1719,6.1719,6.1719,6.1719,6.1719,6.1719,6.1719,6.1719,6.1719,6.1719,6.1719,6.1719,6.1719,6.1719,6.1719,6.1719,6.1719,6.1719,6.1719,6.1719,6.1719,6.1719,6.1719,6.1719,6.1719,6.1719,6.1719,6.1719,6.1719,6.1718,6.1713,6.1717,6.1594,6.137,6.1298,6.1234,6.0933,6.0827,6.0781,6.0781,6.0781,6.0781,6.0781,6.0781,6.0781,6.0781,6.0781,6.0781,6.0781,6.0781,6.0781,6.0781,6.0781,6.0781,6.0781,6.0781,6.0781,6.0781,6.0781,6.0781,6.0781,6.0781,6.0781,0.0,0.0,4.5355,4.7048,4.8432,0.0,0.0,0.0,0.0,0.0,0.0,0.0,0.0,0.0,0.0,0.0,0.0,0.0,0.0,0.0,0.0,0.0,0.0,0.0,0.0,0.0,0.0,0.0,0.0,0.0,6.0781,6.0781,6.0781,6.0781,6.0781,6.0781,6.0781,6.1116,6.1417,6.1704,6.1713,6.1717,6.1719,6.1719,6.1719,6.1719,6.1719,6.1719,6.1719,6.1719,6.1719,6.1719,6.1719,6.1719,6.1719,6.1719,6.1719,6.1719,6.1719,6.1719,6.1719,6.1719,6.1719,6.1719,6.1719,6.1719,6.1719,6.1719,6.1719,6.1719,6.1719,6.1719,6.1719,6.1719,6.1719,6.1719,6.1719,6.1719,6.1719,6.1719,6.1707,6.1582,6.1353,6.1291,6.119,6.0971,6.0888,6.0804,6.0781,6.0781,6.0781,6.0781,6.0781,6.0781,6.0781,6.0781,6.0781,6.0781,6.0781,6.0781,6.0781,6.0781,6.0781,6.0781,6.0781,6.0781,6.0781,6.0781,6.0781,6.0781,6.0781,6.0781,0.0,4.1893,0.0,4.5316,0.0,0.0,0.0,0.0,0.0,0.0,0.0,0.0,0.0,0.0,0.0,0.0,0.0,0.0,0.0,0.0,0.0,0.0,0.0,0.0,0.0,0.0,0.0,0.0,0.0,0.0,6.0781,6.0781,6.0781,6.0781,6.0781,6.0781,6.0781,6.1128,6.1422,6.1681,6.1681,6.1704,6.1719,6.1719,6.1719,6.1719,6.1719,6.1719,6.1719,6.1719,6.1719,6.1719,6.1719,6.1719,6.1719,6.1719,6.1719,6.1719,6.1719,6.1719,6.1719,6.1719,6.1719,6.1719,6.1719,6.1719,6.1719,6.1719,6.1719,6.1719,6.1719,6.1719,6.1719,6.1719,6.1719,6.1719,6.1719,6.1719,6.1719,6.1719,6.1637,6.1562,6.1422,6.1268,6.1155,6.1036,6.0933,6.0888,6.0781,6.0781,6.0781,6.0781,6.0781,6.0781,6.0781,6.0781,6.0781,6.0781,6.0781,6.0781,6.0781,6.0781,6.0781,6.0781,6.0781,6.0781,6.0781,6.0781,6.0781,6.0781,6.0781,6.0781,0.0,0.0,0.0,4.4355,0.0,0.0,0.0,0.0,0.0,0.0,0.0,0.0,0.0,0.0,0.0,0.0,0.0,0.0,0.0,0.0,0.0,0.0,0.0,0.0,0.0,0.0,0.0,0.0,0.0,0.0,6.0781,6.0781,6.0781,6.0781,6.0781,6.0899,6.1053,6.1172,6.1383,6.172,6.172,6.169,6.1704,6.1717,6.1719,6.1719,6.1719,6.1719,6.1719,6.1719,6.1719,6.1719,6.1719,6.1719,6.1719,6.1719,6.1719,6.1719,6.1719,6.1719,6.1719,6.1719,6.1719,6.1719,6.1719,6.1719,6.1719,6.1719,6.1719,6.1719,6.1719,6.1719,6.1719,6.1719,6.1719,6.1719,6.1719,6.1719,6.1719,6.1719,6.1656,6.156,6.1407,6.1271,6.1155,6.1036,6.0955,6.0888,6.0781,6.0781,6.0781,6.0781,6.0781,6.0781,6.0781,6.0781,6.0781,6.0781,6.0781,6.0781,6.0781,6.0781,6.0781,6.0781,6.0781,6.0781,6.0781,6.0781,6.0781,6.0781,6.0781,6.0781,3.7456,0.0,0.0,0.0,0.0,0.0,0.0,0.0,0.0,0.0,0.0,0.0,0.0,0.0,0.0,0.0,0.0,0.0,0.0,0.0,0.0,0.0,0.0,0.0,0.0,0.0,0.0,0.0,0.0,0.0,6.0781,6.0781,6.0781,6.0781,6.0781,6.0923,6.1186,6.1186,6.1362,6.172,6.172,6.172,6.1681,6.1711,6.1718,6.1719,6.1719,6.1719,6.1719,6.1719,6.1719,6.1719,6.1719,6.1719,6.1719,6.1719,6.1719,6.1719,6.1719,6.1719,6.1719,6.1719,6.1719,6.1719,6.1719,6.1719,6.1719,6.1719,6.1719,6.1719,6.1719,6.1719,6.1719,6.1719,6.1719,6.1719,6.1719,6.1719,6.1719,6.1719,6.1595,6.1508,6.1407,6.1273,6.1118,6.1039,6.0976,6.0911,6.0827,6.0804,6.0781,6.0781,6.0781,6.0781,6.0781,6.0781,6.0781,6.0781,6.0781,6.0781,6.0781,6.0781,6.0781,6.0781,6.0781,6.0781,6.0781,6.0781,6.0781,6.0781,6.0781,6.0781,0.0,0.0,0.0,0.0,0.0,0.0,0.0,0.0,0.0,0.0,0.0,0.0,0.0,0.0,0.0,0.0,0.0,0.0,0.0,0.0,0.0,0.0,0.0,0.0,0.0,0.0,0.0,0.0,0.0,6.0781,6.0781,6.0781,6.0781,6.0781,6.0781,6.0923,6.1186,6.1186,6.1362,6.172,6.172,6.172,6.172,6.1701,6.1715,6.1719,6.1719,6.1719,6.1719,6.1719,6.1719,6.1719,6.1719,6.1719,6.1719,6.1719,6.1719,6.1719,6.1719,6.1719,6.1719,6.1719,6.1719,6.1719,6.1719,6.1719,6.1719,6.1719,6.1719,6.1719,6.1719,6.1719,6.1719,6.1719,6.1719,6.1719,6.1719,6.1719,6.1719,6.1719,6.1559,6.1417,6.1384,6.1234,6.106,6.1002,6.1,6.0976,6.0911,6.0827,6.0781,6.0781,6.0781,6.0781,6.0781,6.0781,6.0781,6.0781,6.0781,6.0781,6.0781,6.0781,6.0781,6.0781,6.0781,6.0781,6.0781,6.0781,6.0781,6.0781,6.0781,6.0781,3.6687,0.0,0.0,0.0,0.0,0.0,0.0,0.0,0.0,0.0,0.0,0.0,0.0,0.0,0.0,0.0,0.0,0.0,0.0,0.0,0.0,0.0,0.0,0.0,0.0,0.0,0.0,0.0,0.0,6.0781,6.0781,6.0781,6.0781,6.0781,6.0781,6.0923,6.1186,6.1186,6.1362,6.172,6.172,6.172,6.172,6.1686,6.1707,6.1719,6.1719,6.1719,6.1719,6.1719,6.1719,6.1719,6.1719,6.1719,6.1719,6.1719,6.1719,6.1719,6.1719,6.1719,6.1719,6.1719,6.1719,6.1719,6.1719,6.1719,6.1719,6.1719,6.1719,6.1719,6.1719,6.1719,6.1719,6.1719,6.1719,6.1719,6.1719,6.1719,6.1719,6.1719,6.1559,6.1417,6.1384,6.1234,6.106,6.1002,6.0982,6.098,6.0933,6.0888,6.0827,6.0819,6.0781,6.0781,6.0781,6.0781,6.0781,6.0781,6.0781,6.0781,6.0781,6.0781,6.0781,6.0781,6.0781,6.0781,6.0781,6.0781,6.0781,6.0781,6.0781,6.0781,0.0,0.0,0.0,0.0,0.0,0.0,0.0,0.0,0.0,0.0,0.0,0.0,0.0,0.0,0.0,0.0,0.0,0.0,0.0,0.0,0.0,0.0,0.0,0.0,0.0,0.0,0.0,0.0,6.0781,6.0781,6.0781,6.0781,6.0781,6.0781,6.0834,6.0983,6.1186,6.1292,6.1442,6.172,6.172,6.1686,6.1694,6.1686,6.1704,6.1719,6.1719,6.1719,6.1719,6.1719,6.1719,6.1719,6.1719,6.1719,6.1719,6.1719,6.1719,6.1719,6.1719,6.1719,6.1719,6.1719,6.1719,6.1719,6.1719,6.1719,6.1719,6.1719,6.1719,6.1719,6.1719,6.1719,6.1719,6.1719,6.1719,6.1719,6.1719,6.1719,6.1676,6.168,6.1509,6.1379,6.1346,6.1195,6.1099,6.1041,6.1022,6.0982,6.0955,6.0933,6.0888,6.0781,6.0781,6.0781,6.0781,6.0781,6.0781,6.0781,6.0781,6.0781,6.0781,6.0781,6.0781,6.0781,6.0781,6.0781,6.0781,6.0781,6.0781,6.0781,6.0781,6.0781,0.0,0.0,0.0,0.0,0.0,0.0,4.7049,4.7952,0.0,0.0,0.0,0.0,0.0,0.0,0.0,0.0,0.0,0.0,0.0,0.0,0.0,0.0,0.0,0.0,0.0,0.0,0.0,6.0781,6.0781,6.0781,6.0781,6.0781,6.0781,6.0781,6.0902,6.1018,6.1158,6.1379,6.1526,6.1681,6.1681,6.1694,6.1711,6.1697,6.1707,6.1719,6.1719,6.1719,6.1719,6.1719,6.1719,6.1719,6.1719,6.1719,6.1719,6.1719,6.1719,6.1719,6.1719,6.1719,6.1719,6.1719,6.1719,6.1719,6.1719,6.1719,6.1719,6.1719,6.1719,6.1719,6.1719,6.1719,6.1719,6.1719,6.1719,6.1719,6.1719,6.1719,6.1697,6.1594,6.1472,6.1382,6.1289,6.1195,6.1118,6.1118,6.1041,6.0982,6.1018,6.0955,6.0888,6.0843,6.0781,6.0781,6.0781,6.0781,6.0781,6.0781,6.0781,6.0781,6.0781,6.0781,6.0781,6.0781,6.0781,6.0781,6.0781,6.0781,6.0781,6.0781,6.0781,6.0781,4.1036,4.1151,4.1246,0.0,0.0,0.0,0.0,4.3598,0.0,0.0,0.0,0.0,0.0,0.0,0.0,0.0,0.0,0.0,0.0,0.0,0.0,0.0,0.0,0.0,0.0,0.0,6.0781,6.0781,6.0781,6.0781,6.0781,6.0781,6.0781,6.0781,6.0827,6.0882,6.1057,6.1196,6.1344,6.1525,6.1642,6.1701,6.1718,6.1717,6.1718,6.1719,6.1719,6.1719,6.1719,6.1719,6.1719,6.1719,6.1719,6.1719,6.1719,6.1719,6.1719,6.1719,6.1719,6.1719,6.1719,6.1719,6.1719,6.1719,6.1719,6.1719,6.1719,6.1719,6.1719,6.1719,6.1719,6.1719,6.1719,6.1719,6.1719,6.1719,6.1719,6.1719,6.1631,6.1481,6.1405,6.1363,6.133,6.1195,6.1118,6.1118,6.1099,6.1041,6.1002,6.098,6.0955,6.0888,6.0804,6.0781,6.0781,6.0781,6.0781,6.0781,6.0781,6.0781,6.0781,6.0781,6.0781,6.0781,6.0781,6.0781,6.0781,6.0781,6.0781,6.0781,6.0781,6.0781,0.0,0.0,4.2641,4.224,0.0,0.0,0.0,0.0,0.0,0.0,0.0,0.0,0.0,0.0,0.0,0.0,0.0,0.0,0.0,0.0,0.0,0.0,0.0,0.0,0.0,0.0,6.0319,6.0781,6.0781,6.0781,6.0781,6.0781,6.0781,6.0781,6.0856,6.0923,6.1002,6.1151,6.1289,6.1517,6.1588,6.1658,6.1716,6.1718,6.1719,6.1719,6.1719,6.1719,6.1719,6.1719,6.1719,6.1719,6.1719,6.1719,6.1719,6.1719,6.1719,6.1719,6.1719,6.1719,6.1719,6.1719,6.1719,6.1719,6.1719,6.1719,6.1719,6.1719,6.1719,6.1719,6.1719,6.1719,6.1719,6.1719,6.1719,6.1719,6.1719,6.1676,6.1607,6.1412,6.1366,6.1311,6.1234,6.1157,6.1118,6.1118,6.1118,6.1099,6.1002,6.1021,6.0959,6.0911,6.0888,6.0866,6.0781,6.0781,6.0781,6.0781,6.0781,6.0781,6.0781,6.0781,6.0781,6.0781,6.0781,6.0781,6.0781,6.0781,6.0781,6.0781,6.0781,6.0781,0.0,0.0,0.0,0.0,0.0,4.224,0.0,0.0,0.0,4.6434,0.0,0.0,0.0,0.0,0.0,0.0,0.0,0.0,0.0,0.0,0.0,0.0,0.0,0.0,0.0,0.0,5.9435,6.0473,6.0396,6.0473,6.0781,6.0781,6.0781,6.0781,6.092,6.0983,6.0983,6.1136,6.1292,6.1422,6.153,6.1612,6.1704,6.1717,6.1719,6.1719,6.1719,6.1719,6.1719,6.1719,6.1719,6.1719,6.1719,6.1719,6.1719,6.1719,6.1719,6.1719,6.1719,6.1719,6.1719,6.1719,6.1719,6.1719,6.1719,6.1719,6.1719,6.1719,6.1719,6.1719,6.1719,6.1719,6.1719,6.1719,6.1719,6.1719,6.1719,6.1627,6.1557,6.1421,6.1361,6.1273,6.1118,6.1118,6.1118,6.1118,6.1118,6.106,6.1022,6.1002,6.0962,6.0916,6.0933,6.0888,6.0804,6.0781,6.0781,6.0781,6.0781,6.0781,6.0781,6.0781,6.0781,6.0781,6.0781,6.0781,6.0781,6.0781,6.0781,6.0781,6.0781,6.0781,0.0,0.0,0.0,0.0,4.3329,0.0,0.0,0.0,4.2928,4.3311,0.0,0.0,0.0,0.0,0.0,0.0,0.0,0.0,0.0,0.0,0.0,0.0,0.0,0.0,0.0,0.0,0.0,5.9511,5.8973,5.9242,6.0704,6.0781,6.0781,6.0781,6.0804,6.0827,6.0827,6.107,6.12,6.1253,6.1541,6.1681,6.1686,6.1715,6.1719,6.1719,6.1719,6.1719,6.1719,6.1719,6.1719,6.1719,6.1719,6.1719,6.1719,6.1719,6.1719,6.1719,6.1719,6.1719,6.1719,6.1719,6.1719,6.1719,6.1719,6.1719,6.1719,6.1719,6.1719,6.1719,6.1719,6.1719,6.1719,6.1719,6.1719,6.1719,6.1719,6.1627,6.1562,6.1405,6.1348,6.1273,6.1118,6.1118,6.1118,6.1118,6.1118,6.1118,6.1118,6.1041,6.1002,6.0982,6.0938,6.0911,6.0911,6.0804,6.0781,6.0781,6.0781,6.0781,6.0781,6.0781,6.0781,6.0781,6.0781,6.0781,6.0781,6.0781,6.0781,6.0781,6.0781,6.0781,0.0,0.0,0.0,0.0,0.0,0.0,0.0,0.0,4.2335,0.0,0.0,0.0,0.0,0.0,0.0,0.0,0.0,0.0,0.0,0.0,0.0,0.0,0.0,0.0,0.0,0.0,0.0,0.0,0.0,5.828,5.9973,6.005,6.0281,6.0781,6.0781,6.0781,6.0781,6.0983,6.1136,6.1186,6.1442,6.1609,6.172,6.1697,6.1713,6.1719,6.1719,6.1719,6.1719,6.1719,6.1719,6.1719,6.1719,6.1719,6.1719,6.1719,6.1719,6.1719,6.1719,6.1719,6.1719,6.1719,6.1719,6.1719,6.1719,6.1719,6.1719,6.1719,6.1719,6.1719,6.1719,6.1719,6.1719,6.1719,6.1719,6.1672,6.1646,6.155,6.1444,6.1366,6.1273,6.1157,6.1118,6.1118,6.1118,6.1118,6.1118,6.1118,6.1118,6.1099,6.1041,6.1002,6.098,6.0955,6.0911,6.0866,6.0781,6.0781,6.0781,6.0781,6.0781,6.0781,6.0781,6.0781,6.0781,6.0781,6.0781,6.0781,6.0781,6.0781,6.0781,6.0781,4.5255,0.0,0.0,0.0,0.0,0.0,0.0,0.0,0.0,0.0,0.0,0.0,0.0,0.0,0.0,0.0,0.0,0.0,0.0,0.0,0.0,0.0,0.0,0.0,0.0,0.0,0.0,0.0,0.0,0.0,5.9088,5.9396,5.9781,6.0435,6.0666,6.0827,6.0834,6.0983,6.1136,6.1292,6.1481,6.1595,6.172,6.172,6.1701,6.1718,6.1718,6.1719,6.1719,6.1719,6.1719,6.1719,6.1719,6.1719,6.1719,6.1719,6.1719,6.1719,6.1719,6.1719,6.1719,6.1719,6.1719,6.1719,6.1719,6.1719,6.1719,6.1719,6.1719,6.1719,6.1719,6.1719,6.1719,6.1719,6.1719,6.1697,6.1601,6.1477,6.1383,6.1289,6.1195,6.1118,6.1118,6.1118,6.1118,6.1118,6.1118,6.1118,6.1118,6.1118,6.106,6.1022,6.1021,6.0997,6.0933,6.0888,6.0804,6.0781,6.0781,6.0781,6.0781,6.0781,6.0781,6.0781,6.0781,6.0781,6.0781,6.0781,6.0781,6.0781,6.0781,6.0781,0.0,0.0,0.0,0.0,0.0,0.0,0.0,0.0,4.4169,0.0,0.0,0.0,0.0,0.0,0.0,0.0,0.0,0.0,0.0,0.0,0.0,0.0,0.0,0.0,0.0,0.0,0.0,0.0,0.0,0.0,5.8204,5.9088,5.9511,5.955,6.0358,6.0856,6.0983,6.1136,6.1292,6.149,6.1648,6.1715,6.172,6.172,6.1694,6.1709,6.1718,6.1719,6.1719,6.1719,6.1719,6.1719,6.1719,6.1719,6.1719,6.1719,6.1719,6.1719,6.1719,6.1719,6.1719,6.1719,6.1719,6.1719,6.1719,6.1719,6.1719,6.1719,6.1719,6.1719,6.1719,6.1719,6.1719,6.1719,6.1719,6.1697,6.1601,6.1485,6.1369,6.1311,6.1195,6.1118,6.1118,6.1118,6.1118,6.1118,6.1118,6.1118,6.1118,6.1118,6.1118,6.1118,6.1041,6.1021,6.0997,6.0933,6.0888,6.0781,6.0781,6.0781,6.0781,6.0781,6.0781,6.0781,6.0781,6.0781,6.0781,6.0781,6.0781,6.0781,6.0781,6.0781,0.0,0.0,4.6488,4.5256,0.0,0.0,0.0,0.0,0.0,0.0,0.0,0.0,0.0,0.0,0.0,0.0,0.0,0.0,0.0,0.0,0.0,0.0,0.0,0.0,0.0,0.0,0.0,0.0,0.0,0.0,0.0,5.8242,5.8934,5.9473,6.0358,6.0827,6.0856,6.1087,6.1214,6.1304,6.1549,6.172,6.172,6.172,6.1694,6.1709,6.1718,6.1719,6.1719,6.1719,6.1719,6.1719,6.1719,6.1719,6.1719,6.1719,6.1719,6.1719,6.1719,6.1719,6.1719,6.1719,6.1719,6.1719,6.1719,6.1719,6.1719,6.1719,6.1719,6.1719,6.1719,6.1719,6.1719,6.1719,6.1719,6.167,6.1479,6.1446,6.135,6.1195,6.1118,6.1118,6.1118,6.1118,6.1118,6.1118,6.1118,6.1118,6.1118,6.1118,6.1118,6.1118,6.1041,6.1021,6.0997,6.0911,6.0804,6.0781,6.0781,6.0781,6.0781,6.0781,6.0781,6.0781,6.0781,6.0512,5.9935,5.9935,5.9665,5.9165,5.9165,5.9435,4.8509,4.8412,0.0,0.0,4.6139,0.0,0.0,0.0,0.0,0.0,0.0,0.0,0.0,0.0,0.0,0.0,0.0,0.0,0.0,0.0,0.0,0.0,0.0,0.0,0.0,0.0,5.0856,5.2626,0.0,0.0,0.0,0.0,5.855,5.905,6.0204,6.0872,6.0943,6.112,6.1279,6.1373,6.1602,6.172,6.172,6.172,6.169,6.1701,6.1717,6.1719,6.1719,6.1719,6.1719,6.1719,6.1719,6.1719,6.1719,6.1719,6.1719,6.1719,6.1719,6.1719,6.1719,6.1719,6.1719,6.1719,6.1719,6.1719,6.1719,6.1719,6.1719,6.1719,6.1719,6.1719,6.1719,6.1719,6.1719,6.1635,6.1456,6.1405,6.135,6.1157,6.1118,6.1118,6.1118,6.1118,6.1118,6.1118,6.1118,6.1118,6.1118,6.1118,6.1118,6.1118,6.1041,6.1041,6.0997,6.0911,6.0843,6.0781,6.0781,6.0781,6.0781,6.0781,6.0781,6.0781,6.0512,6.005,5.9511,5.9204,5.8819,5.828,5.7973,5.8127]},{"header":{"parameterUnit":"m.s-1","parameterCategory":1,"la1":30.6,"la2":29.2853,"lo1":-89.7004,"lo2":-87.6739,"dy":0.0162,"dx":0.0183,"nx":112,"ny":82,"refTime":"2025-01-01T18:00:00:Z","depth":0,"parameterNumber":3,"parameterNumberName":"V-component_of_WINDS"},"data":[0.0,0.0,0.0,0.0,0.0,0.0,0.0,0.0,0.0,0.0,0.0,0.0,0.0,0.0,0.0,0.0,0.0,0.0,0.0,0.0,0.0,0.0,0.0,0.0,0.0,0.0,0.0,0.0,0.0,0.0,0.0,0.0,0.0,0.0,0.0,0.0,0.0,0.0,0.0,0.0,0.0,0.0,0.0,0.0,0.0,0.0,0.0,0.0,0.0,0.0,0.0,0.0,0.0,0.0,0.0,0.0,0.0,0.0,0.0,0.0,0.0,0.0,0.0,0.0,0.0,0.0,0.0,0.0,0.0,0.0,0.0,0.0,0.0,0.0,0.0,0.0,0.0,0.0,0.0,0.0,0.0,0.0,0.0,0.0,0.0,0.0,0.0,0.0,0.0,0.0,0.0,-0.7594,-0.7724,-0.7789,-0.7764,-0.7618,-0.7358,-0.7048,0.0,0.0,0.0,0.0,0.0,0.0,0.0,0.0,0.0,0.0,0.0,0.0,0.0,0.0,0.0,0.0,0.0,0.0,0.0,0.0,0.0,0.0,0.0,0.0,0.0,0.0,0.0,0.0,0.0,0.0,0.0,0.0,0.0,0.0,0.0,0.0,0.0,0.0,0.0,0.0,0.0,0.0,0.0,0.0,0.0,0.0,0.0,0.0,0.0,0.0,0.0,0.0,0.0,0.0,0.0,0.0,0.0,0.0,0.0,0.0,0.0,0.0,0.0,0.0,0.0,0.0,0.0,0.0,0.0,0.0,0.0,0.0,0.0,0.0,0.0,0.0,0.0,0.0,0.0,0.0,0.0,0.0,0.0,0.0,0.0,0.0,0.0,0.0,0.0,0.0,0.0,0.0,0.0,0.0,0.0,0.0,0.0,0.0,0.0,0.0,0.0,0.0,0.0,0.0,-0.7659,-0.8122,-0.8048,-0.7918,-0.7772,-0.7732,-0.7573,-0.7056,0.0,0.0,0.0,0.0,0.0,0.0,0.0,0.0,0.0,0.0,0.0,0.0,0.0,0.0,0.0,0.0,0.0,0.0,0.0,0.0,0.0,0.0,0.0,0.0,0.0,0.0,0.0,0.0,0.0,0.0,0.0,0.0,0.0,0.0,0.0,0.0,0.0,0.0,0.0,0.0,0.0,0.0,0.0,0.0,0.0,0.0,0.0,0.0,0.0,0.0,0.0,0.0,0.0,0.0,0.0,0.0,0.0,0.0,0.0,0.0,0.0,0.0,0.0,0.0,0.0,0.0,0.0,0.0,0.0,0.0,0.0,0.0,0.0,0.0,0.0,0.0,0.0,0.0,0.0,0.0,0.0,0.0,0.0,0.0,0.0,0.0,0.0,0.0,0.0,0.0,0.0,0.0,0.0,0.0,0.0,0.0,0.0,0.0,0.0,0.0,0.0,0.0,0.0,-0.7529,-0.7805,-0.8243,-0.8211,-0.813,-0.8057,-0.787,-0.7569,-0.7131,-0.736,0.0,0.0,0.0,0.0,0.0,0.0,0.0,0.0,0.0,0.0,0.0,0.0,0.0,0.0,0.0,0.0,0.0,0.0,0.0,0.0,0.0,0.0,0.0,0.0,0.0,0.0,0.0,0.0,0.0,0.0,0.0,0.0,0.0,0.0,0.0,0.0,0.0,0.0,0.0,0.0,0.0,0.0,0.0,0.0,0.0,0.0,0.0,0.0,0.0,0.0,0.0,0.0,0.0,0.0,0.0,0.0,0.0,0.0,0.0,0.0,0.0,0.0,0.0,0.0,0.0,0.0,0.0,0.0,0.0,0.0,0.0,0.0,0.0,0.0,0.0,0.0,0.0,0.0,0.0,0.0,0.0,0.0,0.0,0.0,0.0,0.0,0.0,0.0,0.0,0.0,0.0,0.0,0.0,0.0,0.0,0.0,0.0,0.0,0.0,0.0,0.0,0.0,-0.787,-0.8073,-0.8381,-0.8381,-0.8341,-0.8292,-0.7967,-0.761,-0.7253,-0.7017,0.0,0.0,0.0,0.0,0.0,0.0,0.0,0.0,0.0,0.0,0.0,0.0,0.0,0.0,0.0,0.0,0.0,0.0,0.0,0.0,0.0,0.0,0.0,0.0,0.0,0.0,0.0,0.0,0.0,0.0,0.0,0.0,0.0,0.0,0.0,0.0,0.0,0.0,0.0,0.0,0.0,0.0,0.0,0.0,0.0,0.0,0.0,0.0,0.0,0.0,0.0,0.0,0.0,0.0,0.0,0.0,0.0,0.0,0.0,0.0,0.0,0.0,0.0,0.0,0.0,0.0,0.0,0.0,0.0,0.0,0.0,0.0,0.0,0.0,0.0,0.0,0.0,0.0,0.0,0.0,0.0,0.0,0.0,0.0,0.0,0.0,0.0,0.0,0.0,0.0,0.0,0.0,0.0,0.0,0.0,0.0,0.0,0.0,0.0,0.0,0.0,0.0,-0.811,-0.8576,-0.8763,-0.8641,-0.8479,-0.8308,-0.7967,-0.761,-0.7253,-0.6903,0.0,0.0,0.0,0.0,0.0,0.0,0.0,0.0,0.0,0.0,0.0,0.0,0.0,0.0,0.0,0.0,0.0,0.0,0.0,0.0,0.0,0.0,0.0,0.0,0.0,0.0,0.0,0.0,0.0,0.0,0.0,0.0,0.0,0.0,0.0,0.0,0.0,0.0,0.0,0.0,0.0,0.0,0.0,0.0,0.0,0.0,0.0,0.0,0.0,0.0,0.0,0.0,0.0,0.0,0.0,0.0,0.0,0.0,0.0,0.0,0.0,0.0,0.0,0.0,0.0,0.0,0.0,0.0,0.0,0.0,0.0,0.0,0.0,0.0,0.0,0.0,0.0,0.0,0.0,0.0,0.0,0.0,0.0,0.0,0.0,0.0,0.0,0.0,0.0,0.0,0.0,0.0,0.0,0.0,0.0,0.0,0.0,0.0,0.0,0.0,0.0,0.0,-0.8038,-0.8463,0.0,-0.8609,-0.8584,-0.8617,-0.8187,-0.7813,-0.7577,0.0,0.0,0.0,0.0,0.0,0.0,0.0,0.0,0.0,0.0,0.0,0.0,0.0,0.0,0.0,0.0,0.0,0.0,0.0,0.0,0.0,0.0,0.0,0.0,0.0,0.0,0.0,0.0,0.0,0.0,0.0,0.0,0.0,0.0,0.0,0.0,0.0,0.0,0.0,0.0,0.0,0.0,0.0,0.0,0.0,0.0,0.0,0.0,0.0,0.0,0.0,0.0,0.0,0.0,0.0,0.0,0.0,0.0,0.0,0.0,0.0,0.0,0.0,0.0,0.0,0.0,0.0,0.0,0.0,0.0,0.0,0.0,0.0,0.0,0.0,0.0,0.0,0.0,0.0,0.0,0.0,0.0,0.0,0.0,0.0,0.0,0.0,0.0,0.0,0.0,0.0,0.0,0.0,0.0,0.0,0.0,0.0,0.0,0.0,0.0,0.0,0.0,-0.7247,-0.7958,-0.8456,0.0,-0.8472,-0.8496,-0.8649,-0.8211,-0.7837,-0.7602,0.0,0.0,0.0,0.0,0.0,0.0,0.0,0.0,0.0,0.0,0.0,0.0,0.0,0.0,0.0,0.0,0.0,0.0,0.0,0.0,0.0,0.0,0.0,0.0,0.0,0.0,0.0,0.0,0.0,0.0,0.0,0.0,0.0,0.0,0.0,0.0,0.0,0.0,0.0,0.0,0.0,0.0,0.0,0.0,0.0,0.0,0.0,0.0,0.0,0.0,0.0,0.0,0.0,0.0,0.0,0.0,0.0,0.0,0.0,0.0,0.0,0.0,0.0,0.0,0.0,0.0,0.0,0.0,0.0,0.0,0.0,0.0,0.0,0.0,0.0,0.0,0.0,0.0,0.0,0.0,0.0,0.0,0.0,0.0,0.0,0.0,0.0,0.0,0.0,0.0,0.0,0.0,0.0,0.0,0.0,0.0,0.0,0.0,0.0,0.0,0.0,0.0,-0.6907,-0.7921,-0.8574,-0.8239,-0.8201,-0.8218,-0.8308,-0.7967,-0.761,0.0,0.0,0.0,0.0,0.0,0.0,0.0,0.0,0.0,0.0,0.0,0.0,0.0,0.0,0.0,0.0,0.0,0.0,0.0,0.0,0.0,0.0,0.0,0.0,0.0,0.0,0.0,0.0,0.0,0.0,0.0,0.0,0.0,0.0,0.0,0.0,0.0,0.0,0.0,0.0,0.0,0.0,0.0,0.0,0.0,0.0,0.0,0.0,0.0,0.0,0.0,0.0,0.0,0.0,0.0,0.0,0.0,0.0,0.0,0.0,0.0,0.0,0.0,0.0,0.0,0.0,0.0,0.0,0.0,0.0,0.0,0.0,0.0,0.0,0.0,0.0,0.0,0.0,0.0,0.0,0.0,0.0,0.0,0.0,0.0,0.0,0.0,0.0,0.0,0.0,0.0,0.0,0.0,0.0,0.0,0.0,0.0,0.0,0.0,0.0,0.0,0.0,0.0,0.0,-0.7812,-0.8398,-0.8232,-0.8201,-0.8273,-0.8487,-0.8146,-0.7732,-0.7253,0.0,0.0,0.0,0.0,0.0,0.0,0.0,0.0,0.0,0.0,0.0,0.0,0.0,0.0,0.0,0.0,0.0,0.0,0.0,0.0,0.0,0.0,0.0,0.0,0.0,0.0,0.0,0.0,0.0,0.0,0.0,0.0,0.0,0.0,0.0,0.0,0.0,0.0,0.0,0.0,0.0,0.0,0.0,0.0,0.0,0.0,0.0,0.0,0.0,0.0,0.0,0.0,0.0,0.0,0.0,0.0,0.0,0.0,0.0,0.0,0.0,0.0,0.0,0.0,0.0,0.0,0.0,0.0,0.0,0.0,0.0,0.0,0.0,0.0,0.0,0.0,0.0,0.0,0.0,0.0,0.0,0.0,0.0,0.0,0.0,0.0,0.0,0.0,0.0,0.0,0.0,0.0,0.0,0.0,0.0,0.0,0.0,0.0,0.0,0.0,0.0,0.0,-0.7035,-0.7706,-0.8144,-0.7975,-0.8063,-0.8177,-0.8289,-0.8102,-0.7789,-0.7261,0.0,0.0,0.0,0.0,0.0,0.0,0.0,0.0,0.0,0.0,0.0,0.0,0.0,0.0,0.0,0.0,0.0,0.0,0.0,0.0,0.0,0.0,0.0,0.0,0.0,0.0,0.0,0.0,0.0,0.0,0.0,0.0,0.0,0.0,0.0,0.0,0.0,0.0,0.0,0.0,0.0,0.0,0.0,0.0,0.0,0.0,0.0,0.0,0.0,0.0,0.0,0.0,0.0,0.0,0.0,0.0,0.0,0.0,0.0,0.0,0.0,0.0,0.0,0.0,0.0,0.0,0.0,0.0,0.0,0.0,0.0,0.0,0.0,0.0,0.0,0.0,0.0,0.0,0.0,0.0,0.0,0.0,0.0,0.0,0.0,0.0,0.0,0.0,0.0,0.0,0.0,0.0,0.0,0.0,0.0,0.0,0.0,0.0,0.0,0.0,0.0,0.0,-0.6912,-0.7514,-0.7923,-0.7745,-0.7871,-0.7891,-0.7881,-0.7955,-0.778,-0.7236,0.0,0.0,0.0,0.0,0.0,0.0,0.0,0.0,0.0,0.0,0.0,0.0,0.0,0.0,0.0,0.0,0.0,0.0,0.0,0.0,0.0,0.0,0.0,0.0,0.0,0.0,0.0,0.0,0.0,0.0,0.0,0.0,0.0,0.0,0.0,0.0,0.0,0.0,0.0,0.0,0.0,0.0,0.0,0.0,0.0,0.0,0.0,0.0,0.0,0.0,0.0,0.0,0.0,0.0,0.0,0.0,0.0,0.0,0.0,0.0,-0.5085,0.0,0.0,0.0,0.0,0.0,0.0,0.0,0.0,0.0,0.0,0.0,0.0,0.0,0.0,0.0,0.0,0.0,0.0,0.0,0.0,0.0,0.0,0.0,0.0,0.0,0.0,0.0,0.0,0.0,0.0,0.0,0.0,0.0,0.0,0.0,0.0,0.0,0.0,0.0,0.0,0.0,-0.6912,-0.7421,-0.7855,-0.7668,-0.7884,-0.8019,-0.7889,-0.7955,-0.7724,-0.7058,0.0,0.0,0.0,0.0,0.0,0.0,0.0,0.0,0.0,0.0,0.0,0.0,0.0,0.0,0.0,0.0,0.0,0.0,0.0,0.0,0.0,0.0,0.0,0.0,0.0,0.0,0.0,0.0,0.0,0.0,0.0,0.0,0.0,0.0,0.0,0.0,0.0,0.0,0.0,0.0,0.0,0.0,0.0,0.0,0.0,0.0,0.0,0.0,0.0,0.0,0.0,0.0,0.0,0.0,0.0,0.0,0.0,0.0,0.0,0.0,0.0,-0.6201,0.0,0.0,0.0,0.0,0.0,0.0,0.0,0.0,0.0,0.0,0.0,0.0,0.0,0.0,0.0,0.0,0.0,0.0,0.0,0.0,0.0,0.0,0.0,0.0,0.0,0.0,0.0,0.0,0.0,0.0,0.0,0.0,0.0,0.0,0.0,0.0,0.0,0.0,0.0,0.0,-0.7102,-0.7529,-0.7753,-0.7785,-0.7915,-0.8035,-0.804,-0.8044,-0.7918,-0.745,-0.709,0.0,0.0,0.0,0.0,0.0,0.0,0.0,0.0,0.0,0.0,0.0,0.0,0.0,0.0,0.0,0.0,0.0,0.0,0.0,0.0,0.0,0.0,0.0,0.0,0.0,0.0,0.0,0.0,0.0,0.0,0.0,0.0,0.0,0.0,0.0,0.0,0.0,0.0,0.0,0.0,0.0,0.0,0.0,0.0,0.0,0.0,0.0,0.0,0.0,0.0,0.0,0.0,0.0,0.0,0.0,-0.3436,-0.5039,-0.5659,-0.5468,-0.5936,-0.6381,-0.6803,0.0,0.0,0.0,0.0,0.0,0.0,0.0,0.0,0.0,0.0,0.0,0.0,0.0,0.0,0.0,0.0,0.0,0.0,0.0,0.0,0.0,0.0,0.0,0.0,0.0,-0.6525,-0.6519,0.0,0.0,0.0,0.0,0.0,0.0,0.0,0.0,0.0,0.0,0.0,0.0,-0.7353,-0.7672,-0.7841,-0.7814,-0.7973,-0.8077,-0.8018,-0.8177,-0.8102,-0.7829,-0.7439,-0.6944,0.0,0.0,0.0,0.0,0.0,0.0,0.0,0.0,0.0,0.0,0.0,0.0,0.0,0.0,0.0,0.0,0.0,0.0,0.0,0.0,0.0,0.0,0.0,0.0,0.0,0.0,0.0,0.0,0.0,0.0,0.0,0.0,-0.1273,-0.1308,0.0,0.0,0.0,0.0,0.0,0.0,0.0,0.0,0.0,0.0,0.0,0.0,0.0,0.0,-0.1586,-0.1593,-0.1551,-0.1376,-0.149,-0.169,-0.1881,-0.2163,-0.2255,-0.234,-0.3917,0.0,-0.6734,-0.6898,0.0,0.0,0.0,0.0,0.0,0.0,0.0,0.0,0.0,0.0,0.0,0.0,0.0,0.0,0.0,0.0,0.0,0.0,0.0,0.0,0.0,0.0,-0.7224,-0.7224,-0.7136,-0.7041,0.0,-0.6593,-0.6256,-0.6003,0.0,0.0,0.0,0.0,0.0,0.0,0.0,0.0,-0.7509,-0.7828,-0.7957,-0.7828,-0.8069,-0.8037,-0.7752,-0.8012,-0.8107,-0.7761,-0.7358,-0.7114,-0.6855,-0.6522,0.0,0.0,0.0,0.0,0.0,0.0,0.0,0.0,0.0,0.0,0.0,0.0,0.0,0.0,0.0,0.0,0.0,0.0,0.0,0.0,0.0,0.0,0.0,0.0,0.0,0.0,0.0,0.0,0.0,-0.1237,-0.1264,-0.1315,-0.1292,-0.1266,0.0,0.0,0.0,0.0,0.0,0.0,0.0,0.0,0.0,-0.1477,-0.1412,-0.146,-0.1629,-0.1598,-0.154,-0.1557,-0.1553,-0.156,-0.1576,-0.1576,-0.1575,-0.1671,-0.2457,-0.3181,-0.3907,-0.5032,-0.5357,-0.5218,0.0,0.0,0.0,0.0,0.0,0.0,-0.69,0.0,0.0,0.0,0.0,0.0,0.0,0.0,0.0,0.0,0.0,0.0,0.0,0.0,0.0,-0.7482,-0.7448,-0.74,-0.74,-0.7197,-0.6892,0.0,-0.6478,-0.643,-0.6112,0.0,0.0,0.0,0.0,0.0,-0.7672,-0.7902,-0.8011,-0.7943,-0.8063,-0.8151,-0.8008,-0.8231,-0.8239,-0.799,-0.7843,-0.765,-0.7269,-0.7009,-0.666,0.0,0.0,0.0,0.0,0.0,0.0,0.0,0.0,0.0,0.0,0.0,0.0,0.0,0.0,0.0,0.0,0.0,0.0,0.0,0.0,0.0,0.0,0.0,0.0,0.0,0.0,0.0,0.0,-0.1206,-0.1305,-0.1354,-0.1346,-0.1249,0.0,0.0,0.0,0.0,0.0,0.0,-0.1367,-0.1392,-0.1408,-0.159,-0.1501,-0.1546,-0.1634,-0.1568,-0.1595,-0.1617,-0.1594,-0.1595,-0.1617,-0.1617,-0.1617,-0.1617,-0.1617,-0.1605,-0.1676,-0.3094,-0.3612,-0.3689,-0.4685,-0.4905,0.0,-0.5982,-0.6795,-0.7348,-0.7308,-0.7348,-0.7409,-0.7195,0.0,-0.7231,-0.6888,0.0,0.0,0.0,0.0,-0.6973,-0.7428,0.0,-0.7522,-0.7678,-0.7685,-0.7651,-0.7651,-0.7624,-0.7455,0.0,-0.6966,-0.6926,-0.6552,0.0,0.0,0.0,0.0,-0.7536,-0.7834,-0.797,-0.8038,-0.8038,-0.8041,-0.8153,-0.8111,-0.8269,-0.8413,-0.8197,-0.8281,-0.8162,-0.7707,-0.7431,-0.7082,0.0,0.0,0.0,0.0,0.0,0.0,0.0,0.0,0.0,0.0,0.0,0.0,0.0,0.0,0.0,0.0,0.0,0.0,0.0,0.0,0.0,0.0,0.0,0.0,0.0,0.0,0.0,0.0,0.0,0.0,-0.1368,-0.1318,0.0,0.0,0.0,0.0,-0.1377,-0.1498,-0.1517,-0.143,-0.1513,-0.1631,-0.157,-0.1565,-0.1598,-0.1569,-0.1599,-0.1615,-0.1617,-0.1615,-0.1615,-0.1617,-0.1617,-0.1617,-0.1617,-0.1617,-0.1615,-0.1611,-0.1677,-0.1624,-0.1564,-0.1653,-0.163,-0.2147,-0.6368,-0.7909,-0.793,-0.8,-0.776,-0.7639,-0.7855,-0.7801,-0.764,-0.7612,-0.7312,0.0,0.0,-0.7448,-0.7441,-0.7889,-0.7896,-0.7828,-0.7984,-0.7909,-0.7801,-0.7801,-0.7692,-0.755,0.0,-0.7346,-0.7292,-0.7122,0.0,0.0,-0.7509,-0.757,-0.7692,-0.7991,-0.8031,-0.8038,-0.8038,-0.8031,-0.797,-0.7821,-0.8283,-0.843,-0.8109,-0.8383,-0.8463,-0.826,-0.7748,-0.7382,-0.7188,-0.6668,0.0,0.0,0.0,0.0,0.0,0.0,0.0,0.0,0.0,0.0,0.0,0.0,0.0,0.0,0.0,0.0,0.0,0.0,0.0,0.0,0.0,0.0,0.0,0.0,0.0,0.0,0.0,0.0,-0.1435,-0.1279,0.0,0.0,-0.1389,-0.1511,-0.1382,-0.1487,-0.1605,-0.155,-0.1565,-0.157,-0.1568,-0.1599,-0.1611,-0.16,-0.1611,-0.1617,-0.1617,-0.1617,-0.1617,-0.1617,-0.1617,-0.1617,-0.1617,-0.1617,-0.1617,-0.1615,-0.1605,-0.1576,-0.1536,-0.1516,-0.1512,-0.1708,-0.3277,-0.3885,-0.4298,-0.7012,-0.797,-0.7834,-0.7979,-0.7883,-0.7732,-0.7736,-0.7602,-0.7529,-0.7692,-0.7699,-0.7712,-0.797,-0.7997,-0.797,-0.8024,-0.7997,-0.7957,-0.7957,-0.7916,-0.7868,-0.7814,-0.7719,-0.7611,-0.7461,-0.759,-0.7692,-0.7611,-0.776,-0.7923,-0.8024,-0.8038,-0.8038,-0.8038,-0.8038,-0.8018,-0.7963,-0.8362,-0.8542,-0.843,-0.8729,-0.8779,-0.8479,-0.817,-0.7813,-0.7399,-0.6976,-0.6587,0.0,0.0,0.0,0.0,0.0,0.0,0.0,0.0,0.0,0.0,0.0,0.0,0.0,0.0,0.0,0.0,0.0,0.0,0.0,0.0,0.0,0.0,0.0,0.0,0.0,0.0,-0.1377,-0.1415,-0.1348,-0.1269,-0.136,-0.156,-0.1596,-0.1456,-0.1547,-0.1564,-0.1614,-0.1598,-0.1596,-0.1615,-0.1617,-0.1617,-0.1617,-0.1617,-0.1617,-0.1617,-0.1617,-0.1617,-0.1617,-0.1617,-0.1617,-0.1617,-0.1617,-0.1617,-0.1617,-0.1617,-0.1605,-0.1584,-0.1565,-0.1568,-0.1583,-0.1583,-0.1592,-0.2007,-0.4826,-0.6753,-0.7952,-0.8041,-0.7896,-0.7771,-0.778,-0.7814,-0.7889,-0.7889,-0.7889,-0.7909,-0.8011,-0.8038,-0.8038,-0.8038,-0.8038,-0.8038,-0.8038,-0.8038,-0.8038,-0.8038,-0.7957,-0.7862,-0.7767,-0.7909,-0.797,-0.778,-0.7916,-0.8038,-0.8038,-0.8038,-0.8038,-0.8038,-0.8038,-0.8038,-0.8038,-0.8293,-0.8497,-0.8594,-0.8707,-0.8721,-0.8576,-0.8325,-0.8,-0.7586,-0.7228,-0.6928,-0.6692,0.0,0.0,0.0,0.0,0.0,0.0,0.0,0.0,0.0,0.0,0.0,0.0,0.0,0.0,0.0,0.0,0.0,0.0,0.0,0.0,0.0,0.0,0.0,-0.1354,-0.1377,-0.1397,-0.1396,-0.1538,-0.1577,-0.1577,-0.1577,-0.1616,-0.161,-0.159,-0.1585,-0.1615,-0.1618,-0.1618,-0.1618,-0.162,-0.162,-0.162,-0.162,-0.162,-0.162,-0.162,-0.162,-0.162,-0.162,-0.162,-0.162,-0.162,-0.162,-0.162,-0.162,-0.162,-0.162,-0.1618,-0.1617,-0.1617,-0.1617,-0.1614,-0.161,-0.1605,-0.4314,-0.7772,-0.7872,-0.7959,-0.7939,-0.7939,-0.7939,-0.8038,-0.8038,-0.8038,-0.8038,-0.8038,-0.8038,-0.8038,-0.8038,-0.8038,-0.8038,-0.8038,-0.8038,-0.8038,-0.8038,-0.8038,-0.8038,-0.8038,-0.8038,-0.8038,-0.8038,-0.8038,0.0,-0.8038,-0.8038,-0.8038,-0.8038,-0.8038,-0.8038,-0.8038,-0.8105,-0.8311,-0.8586,-0.8314,-0.8304,-0.8568,-0.8219,-0.7943,-0.7772,-0.7415,-0.7236,-0.7236,0.0,0.0,0.0,0.0,0.0,0.0,0.0,0.0,0.0,0.0,0.0,0.0,0.0,0.0,0.0,0.0,0.0,0.0,0.0,0.0,0.0,0.0,-0.0347,-0.0345,-0.1083,-0.159,-0.1519,-0.1536,-0.1555,-0.1577,-0.158,-0.159,-0.1615,-0.1609,-0.1609,-0.1617,-0.1637,-0.165,-0.165,-0.1566,-0.1575,-0.1575,-0.1575,-0.1575,-0.1575,-0.1575,-0.1575,-0.1575,-0.168,-0.1784,-0.1784,-0.168,-0.168,-0.168,-0.168,-0.168,-0.1675,-0.1633,-0.1617,-0.1617,-0.1617,-0.1615,-0.1614,-0.161,-0.2412,-0.362,-0.5127,-0.6032,-0.6431,-0.6431,-0.7235,-0.8038,-0.8038,-0.8038,-0.8038,-0.8038,-0.8038,-0.8038,-0.8038,-0.8038,-0.8038,-0.8038,-0.8038,-0.8038,-0.8038,-0.8038,-0.8038,-0.8038,-0.8038,-0.8038,-0.8038,0.0,0.0,-0.8038,-0.8038,-0.8038,-0.8038,-0.8038,-0.8038,-0.8038,-0.8202,-0.8369,0.0,-0.8467,-0.8556,-0.8576,-0.8341,-0.813,-0.7951,-0.7594,-0.7415,0.0,0.0,0.0,0.0,0.0,0.0,0.0,0.0,0.0,0.0,0.0,0.0,0.0,0.0,0.0,0.0,0.0,0.0,0.0,0.0,0.0,0.0,0.0,0.0,0.0,-0.0567,-0.0972,-0.0893,-0.1292,-0.1598,-0.1615,-0.1617,-0.1617,-0.1617,-0.1629,-0.1636,-0.1636,-0.1663,-0.168,-0.168,-0.1696,-0.1704,-0.1704,-0.1704,-0.1704,-0.1704,-0.1704,-0.1704,-0.1704,-0.1811,-0.1811,0.0,-0.1811,-0.1704,-0.1704,-0.1704,-0.1704,0.0,0.0,0.0,0.0,0.0,-0.1625,-0.1636,-0.1633,-0.163,-0.1833,-0.305,-0.4347,-0.5527,-0.5876,-0.7012,-0.8133,-0.8133,-0.8133,-0.8119,-0.8058,-0.8038,-0.8038,-0.8038,-0.8038,-0.8038,-0.8038,-0.8038,-0.8038,-0.8038,0.0,0.0,-0.8038,-0.8038,-0.8038,-0.8038,-0.8038,-0.8038,0.0,-0.8038,-0.8038,-0.8038,-0.8038,-0.8038,-0.8038,-0.8076,0.0,0.0,0.0,-0.838,-0.8463,0.0,0.0,0.0,0.0,0.0,0.0,0.0,0.0,0.0,-0.7683,-0.7634,0.0,0.0,0.0,0.0,0.0,0.0,0.0,0.0,0.0,0.0,0.0,0.0,0.0,0.0,0.0,0.0,0.0,0.0,0.0,0.0,0.0,0.0,-0.0808,-0.1415,-0.1415,-0.1518,-0.1521,-0.142,-0.1546,-0.1667,0.0,0.0,0.0,0.0,0.0,-0.1822,-0.1822,-0.1822,-0.1822,-0.1822,-0.1822,-0.1822,-0.1822,-0.1822,-0.1822,-0.1822,-0.1822,-0.1822,-0.1822,-0.1822,-0.1712,-0.1707,-0.1678,-0.1563,-0.1559,-0.1637,-0.1644,0.0,0.0,0.0,0.0,-0.166,-0.2971,-0.4762,-0.5663,-0.6833,-0.7878,-0.7878,-0.7981,-0.8057,-0.7925,-0.7985,-0.8085,-0.8085,-0.8085,-0.8085,-0.8085,-0.8079,-0.8065,-0.8065,-0.8052,-0.8038,-0.8038,-0.8038,-0.8038,-0.8038,-0.8038,0.0,-0.8038,-0.8038,-0.8038,-0.8038,0.0,0.0,-0.8038,-0.7916,-0.8014,-0.8564,-0.8132,-0.8074,-0.8357,-0.8211,-0.8292,-0.8617,-0.8625,-0.8698,-0.8852,-0.9015,-0.9096,-0.9072,-0.7959,-0.778,0.0,0.0,0.0,0.0,0.0,0.0,0.0,0.0,0.0,0.0,0.0,0.0,0.0,0.0,0.0,0.0,0.0,0.0,0.0,0.0,0.0,0.0,-0.0202,-0.0303,-0.0303,-0.1127,-0.124,-0.0413,-0.0315,-0.0743,-0.1699,-0.1834,0.0,-0.185,-0.1764,-0.1778,-0.1778,-0.1778,-0.1778,-0.1778,0.0,0.0,-0.1778,-0.1778,-0.1778,-0.1778,-0.1778,-0.1778,-0.1778,-0.1778,-0.1763,-0.1738,-0.1708,-0.1696,-0.1696,-0.1689,-0.169,-0.1696,-0.1696,-0.1696,-0.1695,-0.1695,-0.2533,-0.3581,-0.3803,-0.465,0.0,-0.5597,-0.6228,-0.6962,-0.6934,-0.7663,-0.8397,-0.8397,-0.8397,-0.8397,-0.8397,-0.8309,-0.8228,-0.8228,-0.8126,-0.8038,-0.8038,-0.8038,-0.8038,-0.8038,-0.8038,-0.8038,-0.8038,-0.8038,-0.8038,-0.8038,-0.8038,-0.8038,-0.8038,-0.8011,-0.8084,-0.8306,-0.8543,-0.8665,-0.8714,-0.8828,-0.8917,-0.8991,-0.8999,-0.9007,-0.9047,-0.908,-0.9096,-0.9088,-0.8852,-0.8812,0.0,0.0,0.0,0.0,0.0,0.0,0.0,0.0,0.0,0.0,0.0,0.0,0.0,0.0,0.0,0.0,0.0,0.0,0.0,0.0,0.0,0.0,0.0,0.0,0.0,-0.0516,-0.0834,-0.0842,-0.0321,-0.0216,-0.0864,-0.1207,-0.1329,-0.1329,-0.1676,-0.1795,-0.1795,-0.1795,-0.1795,-0.1795,-0.1795,-0.1795,-0.1795,-0.1795,-0.1795,-0.1795,-0.1795,-0.1795,-0.1795,-0.1795,-0.1786,-0.1771,-0.1756,-0.1731,-0.1704,-0.1704,-0.1714,-0.1727,-0.1727,-0.1727,-0.1727,-0.1727,-0.2467,-0.3305,-0.3331,-0.4199,-0.4951,-0.4951,-0.5487,-0.5901,-0.585,-0.6679,-0.7632,-0.7632,-0.8059,-0.8479,-0.8479,-0.8425,-0.8377,-0.8377,-0.8316,-0.8235,-0.8167,-0.8153,-0.8126,-0.8052,-0.8038,-0.8038,-0.8038,-0.8038,-0.8038,-0.8038,-0.8038,-0.8038,-0.8038,-0.8069,-0.816,-0.8475,-0.8683,-0.8766,-0.8958,-0.9047,-0.9096,-0.9096,-0.9185,-0.9226,-0.9226,-0.9315,-0.9364,-0.9364,-0.9364,-0.9315,0.0,0.0,0.0,0.0,0.0,0.0,0.0,0.0,0.0,0.0,0.0,0.0,0.0,0.0,0.0,0.0,0.0,0.0,0.0,0.0,0.0,0.0,0.0,0.0,0.0,0.0,-0.0317,-0.1178,-0.0436,0.0,0.0,-0.0445,-0.0673,-0.0673,-0.1237,-0.1466,-0.1578,-0.1696,-0.1813,-0.1813,-0.1813,-0.1809,-0.1804,-0.1804,-0.1801,-0.1795,-0.1795,-0.1795,-0.1795,-0.1795,-0.1795,-0.1795,-0.1795,-0.1765,-0.1722,-0.1722,-0.1737,-0.1759,-0.1759,-0.1759,-0.1759,-0.1759,-0.2393,-0.3019,-0.3166,-0.3726,-0.4494,-0.4494,-0.4604,-0.4807,-0.4629,-0.5576,-0.6536,-0.6749,-0.7499,-0.8249,-0.8567,-0.8547,-0.8526,-0.8526,-0.8506,-0.8445,-0.833,-0.8309,-0.8248,-0.8065,-0.8038,-0.8038,-0.8038,-0.8038,-0.8038,-0.8038,-0.8038,-0.8038,-0.8038,-0.8126,-0.8348,-0.8542,-0.8695,-0.891,-0.9107,-0.9202,-0.9202,-0.9202,-0.934,-0.9405,-0.9405,-0.9559,-0.9624,-0.9624,-0.9624,-0.9551,0.0,0.0,0.0,0.0,0.0,0.0,0.0,0.0,0.0,0.0,0.0,0.0,0.0,0.0,0.0,0.0,0.0,0.0,0.0,0.0,0.0,0.0,0.0,0.0,0.0,0.0,-0.0,-0.0218,-0.0111,0.0,0.0,-0.0112,-0.0112,-0.0112,-0.0114,-0.0458,-0.1032,-0.1513,-0.1876,-0.1876,-0.1876,-0.1861,-0.1835,-0.1835,-0.182,-0.1795,-0.1795,-0.1795,-0.1795,-0.1795,-0.1795,-0.1795,-0.1795,-0.1791,-0.1785,-0.1785,-0.1787,-0.179,-0.179,-0.179,-0.179,-0.179,-0.1899,-0.2007,-0.2012,-0.2125,-0.2124,-0.2124,-0.2903,-0.3792,-0.3784,-0.4668,-0.5775,-0.678,-0.7111,-0.7552,-0.8666,-0.8777,-0.8682,-0.8682,-0.8574,-0.8479,-0.8459,-0.8459,-0.8364,-0.8079,-0.8038,-0.8038,-0.8038,-0.8038,-0.8038,-0.8038,-0.8038,-0.8038,-0.8038,-0.8223,-0.8407,-0.8407,-0.8886,-0.9174,-0.9182,-0.9371,-0.9567,-0.9567,-0.9583,-0.96,-0.96,-0.9616,-0.9624,-0.9624,-0.9624,-0.9616,0.062,0.0,0.0,0.0,0.0,0.0,0.0,0.0,0.0,0.0,0.0,0.0,0.0,0.0,0.0,0.0,0.0,0.0,0.0,0.0,0.0,0.0,0.0,0.0,0.0,0.0,0.0,0.0,0.0,0.0,0.0,0.0,0.0,0.0,0.0,-0.0117,-0.035,-0.0587,-0.0943,-0.1296,-0.1768,-0.1879,-0.1866,-0.1866,-0.1859,-0.1847,-0.1847,-0.1847,-0.1847,-0.1847,-0.1847,-0.1847,-0.1847,-0.1847,-0.1843,-0.1808,-0.1795,-0.1795,-0.1795,-0.1795,-0.1795,-0.1795,-0.1795,-0.1795,-0.1795,-0.1795,-0.1795,-0.1795,-0.213,-0.2576,-0.2576,-0.3469,-0.447,-0.492,-0.6149,-0.7265,-0.7709,-0.8336,-0.8845,-0.8845,-0.8791,-0.8716,-0.8628,-0.8615,-0.854,-0.833,-0.8296,-0.8269,-0.8187,-0.8174,-0.8174,-0.8174,-0.8174,-0.8174,-0.8174,-0.8275,-0.8334,-0.8435,-0.8733,-0.9031,-0.9236,-0.9434,-0.9673,-0.9778,-0.9778,-0.9827,-0.9941,-0.9941,-0.9941,-0.9941,-0.9941,-0.9941,0.0787,0.0,0.0,0.0,0.0,0.0,0.0,0.0,0.0,0.0,0.0,0.0,0.0,0.0,0.0,0.0,0.0,0.0,0.0,0.0,0.0,0.0,0.0,0.0,0.0,0.0,0.0,0.0,0.0,0.0,0.0,0.0,0.0,0.0,0.0,0.0,0.0,0.0,-0.0239,-0.0716,-0.1313,-0.1668,-0.1661,-0.1771,-0.1885,-0.1885,-0.1885,-0.1885,-0.1885,-0.1877,-0.1873,-0.1873,-0.1864,-0.1861,-0.1855,-0.1812,-0.1805,-0.182,-0.182,-0.1814,-0.1808,-0.1808,-0.1802,-0.1795,-0.1795,-0.1795,-0.1795,-0.1795,-0.1795,-0.1795,-0.1795,-0.2466,-0.3136,-0.3469,-0.492,-0.626,-0.6927,-0.782,-0.8491,-0.883,-0.894,-0.8906,-0.8791,-0.8771,-0.8737,-0.8621,-0.8608,-0.854,-0.835,-0.833,-0.833,-0.833,-0.833,-0.833,-0.833,-0.833,-0.8385,-0.847,-0.8758,-0.9067,-0.9175,-0.9578,-0.9835,-0.9957,-0.9965,-1.003,-1.016,-1.016,-1.016,-1.016,-1.016,-1.0193,0.0,0.0,0.0,0.0,0.0,0.0,0.0,0.0,0.0,0.0,0.0,0.0,0.0,0.0,0.0,0.0,0.0,0.0,0.0,0.0,0.0,0.0,0.0,0.0,0.0,0.0,0.0,0.0,0.0,0.0,0.0,0.0,0.0,0.0,0.0,0.0,0.0,0.0,-0.0,-0.0,-0.074,-0.0979,-0.1084,-0.1662,-0.1885,-0.1885,-0.1885,-0.1885,-0.1883,-0.1854,-0.1842,-0.1839,-0.1809,-0.1798,-0.1797,-0.1795,-0.1832,-0.1883,-0.1883,-0.1864,-0.1839,-0.1839,-0.1819,-0.1795,-0.1795,-0.1795,-0.1795,-0.1795,-0.1795,-0.1795,-0.1795,-0.1795,-0.213,-0.3357,-0.3692,-0.4362,-0.6594,-0.7154,-0.7487,-0.8719,-0.894,-0.894,-0.8933,-0.8933,-0.8927,-0.8927,-0.8927,-0.8818,-0.8513,-0.8472,-0.8472,-0.8472,-0.8472,-0.8472,-0.8472,-0.8472,-0.8472,-0.8465,-0.8996,-0.9317,-0.9317,-0.9831,-1.0152,-1.0152,-1.0152,-1.0152,-1.016,-1.016,-1.016,-1.016,-1.016,-1.0257,0.0,0.0,0.0,0.0,0.0,0.0,0.0,0.0,0.0,0.0,0.0,0.0,0.0,0.0,0.0,0.0,0.0,0.0,0.0,0.0,0.0,0.0,0.0,0.0,0.0,0.0,0.0,0.0,0.0,0.0,0.0,0.0,0.0,0.0,0.0,0.0,0.0,0.0,0.0,-0.0,-0.0247,-0.0369,-0.0367,-0.0487,-0.1094,-0.1947,-0.1947,-0.1947,-0.1944,-0.1913,-0.19,-0.1898,-0.1868,-0.1855,-0.1855,-0.1855,-0.1868,-0.1883,-0.1862,-0.1862,-0.187,-0.187,-0.1864,-0.1855,-0.1855,-0.1855,-0.1855,-0.1855,-0.1855,-0.1855,-0.1855,-0.1855,-0.1966,-0.2285,-0.2961,-0.3856,-0.4596,-0.5365,-0.6366,-0.7487,-0.7709,-0.7931,-0.8719,-0.894,-0.894,-0.894,-0.8852,-0.875,-0.8648,-0.8547,-0.852,-0.8621,-0.8635,-0.8635,-0.8635,-0.8635,-0.8587,-0.8486,-0.88,-0.9122,-0.9332,-0.9638,-1.0007,-1.0339,-1.0339,-1.0404,-1.0517,-1.0517,-1.0517,-1.0517,-1.0517,-1.055,0.0335,0.0,0.0,0.0,0.0,0.0,0.0,0.0,0.0,0.0,0.0,0.0,0.0,0.0,0.0,0.0,0.0,0.0,0.0,0.0,0.0,0.0,0.0,0.0,0.0,0.0,0.0,0.0,0.0,0.0,0.0,0.0,0.0,0.0,0.0,0.0,0.0,0.0,0.0,0.0,0.0,0.0,0.0,0.0,-0.0494,-0.1358,-0.1596,-0.1715,-0.1958,-0.1915,-0.1899,-0.1895,-0.1865,-0.1853,-0.1853,-0.1853,-0.1861,-0.1868,-0.1859,-0.1869,-0.1885,-0.1885,-0.1885,-0.1885,-0.1885,-0.1885,-0.1885,-0.1885,-0.1885,-0.1885,-0.1885,-0.1885,-0.1881,-0.1861,-0.2435,-0.3118,-0.354,-0.4211,-0.5225,-0.6883,-0.7102,-0.7533,-0.8725,-0.894,-0.894,-0.894,-0.8852,-0.8791,-0.8791,-0.871,-0.8682,-0.8777,-0.8791,-0.8791,-0.8791,-0.8791,-0.875,-0.8648,-0.8862,-0.9183,-0.9503,-0.9716,-1.0091,-1.0526,-1.0526,-1.0582,-1.0688,-1.0761,-1.0794,-1.0794,-1.085,-1.085,0.1037,0.018,0.0187,0.0195,0.01,0.0,0.0,0.0,0.0,0.0,0.0,0.0,0.0,0.0,0.0,0.0,0.0,0.0,0.0,0.0,0.0,0.0,0.0,0.0,0.0,0.0,0.0,0.0,0.0,0.0,0.0,0.0,0.0,0.0,0.0,0.0,0.0,0.0,0.0,0.0,0.0,0.0,0.0,0.0,0.0,-0.0,-0.073,-0.1328,-0.1806,-0.1868,-0.1842,-0.1838,-0.1806,-0.1795,-0.1795,-0.1797,-0.1816,-0.1844,-0.1876,-0.1887,-0.1888,-0.1888,-0.1889,-0.1891,-0.1891,-0.1891,-0.1891,-0.1891,-0.1891,-0.1891,-0.1891,-0.1891,-0.1889,-0.1888,-0.1888,-0.224,-0.3411,-0.3646,-0.4328,-0.6551,-0.7101,-0.7522,-0.8759,-0.896,-0.896,-0.8954,-0.8947,-0.8947,-0.894,-0.894,-0.894,-0.894,-0.894,-0.894,-0.894,-0.894,-0.894,-0.894,-0.9161,-0.9485,-0.9816,-1.0147,-1.0366,-1.0704,-1.0704,-1.0712,-1.072,-1.0899,-1.098,-1.0988,-1.1143,-1.1135,0.3021,0.2649,0.2428,0.2388,0.1206,0.0,0.0,0.0,0.0,0.0,0.0,0.0,0.0,0.0,0.0,0.0,0.0,0.0,0.0,0.0,0.0,0.0,0.0,0.0,0.0,0.0,0.0,0.0,0.0,0.0,0.0,0.0,0.0,0.0,0.0,0.0,0.0,0.0,0.0,0.0,0.0,0.0,0.0,0.0,0.0,-0.0,-0.0123,-0.0366,-0.0603,-0.1535,-0.1861,-0.1838,-0.1806,-0.1795,-0.1798,-0.182,-0.1834,-0.1844,-0.1876,-0.19,-0.1919,-0.1919,-0.1934,-0.1954,-0.1954,-0.1954,-0.1954,-0.1954,-0.1954,-0.1954,-0.1954,-0.1954,-0.1948,-0.1925,-0.1919,-0.2032,-0.2244,-0.2355,-0.2821,-0.4321,-0.6063,-0.7795,-0.9043,-0.9266,-0.9232,-0.9117,-0.9096,-0.9062,-0.8954,-0.894,-0.894,-0.894,-0.894,-0.894,-0.894,-0.894,-0.894,-0.894,-0.894,-0.9265,-0.9816,-0.9926,-1.0208,-1.0899,-1.0899,-1.0956,-1.1086,-1.1135,-1.1159,-1.1159,-1.12,-1.12,0.4862,0.4793,0.4579,0.463,0.3732,0.2314,0.0399,0.0,0.0,0.0,0.0,0.0,0.0,0.0,0.0,0.0,0.0,0.0,0.0,0.0,0.0,0.0,0.0,0.0,0.0,0.0,0.0,0.0,0.0,0.0,0.0,0.0,0.0,0.0,0.0,0.0,0.0,0.0,0.0,0.0,0.0,0.0,0.0,0.0,0.0,0.0,0.0,0.0,-0.0,-0.0828,-0.1167,-0.1494,-0.1722,-0.1835,-0.1836,-0.1854,-0.1861,-0.1862,-0.188,-0.1906,-0.1932,-0.1932,-0.1952,-0.1977,-0.1977,-0.1977,-0.1977,-0.1977,-0.1977,-0.1977,-0.1977,-0.1977,-0.1973,-0.1955,-0.1951,-0.1947,-0.1929,-0.1925,-0.2281,-0.345,-0.5659,-0.7619,-0.8439,-0.9026,-0.9354,-0.9266,-0.9252,-0.9225,-0.9144,-0.9022,-0.894,-0.894,-0.894,-0.896,-0.9028,-0.8974,-0.8967,-0.9028,-0.9035,-0.9252,-0.9921,-0.9988,-1.0408,-1.1078,-1.1078,-1.1126,-1.1224,-1.1305,-1.1346,-1.1346,-1.1427,-1.1419,0.6377,0.6393,0.6369,0.6369,0.6374,0.5432,0.1673,0.0397,0.0,0.0,0.0,0.0,0.0,0.0,0.0,0.0,0.0,0.0,0.0,0.0,0.0,0.0,0.0,0.0,0.0,0.0,0.0,0.0,0.0,0.0,0.0,0.0,0.0,0.0,0.0,0.0,0.0,0.0,0.0,0.0,0.0,0.0,0.0,0.0,0.0,0.0,0.0,0.0,0.0,0.0,-0.0351,-0.0809,-0.1406,-0.165,-0.165,-0.1653,-0.1773,-0.1774,-0.1778,-0.1796,-0.1936,-0.1933,-0.1952,-0.1977,-0.1977,-0.1977,-0.1977,-0.1977,-0.1977,-0.1977,-0.1977,-0.1977,-0.1977,-0.1977,-0.1977,-0.1977,-0.1977,-0.1977,-0.2336,-0.3512,-0.5602,-0.7311,-0.7434,-0.8611,-0.9435,-0.9415,-0.9408,-0.9401,-0.9381,-0.9157,-0.8994,-0.8994,-0.8994,-0.9049,-0.9171,-0.9069,-0.9049,-0.9178,-0.9184,-0.9525,-1.0085,-1.0226,-1.0547,-1.1141,-1.1256,-1.1273,-1.1297,-1.1459,-1.1533,-1.1541,-1.1703,-1.1687,0.6382,0.6426,0.6442,0.6442,0.6353,0.6232,0.5424,0.2553,0.0,0.0,0.0,0.0,0.0,0.0,0.0,0.0,0.0,0.0,0.0,0.0,0.0,0.0,0.0,0.0,0.0,0.0,0.0,0.0,0.0,0.0,0.0,0.0,0.0,0.0,0.0,0.0,0.0,0.0,0.0,0.0,0.0,0.0,0.0,0.0,0.0,0.0,0.0,0.0,0.0,0.0,-0.0119,-0.0117,-0.0235,-0.0589,-0.1062,-0.1076,-0.1081,-0.1084,-0.1097,-0.1473,-0.1964,-0.1939,-0.1952,-0.1977,-0.1977,-0.1977,-0.1977,-0.1977,-0.1977,-0.1977,-0.1977,-0.1977,-0.1977,-0.1977,-0.1977,-0.1977,-0.1977,-0.1977,-0.2344,-0.3681,-0.5129,-0.6458,-0.7675,-0.889,-0.9707,-0.9585,-0.9571,-0.9523,-0.9395,-0.9334,-0.9306,-0.9306,-0.9306,-0.9313,-0.934,-0.932,-0.9313,-0.934,-0.934,-0.9456,-0.9795,-1.017,-1.0484,-1.0973,-1.1334,-1.1524,-1.1679,-1.1711,-1.1727,-1.1727,-1.176,-1.176,0.642,0.6437,0.6437,0.6437,0.6442,0.6393,0.6356,0.0,0.0,0.0,0.0,0.0,0.0,0.0,0.0,0.0,0.0,0.0,0.0,0.0,0.0,0.0,0.0,0.0,0.0,0.0,0.0,0.0,0.0,0.0,0.0,0.0,0.0,0.0,0.0,0.0,0.0,0.0,0.0,0.0,0.0,0.0,0.0,0.0,0.0,0.0,0.0,0.0,0.0,0.0,0.0,0.0,0.0,-0.0121,-0.0483,-0.0487,-0.0488,-0.0489,-0.0862,-0.1482,-0.1974,-0.1959,-0.1964,-0.1977,-0.1977,-0.1977,-0.1977,-0.1977,-0.1977,-0.1977,-0.1977,-0.1977,-0.1977,-0.1977,-0.1977,-0.1977,-0.1977,-0.1977,-0.2222,-0.2835,-0.3937,-0.5284,-0.663,-0.7978,-0.9061,-0.9607,-0.972,-0.9693,-0.9618,-0.9612,-0.9551,-0.9395,-0.9381,-0.9415,-0.9496,-0.9429,-0.9415,-0.9496,-0.9503,-0.9614,-0.9966,-1.0391,-1.071,-1.1152,-1.1519,-1.1687,-1.1776,-1.1776,-1.1776,-1.1776,-1.1776,-1.1776,0.6437,0.6437,0.6437,0.6437,0.6437,0.6448,0.6392,0.4754,0.0,0.0,0.0,0.0,0.0,0.0,0.0,0.0,0.0,0.0,0.0,0.0,0.0,0.0,0.0,0.0,0.0,0.0,0.0,0.0,0.0,0.0,0.0,0.0,0.0,0.0,0.0,0.0,0.0,0.0,0.0,0.0,0.0,0.0,0.0,0.0,0.0,0.0,0.0,0.0,0.0,0.0,0.0,0.0,0.0,0.0,0.0,0.0,0.0,-0.0123,-0.0617,-0.1111,-0.1606,-0.1853,-0.1977,-0.1977,-0.1977,-0.1977,-0.1977,-0.1977,-0.1977,-0.1977,-0.1977,-0.1977,-0.1977,-0.1977,-0.1977,-0.1977,-0.1977,-0.1977,-0.1977,-0.1977,-0.3081,-0.4306,-0.5651,-0.7001,-0.8349,-0.9572,-0.9822,-0.9822,-0.9822,-0.9822,-0.9734,-0.9503,-0.9476,-0.9523,-0.9646,-0.9544,-0.953,-0.9646,-0.9652,-0.9772,-1.001,-1.0485,-1.0793,-1.1027,-1.1526,-1.1647,-1.1647,-1.1776,-1.1776,-1.1776,-1.1776,-1.1792,0.6437,0.6437,0.6437,0.6437,0.6437,0.6448,0.6392,0.0,0.0,0.0442,0.0,0.0,0.0,0.0,0.0,0.0,0.0,0.0,0.0,0.0,0.0,0.0,0.0,0.0,0.0,0.0,0.0,0.0,0.0,0.0,0.0,0.0,0.0,0.0,0.0,0.0,0.0,0.0,0.0,0.0,0.0,0.0,0.0,0.0,0.0,0.0,0.0,0.0,0.0,0.0,0.0,0.0,0.0,0.0,0.0,0.0,0.0,-0.0,-0.0123,-0.0123,-0.037,-0.1606,-0.1977,-0.1977,-0.1977,-0.1977,-0.1977,-0.1977,-0.1977,-0.1977,-0.1977,-0.1977,-0.1977,-0.1977,-0.1977,-0.1977,-0.1977,-0.1977,-0.1977,-0.1977,-0.3081,-0.4306,-0.5651,-0.7001,-0.8349,-0.9572,-0.9822,-0.9822,-0.9822,-0.9822,-0.9808,-0.9781,-0.9781,-0.9788,-0.9802,-0.9788,-0.9788,-0.9802,-0.9802,-0.9802,-0.9802,-1.0179,-1.0308,-1.0422,-1.1035,-1.1398,-1.1398,-1.1647,-1.1776,-1.1776,-1.1776,-1.1857,0.642,0.6437,0.6437,0.6437,0.6437,0.6448,0.6392,0.0,0.2618,0.0441,0.0,0.0,0.0,0.0,0.0,0.0,0.0,0.0,0.0,0.0,0.0,0.0,0.0,0.0,0.0,0.0,0.0,0.0,0.0,0.0,0.0,0.0,0.0,0.0,0.0,0.0,0.0,0.0,0.0,0.0,0.0,0.0,0.0,0.0,0.0,0.0,0.0,0.0,0.0,0.0,0.0,0.0,0.0,0.0,0.0,0.0,0.0,0.0,0.0,0.0,-0.0125,-0.0633,-0.1142,-0.1645,-0.1863,-0.1977,-0.1977,-0.1977,-0.1977,-0.1977,-0.1977,-0.1977,-0.1977,-0.1977,-0.1977,-0.1977,-0.1977,-0.1977,-0.1977,-0.1977,-0.2469,-0.3451,-0.5529,-0.6385,-0.7368,-0.9451,-0.9822,-0.9822,-0.9822,-0.9822,-0.9822,-0.9822,-0.9822,-0.9822,-0.9822,-0.9822,-0.9822,-0.9822,-0.9822,-0.9822,-0.9822,-1.0065,-1.0308,-1.0308,-1.1012,-1.1432,-1.1432,-1.1913,-1.2093,-1.2093,-1.2093,-1.2134,0.6404,0.6437,0.6437,0.6437,0.6437,0.635,0.0,0.4882,0.281,0.0444,0.0536,0.0734,0.0095,0.0,0.0,0.0,0.0,0.0,0.0,0.0,0.0,0.0,0.0,0.0,0.0,0.0,0.0,0.0,0.0,0.0,0.0,0.0,0.0,0.0,0.0,0.0,0.0,0.0,0.0,0.0,0.0,0.0,0.0,0.0,0.0,0.0,0.0,0.0,0.0,0.0,0.0,0.0,0.0,0.0,0.0,0.0,0.0,0.0,0.0,0.0,0.0,0.0,-0.0646,-0.1544,-0.189,-0.2003,-0.2003,-0.2003,-0.1996,-0.1988,-0.1978,-0.1977,-0.1977,-0.1977,-0.1977,-0.1977,-0.1977,-0.1977,-0.1977,-0.1977,-0.1977,-0.2714,-0.4916,-0.5651,-0.663,-0.8958,-0.9579,-0.9822,-0.9822,-0.9822,-0.9822,-0.9822,-0.9863,-0.9869,-0.9822,-0.9863,-0.989,-0.989,-0.993,-0.9958,-0.9958,-1.0204,-1.0327,-1.0327,-1.0929,-1.1238,-1.1238,-1.1862,-1.2178,-1.2178,-1.2304,-1.2337,0.6404,0.6437,0.6437,0.6437,0.6437,0.6344,0.0,0.5064,0.3287,0.0542,0.1729,0.2523,0.039,0.0,0.0,0.0,0.0,0.0,0.0,0.0,0.0,0.0,0.0,0.0,0.0,0.0,0.0,0.0,0.0,0.0,0.0,0.0,0.0,0.0,0.0,0.0,0.0,0.0,0.0,0.0,0.0,0.0,0.0,0.0,0.0,0.0,0.0,0.0,0.0,0.0,0.0,0.0,0.0,0.0,0.0,0.0,0.0,0.0,0.0,0.0,0.0,0.0,-0.0904,-0.1938,-0.1938,-0.1936,-0.2063,-0.2063,-0.2041,-0.2011,-0.1984,-0.1977,-0.1977,-0.1977,-0.1977,-0.1977,-0.1977,-0.1977,-0.1977,-0.1977,-0.1977,-0.2469,-0.3692,-0.5039,-0.6385,-0.7734,-0.8958,-0.9822,-0.9822,-0.9822,-0.9822,-0.9822,-0.9958,-0.9985,-0.9836,-0.9958,-1.0046,-1.0046,-1.0188,-1.0276,-1.0276,-1.0276,-1.0276,-1.0276,-1.0658,-1.0785,-1.0785,-1.1419,-1.1799,-1.1799,-1.2178,-1.2393,0.6165,0.6312,0.6399,0.6236,0.6257,0.6349,0.6264,0.5757,0.5203,0.4314,0.3677,0.3458,0.419,0.3136,0.2275,0.2449,0.2461,0.0,0.0,0.0,0.0,0.0,0.0,0.0,0.0,0.0,0.0,0.0,0.0,0.0,0.0,0.0,0.0,0.0,0.0,0.0,0.0,0.0,0.0,0.0,0.0,0.0,0.0,0.0,0.0,0.0,0.0,0.0,0.0,0.0,0.0,0.0,0.0,0.0,0.0,0.0,0.0,0.0,0.0,0.0,0.0,0.0,-0.0266,-0.0664,-0.1196,-0.1311,-0.1418,-0.1935,-0.2042,-0.2016,-0.2008,-0.199,-0.1977,-0.1977,-0.1977,-0.1982,-0.2001,-0.2005,-0.2011,-0.2033,-0.2037,-0.2417,-0.3807,-0.5028,-0.6363,-0.7733,-0.902,-0.9863,-0.9964,-0.9978,-1.0019,-1.012,-1.0086,-1.0032,-0.9978,-1.012,-1.0209,-1.0209,-1.0256,-1.0283,-1.0283,-1.0283,-1.0283,-1.0283,-1.0756,-1.0941,-1.0941,-1.1568,-1.1888,-1.2149,-1.254,-1.2702,0.604,0.6225,0.635,0.6246,0.6241,0.6316,0.6216,0.6073,0.6078,0.6089,0.5172,0.4771,0.6126,0.5358,0.4491,0.4598,0.4716,0.0,0.0,0.0,0.0,0.0,0.0,0.0,0.0,0.0,0.0,0.0,0.0,0.0,0.0,0.0,0.0,0.0,0.0,0.0,0.0,0.0,0.0,0.0,0.0,0.0,0.0,0.0,0.0,0.0,0.0,0.0,0.0,0.0,0.0,0.0,0.0,0.0,0.0,0.0,0.0,0.0,0.0,0.0,0.0,0.0,0.0,-0.0135,-0.0539,-0.0798,-0.1179,-0.1954,-0.2059,-0.2033,-0.2022,-0.1997,-0.1979,-0.199,-0.1992,-0.2,-0.203,-0.2035,-0.2041,-0.206,-0.2064,-0.232,-0.3091,-0.4849,-0.6336,-0.7093,-0.8795,-1.0032,-1.0127,-1.0134,-1.0175,-1.027,-1.0243,-1.0215,-1.0215,-1.0202,-1.0215,-1.0276,-1.0283,-1.0304,-1.0358,-1.0358,-1.0385,-1.0446,-1.0795,-1.0836,-1.0836,-1.1336,-1.1776,-1.2312,-1.2576,-1.27,0.0,0.6154,0.6279,0.6366,0.6312,0.6214,0.61,0.6072,0.0,0.601,0.6192,0.6312,0.6448,0.6469,0.6469,0.6486,0.6693,0.0,0.0,0.0,0.0,0.0,0.0,0.0,0.0,0.0,0.0,0.0,0.0,0.0,0.0,0.0,0.0,0.0,0.0,0.0,0.0,0.0,0.0,0.0,0.0,0.0,0.0,0.0,0.0,0.0,0.0,0.0,0.0,0.0,0.0,0.0,0.0,0.0,0.0,0.0,0.0,0.0,0.0,0.0,0.0,0.0,0.0,0.0,0.0,-0.0539,-0.1208,-0.1987,-0.2089,-0.2059,-0.2031,-0.2003,-0.1986,-0.2015,-0.2022,-0.203,-0.206,-0.2067,-0.2068,-0.2069,-0.2071,-0.2071,-0.2071,-0.4386,-0.6178,-0.6178,-0.8486,-1.0283,-1.0297,-1.0297,-1.0297,-1.031,-1.0419,-1.0493,-1.0507,-1.0256,-1.0161,-1.0304,-1.0304,-1.0358,-1.05,-1.05,-1.0561,-1.0717,-1.0711,-1.0704,-1.0704,-1.0969,-1.1505,-1.2312,-1.2305,-1.2437,0.5801,0.0,0.6089,0.5937,0.5942,0.598,0.0,0.5947,0.6002,0.6192,0.0,0.6404,0.6631,0.6753,0.6782,0.7082,0.7202,0.0,0.0,0.0,0.0,0.0,0.0,0.0,0.0,0.0,0.0,0.0,0.0,0.0,0.0,0.0,0.0,0.0,0.0,0.0,0.0,0.0,0.0,0.0,0.0,0.0,0.0,0.0,0.0,0.0,0.0,0.0,0.0,0.0,0.0,0.0,0.0,0.0,0.0,0.0,0.0,0.0,0.0,0.0,0.0,0.0,0.0,0.0,0.0,-0.0135,-0.0538,-0.1878,-0.2105,-0.2068,-0.2083,-0.2049,-0.2016,-0.2046,-0.2053,-0.2061,-0.2093,-0.2098,-0.2105,-0.2129,-0.2133,-0.2133,-0.2133,-0.435,-0.6141,-0.6141,-0.8542,-1.0317,-1.0426,-1.0439,-1.0487,-1.0602,-1.0541,-1.0541,-1.0656,-1.0602,-1.0575,-1.0616,-1.0507,-1.0507,-1.0663,-1.0555,-1.0561,-1.0717,-1.0609,-1.0548,-1.0548,-1.0939,-1.1388,-1.1916,-1.2173,-1.2437,0.608,0.6087,0.6067,0.6182,0.6073,0.6078,0.6264,0.6224,0.6126,0.0,0.0,0.668,0.6842,0.6907,0.7065,0.7238,0.74,0.0,0.0,0.0,0.0,0.0,0.0,0.0,0.0,0.0,0.0,0.0,0.0,0.0,0.0,0.0,0.0,0.0,0.0,0.0,0.0,0.0,0.0,0.0,0.0,0.0,0.0,0.0,0.0,0.0,0.0,0.0,0.0,0.0,0.0,0.0,0.0,0.0,0.0,0.0,0.0,0.0,0.0,0.0,0.0,0.0,0.0,0.0,0.0,0.0,-0.0135,-0.0943,-0.159,-0.2089,-0.2105,-0.2075,-0.2048,-0.2078,-0.2084,-0.2093,-0.2124,-0.2131,-0.2135,-0.2151,-0.2155,-0.2155,-0.2155,-0.4536,-0.6229,-0.6229,-0.8688,-1.0507,-1.0588,-1.0595,-1.0629,-1.0711,-1.0649,-1.0629,-1.0711,-1.0717,-1.069,-1.0622,-1.0473,-1.046,-1.0609,-1.0473,-1.0432,-1.0514,-1.0439,-1.0426,-1.0493,-1.0623,-1.1091,-1.1512,-1.1909,-1.2305,0.6453,0.6374,0.6295,0.6571,0.6435,0.6372,0.6774,0.0,0.0,0.0,0.0,0.0,0.0,0.0,0.0,0.0,0.0,0.0,0.0,0.0,0.0,0.0,0.0,0.0,0.0,0.0,0.0,0.0,0.0,0.0,0.0,0.0,0.0,0.0,0.0,0.0,0.0,0.0,0.0,0.0,0.0,0.0,0.0,0.0,0.0,0.0,0.0,0.0,0.0,0.0,0.0,0.0,0.0,0.0,0.0,0.0,0.0,0.0,0.0,0.0,0.0,0.0,0.0,0.0,0.0,0.0,0.0,0.0,-0.0933,-0.211,-0.2114,-0.2094,-0.2079,-0.2109,-0.2116,-0.2123,-0.2148,-0.2155,-0.2155,-0.2155,-0.2155,-0.2155,-0.2155,-0.4565,-0.6431,-0.6431,-0.8839,-1.0717,-1.0717,-1.0717,-1.0717,-1.0717,-1.0717,-1.0717,-1.0717,-1.0717,-1.0663,-1.0534,-1.0392,-1.0365,-1.0487,-1.0399,-1.0337,-1.0317,-1.031,-1.0371,-1.0493,-1.0493,-1.0699,-1.1247,-1.1512,-1.1909,0.6666,0.6629,0.6726,0.6722,0.6771,0.6868,0.6978,0.0,0.0,0.0,0.0,0.0,0.0,0.0,0.0,0.0,0.0,0.0,0.0,0.0,0.0,0.0,0.0,0.0,0.0,0.0,0.0,0.0,0.0,0.0,0.0,0.0,0.0,0.0,0.0,0.0,0.0,0.0,0.0,0.0,0.0,0.0,0.0,0.0,0.0,0.0,0.0,0.0,0.0,0.0,0.0,0.0,0.0,0.0,0.0,0.0,0.0,0.0,0.0,0.0,0.0,0.0,0.0,0.0,0.0,0.0,0.0,0.0,-0.0666,-0.1454,-0.2007,-0.2125,-0.211,-0.214,-0.2147,-0.2148,-0.2154,-0.2155,-0.2155,-0.2155,-0.2155,-0.2155,-0.2155,-0.4565,-0.6431,-0.6431,-0.8839,-1.0717,-1.0717,-1.0717,-1.0717,-1.0717,-1.0717,-1.0717,-1.0717,-1.0717,-1.0711,-1.0683,-1.0541,-1.0466,-1.0487,-1.0595,-1.0595,-1.046,-1.046,-1.0473,-1.0493,-1.0493,-1.0699,-1.1247,-1.1247,-1.1644,0.6956,0.7047,0.7201,0.723,0.7133,0.7056,0.7408,0.0,0.0,0.0,0.0,0.0,0.0,0.0,0.0,0.0,0.0,0.0,0.0,0.0,0.0,0.0,0.0,0.0,0.0,0.0,0.0,0.0,0.0,0.0,0.0,0.0,0.0,0.0,0.0,0.0,0.0,0.0,0.0,0.0,0.0,0.0,0.0,0.0,0.0,0.0,0.0,0.0,0.0,0.0,0.0,0.0,0.0,0.0,0.0,0.0,0.0,0.0,0.0,0.0,0.0,0.0,0.0,0.0,0.0,0.0,0.0,0.0,-0.0268,-0.0801,-0.1882,-0.2144,-0.2138,-0.2151,-0.2155,-0.2155,-0.2155,-0.2155,-0.2155,-0.2155,-0.2155,-0.2155,-0.2155,-0.3897,-0.5499,-0.6297,-0.8169,-0.9782,-1.0585,-1.0717,-1.0717,-1.0717,-1.0717,-1.0717,-1.0717,-1.0717,-1.0717,-1.0717,-1.0656,-1.0575,-1.0493,-1.0561,-1.0527,-1.0378,-1.0378,-1.0419,-1.0493,-1.0493,-1.0699,-1.0982,-1.1115,-1.138,0.7238,0.7421,0.7611,0.7638,0.0,0.7375,0.7764,0.0,0.0,0.0,0.0,0.0,0.0,0.0,0.0,0.0,0.0,0.0,0.0,0.0,0.0,0.0,0.0,0.0,0.0,0.0,0.0,0.0,0.0,0.0,0.0,0.0,0.0,0.0,0.0,0.0,0.0,0.0,0.0,0.0,0.0,0.0,0.0,0.0,0.0,0.0,0.0,0.0,0.0,0.0,0.0,0.0,0.0,0.0,0.0,0.0,0.0,0.0,0.0,0.0,0.0,0.0,0.0,0.0,0.0,0.0,0.0,0.0,0.0,-0.0269,-0.1346,-0.1885,-0.2155,-0.2155,-0.2155,-0.2155,-0.2155,-0.2155,-0.2155,-0.2155,-0.2155,-0.2155,-0.2155,-0.3362,-0.4833,-0.6164,-0.7636,-0.9111,-1.0585,-1.0717,-1.0717,-1.0717,-1.0717,-1.0717,-1.0717,-1.0717,-1.0717,-1.0717,-1.0717,-1.067,-1.0548,-1.0548,-1.0493,-1.0385,-1.0385,-1.0439,-1.0548,-1.0548,-1.0609,-1.0717,-1.0982,-1.1115,0.7529,0.7584,0.7631,0.7767,0.7811,0.0,0.8024,0.7912,0.0,0.8011,0.0,0.0,0.0,0.0,0.0,0.0,0.0,0.0,0.0,0.0,0.0,0.0,0.0,0.0,0.0,0.0,0.0,0.0,0.0,0.0,0.0,0.0,0.0,0.0,0.0,0.0,0.0,0.0,0.0,0.0,0.0,0.0,0.0,0.0,0.0,0.0,0.0,0.0,0.0,0.0,0.0,0.0,0.0,0.0,0.0,0.0,0.0,0.0,0.0,0.0,0.0,0.0,0.0,0.0,0.0,0.0,0.0,0.0,0.0,-0.0,-0.0135,-0.1212,-0.2155,-0.2155,-0.2155,-0.2155,-0.2155,-0.2155,-0.2155,-0.2155,-0.2155,-0.2155,-0.2155,-0.3362,-0.4833,-0.6164,-0.7636,-0.9111,-1.0585,-1.0717,-1.0717,-1.0717,-1.0717,-1.0717,-1.0717,-1.0717,-1.0717,-1.0717,-1.0717,-1.0717,-1.0704,-1.0704,-1.0697,-1.069,-1.069,-1.0697,-1.0704,-1.0704,-1.0711,-1.0717,-1.0717,-1.085,0.7441,0.7529,0.7611,0.7665,0.7862,0.0,0.0,0.818,0.8208,0.8296,0.0,0.0,0.0,0.0,0.0,0.0,0.0,0.0,0.0,0.0,0.0,0.0,0.0,0.0,0.0,0.0,0.0,0.0,0.0,0.0,0.0,0.0,0.0,0.0,0.0,0.0,0.0,0.0,0.0,0.0,0.0,0.0,0.0,0.0,0.0,0.0,0.0,0.0,0.0,0.0,0.0,0.0,0.0,0.0,0.0,0.0,0.0,0.0,0.0,0.0,0.0,0.0,0.0,0.0,0.0,0.0,0.0,0.0,0.0,0.0,0.0,-0.0404,-0.1077,-0.2019,-0.2155,-0.2155,-0.2155,-0.2155,-0.2155,-0.2155,-0.2155,-0.2155,-0.2155,-0.3362,-0.4833,-0.6164,-0.7636,-0.9111,-1.0585,-1.0717,-1.0717,-1.0717,-1.0717,-1.0717,-1.0717,-1.0717,-1.0717,-1.0717,-1.0717,-1.0717,-1.0717,-1.0717,-1.0717,-1.0717,-1.0717,-1.0717,-1.0717,-1.0717,-1.0717,-1.0717,-1.0717,-1.0717,0.7455,0.755,0.7665,0.7665,0.0,0.0,0.8289,0.8303,0.8323,0.8513,0.0,0.0,0.0,0.0,0.0,0.0,0.0,0.0,0.0,0.0,0.0,0.0,0.0,0.0,0.0,0.0,0.0,0.0,0.0,0.0,0.0,0.0,0.0,0.0,0.0,0.0,0.0,0.0,0.1747,0.0,0.0,0.0,0.0,0.0,0.0,0.0,0.0,0.0,0.0,0.0,0.0,0.0,0.0,0.0,0.0,0.0,0.0,0.0,0.0,0.0,0.0,0.0,0.0,0.0,0.0,0.0,0.0,0.0,0.0,0.0,0.0,0.0,-0.0269,-0.1212,-0.1885,-0.2155,-0.2155,-0.2155,-0.2155,-0.2155,-0.2155,-0.2155,-0.2155,-0.2959,-0.43,-0.6168,-0.7236,-0.8573,-1.0452,-1.0717,-1.0717,-1.0717,-1.0717,-1.0717,-1.0717,-1.0717,-1.0717,-1.0717,-1.0717,-1.0717,-1.0717,-1.0717,-1.0717,-1.0717,-1.0717,-1.0717,-1.0717,-1.0717,-1.0717,-1.0717,-1.0717,-1.0717,0.7631,0.7699,0.7807,0.0,0.0,0.0,0.8418,0.8377,0.8357,0.0,0.0,0.0,0.0,0.0,0.0,0.0,0.0,0.0,0.0,0.0,0.0,0.0,0.0,0.0,0.0,0.0,0.0,0.0,0.0,0.0,0.0,0.0,0.0,0.0,0.0,0.0,0.0,0.8622,0.5781,0.0,0.0,0.0,0.0,0.0,0.0,0.0,0.0,0.0,0.0,0.0,0.0,0.0,0.0,0.0,0.0,0.0,0.0,0.0,0.0,0.0,0.0,0.0,0.0,0.0,0.0,0.0,0.0,0.0,0.0,0.0,0.0,0.0,0.0,0.0,-0.1077,-0.2155,-0.2155,-0.2155,-0.2155,-0.2155,-0.2155,-0.2155,-0.2155,-0.2155,-0.3228,-0.603,-0.6431,-0.7503,-1.0319,-1.0717,-1.0717,-1.0717,-1.0717,-1.0717,-1.0717,-1.0717,-1.0717,-1.0717,-1.0717,-1.0717,-1.0717,-1.0717,-1.0717,-1.0717,-1.0717,-1.0717,-1.0717,-1.0717,-1.0717,-1.0717,-1.0717,-1.0717,0.7319,0.7468,0.0,0.0,0.0,0.0,0.0,0.8533,0.0,0.0,0.0,0.0,0.0,0.0,0.0,0.0,0.0,0.0,0.0,0.0,0.0,0.0,0.0,0.0,0.0,0.0,0.0,0.0,0.0,0.0,0.0,0.0,0.0,0.0,0.0,0.0,0.0,0.0,0.6719,0.2952,0.0941,0.0,0.0,0.0,0.0,0.0,0.0,0.0,0.0,0.0,0.0,0.0,0.0,0.0,0.0,0.0,0.0,0.0,0.0,0.0,0.0,0.0,0.0,0.0,0.0,0.0,0.0,0.0,0.0,0.0,0.0,0.0,0.0,0.0,-0.0673,-0.1616,-0.2154,-0.2155,-0.2155,-0.2155,-0.2155,-0.2155,-0.2155,-0.3895,-0.5499,-0.6297,-0.8169,-0.9782,-1.0585,-1.0717,-1.0717,-1.0717,-1.0717,-1.0717,-1.0717,-1.0717,-1.0717,-1.0717,-1.0717,-1.0717,-1.0717,-1.0717,-1.0717,-1.0717,-1.0717,-1.0717,-1.0717,-1.0717,-1.0717,-1.0717,-1.0717,-1.0717,0.7346,0.7543,0.0,0.0,0.0,0.0,0.0,0.0,0.0,0.0,0.0,0.0,0.0,0.0,0.0,0.0,0.0,0.0,0.0,0.0,0.0,0.0,0.0,0.0,0.0,0.0,0.0,0.0,0.0,0.0,0.0,0.0,0.0,0.0,0.0,0.0,0.0,0.0,0.0,0.5908,0.188,0.0,0.0,0.0,0.0,0.0,0.0,0.0,0.0,0.0,0.0,0.0,0.0,0.0,0.0,0.0,0.0,0.0,0.0,0.0,0.0,0.0,0.0,0.0,0.0,0.0,0.0,0.0,0.0,0.0,0.0,0.0,0.0,0.0,-0.0404,-0.0943,-0.2019,-0.2155,-0.2155,-0.2155,-0.2155,-0.2155,-0.2155,-0.4031,-0.5767,-0.6297,-0.8839,-1.0717,-1.0717,-1.0717,-1.0717,-1.0717,-1.0717,-1.0717,-1.0717,-1.0717,-1.0717,-1.0717,-1.0717,-1.0717,-1.0717,-1.0717,-1.0717,-1.0717,-1.0717,-1.0717,-1.0717,-1.0717,-1.0717,-1.0717,-1.0717,-1.0717,0.7556,0.0,0.0,0.0,0.0,0.0,0.0,0.0,0.0,0.0,0.0,0.0,0.0,0.0,0.0,0.0,0.0,0.0,0.0,0.0,0.0,0.0,0.0,0.0,0.0,0.0,0.0,0.0,0.0,0.0,0.0,0.0,0.0,0.0,0.0,0.0,0.0,0.0,0.0,0.0,0.0,0.0538,0.0,0.0,0.0,0.0,0.0,0.0,0.0,0.0,0.0,0.0,0.0,0.0,0.0,0.0,0.0,0.0,0.0,0.0,0.0,0.0,0.0,0.0,0.0,0.0,0.0,0.0,0.0,0.0,0.0,0.0,0.0,0.0,0.0,-0.0404,-0.175,-0.2154,-0.2155,-0.2155,-0.2155,-0.2155,-0.2155,-0.3362,-0.4967,-0.6569,-0.8978,-1.0717,-1.0717,-1.0717,-1.0717,-1.0717,-1.0717,-1.0717,-1.0717,-1.0717,-1.0717,-1.0717,-1.0717,-1.0717,-1.0717,-1.0717,-1.0717,-1.0717,-1.0717,-1.0717,-1.0717,-1.0717,-1.0717,-1.0717,-1.0717,-1.0717,0.7238,0.7543,0.0,0.0,0.0,0.0,0.0,0.0,0.0,0.0,0.0,0.0,0.0,0.0,0.0,0.0,0.0,0.0,0.0,0.0,0.0,0.0,0.0,0.0,0.0,0.0,0.0,0.0,0.0,0.0,0.0,0.0,0.0,0.0,0.0,0.0,0.8984,0.8989,0.8867,0.0,0.7407,0.4437,0.0,0.0,0.0,0.0,0.0,0.0,0.0,0.0,0.0,0.0,0.0,0.0,0.0,0.0,0.0,0.0,0.0,0.0,0.0,0.0,0.0,0.0,0.0,0.0,0.0,0.0,0.0,0.0,0.0,0.0,0.0,0.0,0.0,-0.0135,-0.0404,-0.1346,-0.2155,-0.2155,-0.2155,-0.2155,-0.2155,-0.3627,-0.603,-0.9244,-1.0319,-1.0717,-1.0717,-1.0717,-1.0717,-1.0717,-1.0717,-1.0717,-1.0717,-1.0717,-1.0717,-1.0717,-1.0717,-1.0717,-1.0717,-1.0717,-1.0717,-1.0717,-1.0717,-1.0717,-1.0717,-1.0717,-1.0717,-1.0717,-1.0717,-1.0717,0.7319,0.0,0.0,0.0,0.0,0.0,0.0,0.0,0.0,0.0,0.0,0.0,0.0,0.0,0.0,0.0,0.0,0.0,0.0,0.0,0.0,0.0,0.0,0.0,0.0,0.0,0.0,0.0,0.0,0.0,0.0,0.0,0.0,0.0,0.0,0.0,0.9389,0.9262,0.914,0.889,0.8767,0.5524,0.0,0.0,0.0,0.0,0.0,0.0,0.0,0.0,0.0,0.0,0.0,0.0,0.0,0.0,0.0,0.0,0.0,0.0,0.0,0.0,0.0,0.0,0.0,0.0,0.0,0.0,0.0,0.0,0.0,0.0,0.0,0.0,0.0,0.0,0.0,-0.1212,-0.2155,-0.2155,-0.1885,-0.1616,-0.1616,-0.43,-0.7379,-1.0319,-1.0717,-1.0717,-1.0717,-1.0717,-1.0717,-1.0717,-1.0717,-1.0717,-1.0717,-1.0717,-1.0717,-1.0717,-1.0717,-1.0717,-1.0717,-1.0717,-1.0717,-1.0717,-1.0717,-1.0717,-1.0717,-1.0717,-1.0717,-1.0717,-1.0717,-1.0717,0.7441,0.0,0.8147,0.8418,0.0,0.0,0.0,0.0,0.0,0.0,0.0,0.0,0.0,0.0,0.0,0.0,0.0,0.0,0.0,0.0,0.0,0.0,0.0,0.0,0.0,0.0,0.0,0.0,0.0,0.0,0.0,0.0,0.0,0.0,0.0,1.0193,0.9794,0.9273,0.8873,0.8467,0.8504,0.5531,0.0,0.0,0.0,0.0,0.0,0.0,0.0,0.0,0.0,0.0,0.0,0.0,0.0,0.0,0.0,0.0,0.0,0.0,0.0,0.0,0.0,0.0,0.0,0.0,0.0,0.0,0.0,0.0,0.0,0.0,0.0,0.0,0.0,0.0,0.0,-0.0943,-0.1885,-0.2154,-0.1481,-0.1077,-0.1614,-0.5108,-0.8467,-1.0326,-1.0717,-1.0717,-1.0717,-1.0717,-1.0717,-1.0717,-1.0717,-1.0717,-1.0717,-1.0717,-1.0717,-1.0717,-1.0717,-1.0717,-1.0717,-1.0717,-1.0717,-1.0717,-1.0717,-1.0717,-1.0717,-1.0717,-1.0717,-1.0717,-1.0717,-1.0717,0.0,0.0,0.8282,0.0,0.0,0.0,0.0,0.0,0.0,0.0,0.0,0.0,0.0,0.0,0.0,0.0,0.0,0.0,0.0,0.0,0.0,0.0,0.0,0.0,0.0,0.0,0.0,0.0,0.0,0.0,0.0,0.0,1.0717,1.0585,1.0585,0.0,1.0193,0.8851,0.7102,0.4958,0.7421,0.5534,0.0,0.0,0.0,0.0,0.0,0.0,0.0,0.0,0.0,0.0,0.0,0.0,0.0,0.0,0.0,0.0,0.0,0.0,0.0,0.0,0.0,0.0,0.0,0.0,0.0,0.0,0.0,0.0,0.0,0.0,0.0,0.0,0.0,0.0,0.0,-0.0135,-0.0673,-0.1885,-0.1077,-0.0941,-0.3486,-0.6176,-0.8467,-1.006,-1.0459,-1.0717,-1.0717,-1.0717,-1.0717,-1.0717,-1.0717,-1.0717,-1.0717,-1.0717,-1.0717,-1.0717,-1.0717,-1.0717,-1.0717,-1.0717,-1.0717,-1.0717,-1.0717,-1.0717,-1.0717,-1.0717,-1.0717,-1.0717,-1.0717,-1.0717,0.7292,0.776,0.8194,0.0,0.0,0.0,0.0,0.0,0.0,0.0,0.0,0.0,0.0,0.0,0.0,0.0,0.0,0.0,0.0,0.0,0.0,0.0,0.0,0.0,0.0,0.0,0.0,0.0,0.0,0.0,0.0,1.0717,1.0717,1.0717,1.0717,0.0,1.0452,0.8856,0.6176,0.2551,0.3365,0.2425,0.0,0.0,0.0,0.0,0.0,0.0,0.0,0.0,0.0,0.0,0.0,0.0,0.0,0.0,0.0,0.0,0.0,0.0,0.0,0.0,0.0,0.0,0.0,0.0,0.0,0.0,0.0,0.0,0.0,0.0,0.0,0.0,0.0,0.0,0.0,0.0,-0.0135,-0.0808,-0.0404,-0.0941,-0.3754,-0.6849,-0.9151,-1.006,-1.0452,-1.0717,-1.0717,-1.0717,-1.0717,-1.0717,-1.0717,-1.0717,-1.0717,-1.0717,-1.0717,-1.0717,-1.0717,-1.0717,-1.0717,-1.0717,-1.0717,-1.0717,-1.0717,-1.0717,-1.0717,-1.0717,-1.0717,-1.0717,-1.0717,-1.0717,0.0,0.0,0.7997,0.8296,0.854,0.0,0.0,0.0,0.0,0.0,0.0,0.0,0.0,0.0,0.0,0.0,0.0,0.0,0.0,0.0,0.0,0.0,0.0,0.0,0.0,0.0,0.0,0.0,0.0,0.0,1.0717,1.0717,1.0717,1.0717,1.0717,1.0717,1.0717,0.8318,0.5238,0.1346,0.0808,0.0404,0.0,0.0,0.0,0.0,0.0,0.0,0.0,0.0,0.0,0.0,0.0,0.0,0.0,0.0,0.0,0.0,0.0,0.0,0.0,0.0,0.0,0.0,0.0,0.0,0.0,0.0,0.0,0.0,0.0,0.0,0.0,0.0,0.0,0.0,0.0,0.0,0.0,0.0,-0.1212,-0.2689,-0.4021,-0.7254,-0.9692,-1.0066,-1.0326,-1.0585,-1.0717,-1.0717,-1.0717,-1.0717,-1.0717,-1.0717,-1.0717,-1.0717,-1.0717,-1.0717,-1.0717,-1.0717,-1.0717,-1.0717,-1.0717,-1.0717,-1.0717,-1.0717,-1.0717,-1.0717,-1.0717,-1.0717,-1.0717,-1.0717,0.0,0.7387,0.0,0.7991,0.0,0.0,0.0,0.0,0.0,0.0,0.0,0.0,0.0,0.0,0.0,0.0,0.0,0.0,0.0,0.0,0.0,0.0,0.0,0.0,0.0,0.0,0.0,0.0,0.0,0.0,1.0717,1.0717,1.0717,1.0717,1.0717,1.0717,1.0717,0.6965,0.416,0.2154,0.2154,0.1346,0.0,0.0,0.0,0.0,0.0,0.0,0.0,0.0,0.0,0.0,0.0,0.0,0.0,0.0,0.0,0.0,0.0,0.0,0.0,0.0,0.0,0.0,0.0,0.0,0.0,0.0,0.0,0.0,0.0,0.0,0.0,0.0,0.0,0.0,0.0,0.0,0.0,0.0,-0.4445,-0.7286,-0.4699,-0.7116,-0.9413,-0.9667,-1.006,-1.0326,-1.0717,-1.0717,-1.0717,-1.0717,-1.0717,-1.0717,-1.0717,-1.0717,-1.0717,-1.0717,-1.0717,-1.0717,-1.0717,-1.0717,-1.0717,-1.0717,-1.0717,-1.0717,-1.0717,-1.0717,-1.0717,-1.0717,-1.0717,-1.0717,0.0,0.0,0.0,0.7821,0.0,0.0,0.0,0.0,0.0,0.0,0.0,0.0,0.0,0.0,0.0,0.0,0.0,0.0,0.0,0.0,0.0,0.0,0.0,0.0,0.0,0.0,0.0,0.0,0.0,0.0,1.0717,1.0717,1.0717,1.0717,1.0717,0.9782,0.7902,0.6564,0.4696,0.2155,0.2155,0.1885,0.1346,0.0404,0.0,0.0,0.0,0.0,0.0,0.0,0.0,0.0,0.0,0.0,0.0,0.0,0.0,0.0,0.0,0.0,0.0,0.0,0.0,0.0,0.0,0.0,0.0,0.0,0.0,0.0,0.0,0.0,0.0,0.0,0.0,0.0,0.0,0.0,0.0,0.0,-0.4717,-0.8241,-0.7268,-0.8339,-0.9413,-0.9667,-0.9927,-1.0326,-1.0717,-1.0717,-1.0717,-1.0717,-1.0717,-1.0717,-1.0717,-1.0717,-1.0717,-1.0717,-1.0717,-1.0717,-1.0717,-1.0717,-1.0717,-1.0717,-1.0717,-1.0717,-1.0717,-1.0717,-1.0717,-1.0717,-1.0717,-1.0717,0.7111,0.0,0.0,0.0,0.0,0.0,0.0,0.0,0.0,0.0,0.0,0.0,0.0,0.0,0.0,0.0,0.0,0.0,0.0,0.0,0.0,0.0,0.0,0.0,0.0,0.0,0.0,0.0,0.0,0.0,1.0717,1.0717,1.0717,1.0717,1.0717,0.9377,0.6431,0.6431,0.4964,0.2155,0.2155,0.2155,0.2154,0.0943,0.0269,0.0,0.0,0.0,0.0,0.0,0.0,0.0,0.0,0.0,0.0,0.0,0.0,0.0,0.0,0.0,0.0,0.0,0.0,0.0,0.0,0.0,0.0,0.0,0.0,0.0,0.0,0.0,0.0,0.0,0.0,0.0,0.0,0.0,0.0,0.0,-0.3902,-0.7416,-0.8494,-0.8884,-0.9134,-0.9395,-0.9794,-1.0193,-1.0452,-1.0585,-1.0717,-1.0717,-1.0717,-1.0717,-1.0717,-1.0717,-1.0717,-1.0717,-1.0717,-1.0717,-1.0717,-1.0717,-1.0717,-1.0717,-1.0717,-1.0717,-1.0717,-1.0717,-1.0717,-1.0717,-1.0717,-1.0717,0.0,0.0,0.0,0.0,0.0,0.0,0.0,0.0,0.0,0.0,0.0,0.0,0.0,0.0,0.0,0.0,0.0,0.0,0.0,0.0,0.0,0.0,0.0,0.0,0.0,0.0,0.0,0.0,0.0,1.0717,1.0717,1.0717,1.0717,1.0717,1.0717,0.9377,0.6431,0.6431,0.4964,0.2155,0.2155,0.2155,0.2155,0.1481,0.0673,0.0,0.0,0.0,0.0,0.0,0.0,0.0,0.0,0.0,0.0,0.0,0.0,0.0,0.0,0.0,0.0,0.0,0.0,0.0,0.0,0.0,0.0,0.0,0.0,0.0,0.0,0.0,0.0,0.0,0.0,0.0,0.0,0.0,0.0,0.0,-0.2284,-0.5238,-0.8081,-0.8606,-0.8717,-0.9117,-0.9389,-0.9794,-1.0193,-1.0452,-1.0717,-1.0717,-1.0717,-1.0717,-1.0717,-1.0717,-1.0717,-1.0717,-1.0717,-1.0717,-1.0717,-1.0717,-1.0717,-1.0717,-1.0717,-1.0717,-1.0717,-1.0717,-1.0717,-1.0717,-1.0717,-1.0717,0.7381,0.0,0.0,0.0,0.0,0.0,0.0,0.0,0.0,0.0,0.0,0.0,0.0,0.0,0.0,0.0,0.0,0.0,0.0,0.0,0.0,0.0,0.0,0.0,0.0,0.0,0.0,0.0,0.0,1.0717,1.0717,1.0717,1.0717,1.0717,1.0717,0.9377,0.6431,0.6431,0.4964,0.2155,0.2155,0.2155,0.2155,0.2019,0.1212,0.0,0.0,0.0,0.0,0.0,0.0,0.0,0.0,0.0,0.0,0.0,0.0,0.0,0.0,0.0,0.0,0.0,0.0,0.0,0.0,0.0,0.0,0.0,0.0,0.0,0.0,0.0,0.0,0.0,0.0,0.0,0.0,0.0,0.0,0.0,-0.2284,-0.5238,-0.8081,-0.8606,-0.8717,-0.9117,-0.925,-0.9522,-1.006,-1.0326,-1.0452,-1.0724,-1.0717,-1.0717,-1.0717,-1.0717,-1.0717,-1.0717,-1.0717,-1.0717,-1.0717,-1.0717,-1.0717,-1.0717,-1.0717,-1.0717,-1.0717,-1.0717,-1.0717,-1.0717,-1.0717,-1.0717,0.0,0.0,0.0,0.0,0.0,0.0,0.0,0.0,0.0,0.0,0.0,0.0,0.0,0.0,0.0,0.0,0.0,0.0,0.0,0.0,0.0,0.0,0.0,0.0,0.0,0.0,0.0,0.0,1.0717,1.0717,1.0717,1.0717,1.0717,1.0717,1.018,0.8706,0.6431,0.5767,0.4431,0.2155,0.2155,0.2019,0.175,0.2019,0.1346,0.0,0.0,0.0,0.0,0.0,0.0,0.0,0.0,0.0,0.0,0.0,0.0,0.0,0.0,0.0,0.0,0.0,0.0,0.0,0.0,0.0,0.0,0.0,0.0,0.0,0.0,0.0,0.0,0.0,0.0,0.0,0.0,0.0,-0.0673,-0.3098,-0.4031,-0.5235,-0.8076,-0.86,-0.8723,-0.8851,-0.8984,-0.925,-0.9927,-1.006,-1.0326,-1.0717,-1.0717,-1.0717,-1.0717,-1.0717,-1.0717,-1.0717,-1.0717,-1.0717,-1.0717,-1.0717,-1.0717,-1.0717,-1.0717,-1.0717,-1.0717,-1.0717,-1.0717,-1.0717,-1.0717,-1.0717,0.0,0.0,0.0,0.0,0.0,0.0,0.9145,0.8996,0.0,0.0,0.0,0.0,0.0,0.0,0.0,0.0,0.0,0.0,0.0,0.0,0.0,0.0,0.0,0.0,0.0,0.0,0.0,1.0717,1.0717,1.0717,1.0717,1.0717,1.0717,1.0717,0.951,0.8169,0.6698,0.5235,0.3763,0.2154,0.2154,0.175,0.0943,0.1616,0.1212,0.0,0.0,0.0,0.0,0.0,0.0,0.0,0.0,0.0,0.0,0.0,0.0,0.0,0.0,0.0,0.0,0.0,0.0,0.0,0.0,0.0,0.0,0.0,0.0,0.0,0.0,0.0,0.0,0.0,0.0,0.0,0.0,0.0,-0.1616,-0.7018,-0.6325,-0.564,-0.8205,-0.86,-0.859,-0.859,-0.8851,-0.925,-0.9528,-0.9927,-1.0326,-1.0591,-1.0717,-1.0717,-1.0717,-1.0717,-1.0717,-1.0717,-1.0717,-1.0717,-1.0717,-1.0717,-1.0717,-1.0717,-1.0717,-1.0717,-1.0717,-1.0717,-1.0717,-1.0717,-1.0717,-1.0717,0.891,0.8747,0.8673,0.0,0.0,0.0,0.0,0.8475,0.0,0.0,0.0,0.0,0.0,0.0,0.0,0.0,0.0,0.0,0.0,0.0,0.0,0.0,0.0,0.0,0.0,0.0,1.0717,1.0717,1.0717,1.0717,1.0717,1.0717,1.0717,1.0717,1.0452,0.9643,0.8174,0.6702,0.4693,0.2148,0.2153,0.1481,0.0269,0.0404,0.0269,0.0,0.0,0.0,0.0,0.0,0.0,0.0,0.0,0.0,0.0,0.0,0.0,0.0,0.0,0.0,0.0,0.0,0.0,0.0,0.0,0.0,0.0,0.0,0.0,0.0,0.0,0.0,0.0,0.0,0.0,0.0,0.0,0.0,-0.1076,-0.4434,-0.6589,-0.7942,-0.8483,-0.86,-0.859,-0.859,-0.8723,-0.8851,-0.9117,-0.9522,-0.9927,-1.0326,-1.0585,-1.0717,-1.0717,-1.0717,-1.0717,-1.0717,-1.0717,-1.0717,-1.0717,-1.0717,-1.0717,-1.0717,-1.0717,-1.0717,-1.0717,-1.0717,-1.0717,-1.0717,-1.0717,-1.0717,0.0,0.0,0.9064,0.8882,0.0,0.0,0.0,0.0,0.0,0.0,0.0,0.0,0.0,0.0,0.0,0.0,0.0,0.0,0.0,0.0,0.0,0.0,0.0,0.0,0.0,0.0,1.0636,1.0717,1.0717,1.0717,1.0717,1.0717,1.0717,1.0717,1.0047,0.9377,0.8573,0.7102,0.5362,0.3224,0.2554,0.1615,0.0539,0.0135,0.0,0.0,0.0,0.0,0.0,0.0,0.0,0.0,0.0,0.0,0.0,0.0,0.0,0.0,0.0,0.0,0.0,0.0,0.0,0.0,0.0,0.0,0.0,0.0,0.0,0.0,0.0,0.0,0.0,0.0,0.0,0.0,0.0,-0.2289,-0.4308,-0.4294,-0.6585,-0.8617,-0.8606,-0.8595,-0.859,-0.859,-0.859,-0.8723,-0.9117,-0.9256,-0.9655,-1.0193,-1.0326,-1.0459,-1.0717,-1.0717,-1.0717,-1.0717,-1.0717,-1.0717,-1.0717,-1.0717,-1.0717,-1.0717,-1.0717,-1.0717,-1.0717,-1.0717,-1.0717,-1.0717,-1.0717,-1.0717,0.0,0.0,0.0,0.0,0.0,0.8882,0.0,0.0,0.0,0.9236,0.0,0.0,0.0,0.0,0.0,0.0,0.0,0.0,0.0,0.0,0.0,0.0,0.0,0.0,0.0,0.0,1.048,1.0663,1.0649,1.0663,1.0717,1.0717,1.0717,1.0717,0.9649,0.8978,0.8978,0.7236,0.5767,0.4699,0.2956,0.1882,0.1346,0.0404,0.0,0.0,0.0,0.0,0.0,0.0,0.0,0.0,0.0,0.0,0.0,0.0,0.0,0.0,0.0,0.0,0.0,0.0,0.0,0.0,0.0,0.0,0.0,0.0,0.0,0.0,0.0,0.0,0.0,0.0,0.0,0.0,0.0,-0.458,-0.7968,-0.5644,-0.6991,-0.8611,-0.859,-0.859,-0.859,-0.859,-0.859,-0.8717,-0.8984,-0.9117,-0.9383,-0.9921,-1.006,-1.0326,-1.0585,-1.0717,-1.0717,-1.0717,-1.0717,-1.0717,-1.0717,-1.0717,-1.0717,-1.0717,-1.0717,-1.0717,-1.0717,-1.0717,-1.0717,-1.0717,-1.0717,-1.0717,0.0,0.0,0.0,0.0,0.921,0.0,0.0,0.0,0.9027,0.9107,0.0,0.0,0.0,0.0,0.0,0.0,0.0,0.0,0.0,0.0,0.0,0.0,0.0,0.0,0.0,0.0,0.0,1.0493,1.0399,1.0446,1.0704,1.0717,1.0717,1.0717,1.0585,1.0452,1.0452,0.7769,0.6297,0.6168,0.3495,0.2154,0.2019,0.0673,0.0,0.0,0.0,0.0,0.0,0.0,0.0,0.0,0.0,0.0,0.0,0.0,0.0,0.0,0.0,0.0,0.0,0.0,0.0,0.0,0.0,0.0,0.0,0.0,0.0,0.0,0.0,0.0,0.0,0.0,0.0,0.0,0.0,-0.458,-0.8515,-0.822,-0.8349,-0.8611,-0.859,-0.859,-0.859,-0.859,-0.859,-0.859,-0.859,-0.8851,-0.9117,-0.925,-0.9788,-1.0193,-1.0193,-1.0585,-1.0717,-1.0717,-1.0717,-1.0717,-1.0717,-1.0717,-1.0717,-1.0717,-1.0717,-1.0717,-1.0717,-1.0717,-1.0717,-1.0717,-1.0717,-1.0717,0.0,0.0,0.0,0.0,0.0,0.0,0.0,0.0,0.8999,0.0,0.0,0.0,0.0,0.0,0.0,0.0,0.0,0.0,0.0,0.0,0.0,0.0,0.0,0.0,0.0,0.0,0.0,0.0,0.0,1.0276,1.0575,1.0588,1.0629,1.0717,1.0717,1.0717,1.0717,0.8706,0.7236,0.6431,0.4431,0.2959,0.2155,0.1616,0.0808,0.0,0.0,0.0,0.0,0.0,0.0,0.0,0.0,0.0,0.0,0.0,0.0,0.0,0.0,0.0,0.0,0.0,0.0,0.0,0.0,0.0,0.0,0.0,0.0,0.0,0.0,0.0,0.0,0.0,0.0,-0.0942,-0.4311,-0.552,-0.6594,-0.8215,-0.8611,-0.8595,-0.859,-0.859,-0.859,-0.859,-0.859,-0.859,-0.859,-0.8723,-0.8851,-0.9117,-0.9522,-0.9927,-1.0193,-1.0459,-1.0717,-1.0717,-1.0717,-1.0717,-1.0717,-1.0717,-1.0717,-1.0717,-1.0717,-1.0717,-1.0717,-1.0717,-1.0717,-1.0717,-1.0717,-1.0717,1.1283,0.0,0.0,0.0,0.0,0.0,0.0,0.0,0.0,0.0,0.0,0.0,0.0,0.0,0.0,0.0,0.0,0.0,0.0,0.0,0.0,0.0,0.0,0.0,0.0,0.0,0.0,0.0,0.0,0.0,1.0419,1.0473,1.0541,1.0656,1.0697,1.0452,1.018,0.8706,0.7236,0.5767,0.4434,0.3228,0.2155,0.2155,0.1481,0.0269,0.0135,0.0,0.0,0.0,0.0,0.0,0.0,0.0,0.0,0.0,0.0,0.0,0.0,0.0,0.0,0.0,0.0,0.0,0.0,0.0,0.0,0.0,0.0,0.0,0.0,0.0,0.0,0.0,0.0,-0.1616,-0.7291,-0.7004,-0.6046,-0.8205,-0.86,-0.859,-0.859,-0.859,-0.859,-0.859,-0.859,-0.859,-0.859,-0.859,-0.8717,-0.8984,-0.9256,-0.9661,-1.006,-1.0326,-1.0585,-1.0717,-1.0717,-1.0717,-1.0717,-1.0717,-1.0717,-1.0717,-1.0717,-1.0717,-1.0717,-1.0717,-1.0717,-1.0717,-1.0717,-1.0717,0.0,0.0,0.0,0.0,0.0,0.0,0.0,0.0,0.9388,0.0,0.0,0.0,0.0,0.0,0.0,0.0,0.0,0.0,0.0,0.0,0.0,0.0,0.0,0.0,0.0,0.0,0.0,0.0,0.0,0.0,1.0263,1.0419,1.0493,1.05,1.0643,1.0047,0.8706,0.7236,0.5767,0.43,0.2961,0.229,0.2155,0.2155,0.175,0.1077,0.0269,0.0,0.0,0.0,0.0,0.0,0.0,0.0,0.0,0.0,0.0,0.0,0.0,0.0,0.0,0.0,0.0,0.0,0.0,0.0,0.0,0.0,0.0,0.0,0.0,0.0,0.0,0.0,0.0,-0.1616,-0.7291,-0.8504,-0.8488,-0.8617,-0.86,-0.859,-0.859,-0.859,-0.859,-0.859,-0.859,-0.859,-0.859,-0.859,-0.859,-0.859,-0.8851,-0.9256,-0.9661,-1.006,-1.0326,-1.0717,-1.0717,-1.0717,-1.0717,-1.0717,-1.0717,-1.0717,-1.0717,-1.0717,-1.0717,-1.0717,-1.0717,-1.0717,-1.0717,-1.0717,0.0,0.0,1.4546,1.1599,0.0,0.0,0.0,0.0,0.0,0.0,0.0,0.0,0.0,0.0,0.0,0.0,0.0,0.0,0.0,0.0,0.0,0.0,0.0,0.0,0.0,0.0,0.0,0.0,0.0,0.0,0.0,1.027,1.0392,1.0487,1.0643,1.0452,1.0047,0.7636,0.6164,0.5633,0.336,0.2155,0.2155,0.2155,0.175,0.1077,0.0269,0.0,0.0,0.0,0.0,0.0,0.0,0.0,0.0,0.0,0.0,0.0,0.0,0.0,0.0,0.0,0.0,0.0,0.0,0.0,0.0,0.0,0.0,0.0,0.0,0.0,0.0,0.0,0.0,-0.1076,-0.4973,-0.7273,-0.8622,-0.86,-0.859,-0.859,-0.859,-0.859,-0.859,-0.859,-0.859,-0.859,-0.859,-0.859,-0.859,-0.859,-0.8851,-0.9256,-0.9661,-1.0193,-1.0585,-1.0717,-1.0717,-1.0717,-1.0717,-1.0717,-1.0717,-1.0717,-1.0717,-1.067,-1.0568,-1.0568,-1.0521,-1.0432,-1.0432,-1.048,1.5411,1.5964,0.0,0.0,1.3121,0.0,0.0,0.0,0.0,0.0,0.0,0.0,0.0,0.0,0.0,0.0,0.0,0.0,0.0,0.0,0.0,0.0,0.0,0.0,0.0,0.0,0.8967,0.9279,0.0,0.0,0.0,0.0,1.0324,1.0412,1.0616,1.0187,0.9244,0.7369,0.59,0.483,0.3094,0.2155,0.2155,0.2155,0.1885,0.1481,0.0404,0.0,0.0,0.0,0.0,0.0,0.0,0.0,0.0,0.0,0.0,0.0,0.0,0.0,0.0,0.0,0.0,0.0,0.0,0.0,0.0,0.0,0.0,0.0,0.0,0.0,0.0,0.0,0.0,-0.0807,-0.3624,-0.6589,-0.8622,-0.8595,-0.859,-0.859,-0.859,-0.859,-0.859,-0.859,-0.859,-0.859,-0.859,-0.859,-0.859,-0.859,-0.8851,-0.9123,-0.9661,-1.0193,-1.0591,-1.0717,-1.0717,-1.0717,-1.0717,-1.0717,-1.0717,-1.0717,-1.067,-1.0588,-1.0493,-1.0439,-1.0371,-1.0276,-1.0222,-1.0249]}]]